Wetterdaten: Montag, 28.12.2020
Datum Zeit Temp. I. Temp. A. Feuchte I. Feuchte A. Luftdruck Regen Wind Richtung Richtung Sonnenschein Solar Taupunkt Windchill Windböen
28.12.2020 00:00 23,4 °C 3,1 °C 47 % 58 % 985,6 hPa 0,0 l/m² 15,4 km/h (3 Bft) O-SO 123 ° 0 min 0 W/m² -4,3 °C -3,4 °C 19,3 km/h (3 Bft)
28.12.2020 00:01 23,4 °C 3,1 °C 47 % 58 % 985,6 hPa 0,0 l/m² 14,5 km/h (3 Bft) O-SO 120 ° 0 min 0 W/m² -4,3 °C -2,9 °C 17,7 km/h (3 Bft)
28.12.2020 00:03 23,4 °C 3,1 °C 47 % 58 % 985,6 hPa 0,0 l/m² 16,8 km/h (3 Bft) O-SO 122 ° 0 min 0 W/m² -4,3 °C -4,2 °C 24,1 km/h (4 Bft)
28.12.2020 00:04 23,4 °C 3,1 °C 47 % 58 % 985,5 hPa 0,0 l/m² 15,4 km/h (3 Bft) O-SO 115 ° 0 min 0 W/m² -4,3 °C -3,4 °C 19,3 km/h (3 Bft)
28.12.2020 00:06 23,4 °C 3,1 °C 47 % 58 % 985,6 hPa 0,0 l/m² 16,5 km/h (3 Bft) SO 128 ° 0 min 0 W/m² -4,3 °C -4,0 °C 22,5 km/h (4 Bft)
28.12.2020 00:08 23,4 °C 3,1 °C 47 % 58 % 985,5 hPa 0,0 l/m² 15,2 km/h (3 Bft) O-SO 117 ° 0 min 0 W/m² -4,3 °C -3,3 °C 22,5 km/h (4 Bft)
28.12.2020 00:10 23,4 °C 3,1 °C 47 % 58 % 985,4 hPa 0,0 l/m² 16,4 km/h (3 Bft) SO 132 ° 0 min 0 W/m² -4,3 °C -4,0 °C 20,9 km/h (4 Bft)
28.12.2020 00:11 23,4 °C 3,0 °C 47 % 58 % 985,4 hPa 0,0 l/m² 16,6 km/h (3 Bft) O-SO 118 ° 0 min 0 W/m² -4,4 °C -4,2 °C 19,3 km/h (3 Bft)
28.12.2020 00:12 23,4 °C 3,1 °C 47 % 58 % 985,4 hPa 0,0 l/m² 14,4 km/h (3 Bft) O-SO 114 ° 0 min 0 W/m² -4,3 °C -2,9 °C 20,9 km/h (4 Bft)
28.12.2020 00:13 23,4 °C 3,1 °C 47 % 58 % 985,4 hPa 0,0 l/m² 12,5 km/h (2 Bft) S-SO 150 ° 0 min 0 W/m² -4,3 °C -1,8 °C 16,1 km/h (3 Bft)
28.12.2020 00:15 23,3 °C 3,0 °C 47 % 58 % 985,6 hPa 0,0 l/m² 13,2 km/h (3 Bft) SO 143 ° 0 min 0 W/m² -4,4 °C -2,3 °C 16,1 km/h (3 Bft)
28.12.2020 00:17 23,3 °C 3,0 °C 47 % 58 % 985,5 hPa 0,0 l/m² 16,3 km/h (3 Bft) S-SO 148 ° 0 min 0 W/m² -4,4 °C -4,0 °C 24,1 km/h (4 Bft)
28.12.2020 00:19 23,3 °C 3,0 °C 47 % 58 % 985,4 hPa 0,0 l/m² 16,0 km/h (3 Bft) O-SO 119 ° 0 min 0 W/m² -4,4 °C -3,9 °C 20,9 km/h (4 Bft)
28.12.2020 00:21 23,3 °C 3,0 °C 47 % 57 % 985,4 hPa 0,0 l/m² 18,3 km/h (3 Bft) O-SO 121 ° 0 min 0 W/m² -4,7 °C -5,0 °C 24,1 km/h (4 Bft)
28.12.2020 00:24 23,3 °C 3,1 °C 47 % 58 % 985,5 hPa 0,0 l/m² 15,4 km/h (3 Bft) SO 134 ° 0 min 0 W/m² -4,3 °C -3,4 °C 24,1 km/h (4 Bft)
28.12.2020 00:26 23,3 °C 3,1 °C 47 % 58 % 985,4 hPa 0,0 l/m² 14,7 km/h (3 Bft) SO 138 ° 0 min 0 W/m² -4,3 °C -3,1 °C 20,9 km/h (4 Bft)
28.12.2020 00:28 23,3 °C 3,1 °C 47 % 58 % 985,3 hPa 0,0 l/m² 14,9 km/h (3 Bft) SO 144 ° 0 min 0 W/m² -4,3 °C -3,2 °C 19,3 km/h (3 Bft)
28.12.2020 00:30 23,3 °C 3,1 °C 47 % 58 % 985,2 hPa 0,0 l/m² 16,9 km/h (3 Bft) SO 128 ° 0 min 0 W/m² -4,3 °C -4,2 °C 22,5 km/h (4 Bft)
28.12.2020 00:32 23,3 °C 3,1 °C 47 % 58 % 985,3 hPa 0,0 l/m² 16,2 km/h (3 Bft) SO 136 ° 0 min 0 W/m² -4,3 °C -3,9 °C 24,1 km/h (4 Bft)
28.12.2020 00:33 23,3 °C 3,1 °C 47 % 58 % 985,3 hPa 0,0 l/m² 18,1 km/h (3 Bft) S-SO 165 ° 0 min 0 W/m² -4,3 °C -4,8 °C 22,5 km/h (4 Bft)
28.12.2020 00:35 23,3 °C 3,1 °C 47 % 58 % 985,4 hPa 0,0 l/m² 17,8 km/h (3 Bft) O-SO 119 ° 0 min 0 W/m² -4,3 °C -4,6 °C 24,1 km/h (4 Bft)
28.12.2020 00:37 23,2 °C 3,1 °C 47 % 59 % 985,3 hPa 0,0 l/m² 15,7 km/h (3 Bft) SO 126 ° 0 min 0 W/m² -4,1 °C -3,6 °C 22,5 km/h (4 Bft)
28.12.2020 00:39 23,2 °C 3,1 °C 47 % 59 % 985,3 hPa 0,0 l/m² 13,3 km/h (3 Bft) SO 138 ° 0 min 0 W/m² -4,1 °C -2,2 °C 19,3 km/h (3 Bft)
28.12.2020 00:41 23,3 °C 3,0 °C 47 % 59 % 985,3 hPa 0,0 l/m² 14,9 km/h (3 Bft) SO 128 ° 0 min 0 W/m² -4,2 °C -3,3 °C 24,1 km/h (4 Bft)
28.12.2020 00:42 23,2 °C 3,1 °C 47 % 59 % 985,4 hPa 0,0 l/m² 14,4 km/h (3 Bft) SO 130 ° 0 min 0 W/m² -4,1 °C -2,9 °C 19,3 km/h (3 Bft)
28.12.2020 00:43 23,2 °C 3,1 °C 47 % 59 % 985,3 hPa 0,0 l/m² 17,6 km/h (3 Bft) S-SO 150 ° 0 min 0 W/m² -4,1 °C -4,6 °C 20,9 km/h (4 Bft)
28.12.2020 00:44 23,2 °C 3,1 °C 47 % 59 % 985,3 hPa 0,0 l/m² 14,5 km/h (3 Bft) SO 135 ° 0 min 0 W/m² -4,1 °C -2,9 °C 17,7 km/h (3 Bft)
28.12.2020 00:45 23,2 °C 3,0 °C 47 % 60 % 985,2 hPa 0,0 l/m² 17,7 km/h (3 Bft) SO 135 ° 0 min 0 W/m² -4,0 °C -4,7 °C 22,5 km/h (4 Bft)
28.12.2020 00:51 23,2 °C 2,9 °C 47 % 59 % 985,2 hPa 0,0 l/m² 20,1 km/h (4 Bft) SO 126 ° 0 min 0 W/m² -4,3 °C -5,9 °C 29,0 km/h (5 Bft)
28.12.2020 00:52 23,2 °C 3,0 °C 47 % 60 % 985,1 hPa 0,0 l/m² 16,7 km/h (3 Bft) SO 140 ° 0 min 0 W/m² -4,0 °C -4,2 °C 20,9 km/h (4 Bft)
28.12.2020 00:53 23,2 °C 2,9 °C 47 % 60 % 985,1 hPa 0,0 l/m² 19,6 km/h (3 Bft) SO 139 ° 0 min 0 W/m² -4,1 °C -5,7 °C 25,7 km/h (4 Bft)
28.12.2020 00:54 23,2 °C 2,9 °C 47 % 60 % 985,1 hPa 0,0 l/m² 17,5 km/h (3 Bft) SO 130 ° 0 min 0 W/m² -4,1 °C -4,8 °C 20,9 km/h (4 Bft)
28.12.2020 00:56 23,2 °C 2,9 °C 47 % 60 % 985,0 hPa 0,0 l/m² 20,7 km/h (4 Bft) O-SO 107 ° 0 min 0 W/m² -4,1 °C -6,2 °C 25,7 km/h (4 Bft)
28.12.2020 00:58 23,2 °C 2,9 °C 47 % 60 % 985,1 hPa 0,0 l/m² 20,5 km/h (4 Bft) SO 127 ° 0 min 0 W/m² -4,1 °C -6,1 °C 29,0 km/h (5 Bft)
28.12.2020 01:00 23,2 °C 2,9 °C 47 % 60 % 985,1 hPa 0,0 l/m² 16,5 km/h (3 Bft) O-SO 110 ° 0 min 0 W/m² -4,1 °C -4,3 °C 22,5 km/h (4 Bft)
28.12.2020 01:01 23,2 °C 2,9 °C 47 % 60 % 985,0 hPa 0,0 l/m² 20,9 km/h (4 Bft) O-SO 120 ° 0 min 0 W/m² -4,1 °C -6,3 °C 27,4 km/h (5 Bft)
28.12.2020 01:02 23,2 °C 2,9 °C 47 % 60 % 985,0 hPa 0,0 l/m² 19,5 km/h (3 Bft) O-SO 118 ° 0 min 0 W/m² -4,1 °C -5,7 °C 29,0 km/h (5 Bft)
28.12.2020 01:04 23,1 °C 2,9 °C 47 % 60 % 985,0 hPa 0,0 l/m² 19,3 km/h (3 Bft) SO 132 ° 0 min 0 W/m² -4,1 °C -5,6 °C 30,6 km/h (5 Bft)
28.12.2020 01:06 23,1 °C 2,9 °C 47 % 60 % 985,0 hPa 0,0 l/m² 16,2 km/h (3 Bft) SO 130 ° 0 min 0 W/m² -4,1 °C -4,1 °C 24,1 km/h (4 Bft)
28.12.2020 01:08 23,1 °C 2,9 °C 47 % 60 % 984,9 hPa 0,0 l/m² 16,8 km/h (3 Bft) O-SO 108 ° 0 min 0 W/m² -4,1 °C -4,4 °C 24,1 km/h (4 Bft)
28.12.2020 01:10 23,1 °C 2,9 °C 47 % 59 % 984,9 hPa 0,0 l/m² 19,9 km/h (4 Bft) SO 125 ° 0 min 0 W/m² -4,3 °C -5,8 °C 27,4 km/h (5 Bft)
28.12.2020 01:11 23,1 °C 2,9 °C 47 % 60 % 984,9 hPa 0,0 l/m² 18,2 km/h (3 Bft) O-SO 117 ° 0 min 0 W/m² -4,1 °C -5,1 °C 25,7 km/h (4 Bft)
28.12.2020 01:12 23,1 °C 2,9 °C 47 % 59 % 984,9 hPa 0,0 l/m² 19,5 km/h (3 Bft) O-SO 119 ° 0 min 0 W/m² -4,3 °C -5,7 °C 25,7 km/h (4 Bft)
28.12.2020 01:13 23,1 °C 2,9 °C 47 % 59 % 984,9 hPa 0,0 l/m² 17,7 km/h (3 Bft) SO 144 ° 0 min 0 W/m² -4,3 °C -4,8 °C 22,5 km/h (4 Bft)
28.12.2020 01:15 23,1 °C 2,9 °C 47 % 60 % 984,8 hPa 0,0 l/m² 13,2 km/h (3 Bft) SO 126 ° 0 min 0 W/m² -4,1 °C -2,4 °C 19,3 km/h (3 Bft)
28.12.2020 01:17 23,1 °C 2,9 °C 47 % 60 % 985,1 hPa 0,0 l/m² 13,6 km/h (3 Bft) SO 142 ° 0 min 0 W/m² -4,1 °C -2,7 °C 17,7 km/h (3 Bft)
28.12.2020 01:19 23,2 °C 2,9 °C 47 % 60 % 985,0 hPa 0,0 l/m² 13,8 km/h (3 Bft) O-SO 118 ° 0 min 0 W/m² -4,1 °C -2,8 °C 22,5 km/h (4 Bft)
28.12.2020 01:20 23,1 °C 2,9 °C 47 % 60 % 985,0 hPa 0,0 l/m² 13,3 km/h (3 Bft) O-SO 121 ° 0 min 0 W/m² -4,1 °C -2,5 °C 17,7 km/h (3 Bft)
28.12.2020 01:21 23,1 °C 2,9 °C 47 % 60 % 984,9 hPa 0,0 l/m² 16,4 km/h (3 Bft) SO 143 ° 0 min 0 W/m² -4,1 °C -4,2 °C 24,1 km/h (4 Bft)
28.12.2020 01:23 23,1 °C 2,9 °C 47 % 59 % 984,8 hPa 0,0 l/m² 17,8 km/h (3 Bft) O-SO 122 ° 0 min 0 W/m² -4,3 °C -4,9 °C 24,1 km/h (4 Bft)
28.12.2020 01:25 23,2 °C 3,0 °C 47 % 60 % 984,8 hPa 0,0 l/m² 14,1 km/h (3 Bft) SO 130 ° 0 min 0 W/m² -4,0 °C -2,8 °C 17,7 km/h (3 Bft)
28.12.2020 01:27 23,1 °C 3,0 °C 47 % 60 % 984,7 hPa 0,0 l/m² 13,5 km/h (3 Bft) SO 128 ° 0 min 0 W/m² -4,0 °C -2,5 °C 17,7 km/h (3 Bft)
28.12.2020 01:29 23,1 °C 3,0 °C 47 % 60 % 984,7 hPa 0,0 l/m² 12,5 km/h (2 Bft) SO 146 ° 0 min 0 W/m² -4,0 °C -1,9 °C 17,7 km/h (3 Bft)
28.12.2020 01:30 23,1 °C 3,0 °C 47 % 60 % 984,8 hPa 0,0 l/m² 14,1 km/h (3 Bft) SO 128 ° 0 min 0 W/m² -4,0 °C -2,8 °C 17,7 km/h (3 Bft)
28.12.2020 01:31 23,1 °C 3,0 °C 47 % 60 % 984,8 hPa 0,0 l/m² 12,4 km/h (2 Bft) SO 139 ° 0 min 0 W/m² -4,0 °C -1,8 °C 16,1 km/h (3 Bft)
28.12.2020 01:33 23,1 °C 3,0 °C 47 % 60 % 984,8 hPa 0,0 l/m² 12,4 km/h (2 Bft) O-SO 118 ° 0 min 0 W/m² -4,0 °C -1,8 °C 17,7 km/h (3 Bft)
28.12.2020 01:35 23,1 °C 3,0 °C 47 % 60 % 984,7 hPa 0,0 l/m² 12,9 km/h (3 Bft) SO 132 ° 0 min 0 W/m² -4,0 °C -2,1 °C 16,1 km/h (3 Bft)
28.12.2020 01:37 23,1 °C 2,9 °C 47 % 61 % 984,8 hPa 0,0 l/m² 11,9 km/h (2 Bft) SO 141 ° 0 min 0 W/m² -3,9 °C -1,6 °C 17,7 km/h (3 Bft)
28.12.2020 01:39 23,1 °C 2,9 °C 47 % 61 % 984,8 hPa 0,0 l/m² 13,8 km/h (3 Bft) SO 124 ° 0 min 0 W/m² -3,9 °C -2,8 °C 17,7 km/h (3 Bft)
28.12.2020 01:40 23,1 °C 2,9 °C 47 % 61 % 984,6 hPa 0,0 l/m² 11,1 km/h (2 Bft) SO 126 ° 0 min 0 W/m² -3,9 °C -1,0 °C 12,9 km/h (3 Bft)
28.12.2020 01:41 23,1 °C 2,9 °C 47 % 61 % 984,5 hPa 0,0 l/m² 14,3 km/h (3 Bft) O-SO 109 ° 0 min 0 W/m² -3,9 °C -3,1 °C 20,9 km/h (4 Bft)
28.12.2020 01:43 23,1 °C 2,9 °C 47 % 61 % 984,5 hPa 0,0 l/m² 16,8 km/h (3 Bft) SO 128 ° 0 min 0 W/m² -3,9 °C -4,4 °C 25,7 km/h (4 Bft)
28.12.2020 01:45 23,1 °C 2,9 °C 47 % 61 % 984,5 hPa 0,0 l/m² 16,3 km/h (3 Bft) SO 130 ° 0 min 0 W/m² -3,9 °C -4,2 °C 25,7 km/h (4 Bft)
28.12.2020 01:47 23,1 °C 2,9 °C 47 % 61 % 984,4 hPa 0,0 l/m² 16,9 km/h (3 Bft) O-SO 106 ° 0 min 0 W/m² -3,9 °C -4,5 °C 22,5 km/h (4 Bft)
28.12.2020 01:49 23,1 °C 2,9 °C 47 % 61 % 984,4 hPa 0,0 l/m² 18,5 km/h (3 Bft) O-SO 118 ° 0 min 0 W/m² -3,9 °C -5,2 °C 25,7 km/h (4 Bft)
28.12.2020 01:50 23,1 °C 2,9 °C 47 % 61 % 984,5 hPa 0,0 l/m² 16,6 km/h (3 Bft) SO 128 ° 0 min 0 W/m² -3,9 °C -4,3 °C 22,5 km/h (4 Bft)
28.12.2020 01:51 23,1 °C 2,9 °C 47 % 61 % 984,5 hPa 0,0 l/m² 14,6 km/h (3 Bft) S-SO 158 ° 0 min 0 W/m² -3,9 °C -3,2 °C 19,3 km/h (3 Bft)
28.12.2020 01:53 23,1 °C 2,9 °C 47 % 61 % 984,4 hPa 0,0 l/m² 17,4 km/h (3 Bft) O-SO 116 ° 0 min 0 W/m² -3,9 °C -4,7 °C 24,1 km/h (4 Bft)
28.12.2020 01:55 23,1 °C 2,9 °C 47 % 61 % 984,3 hPa 0,0 l/m² 15,6 km/h (3 Bft) SO 134 ° 0 min 0 W/m² -3,9 °C -3,8 °C 20,9 km/h (4 Bft)
28.12.2020 01:57 23,1 °C 2,9 °C 47 % 62 % 984,2 hPa 0,0 l/m² 14,9 km/h (3 Bft) SO 127 ° 0 min 0 W/m² -3,6 °C -3,4 °C 20,9 km/h (4 Bft)
28.12.2020 01:59 23,1 °C 2,9 °C 47 % 62 % 984,3 hPa 0,0 l/m² 14,5 km/h (3 Bft) O-SO 123 ° 0 min 0 W/m² -3,6 °C -3,2 °C 20,9 km/h (4 Bft)
28.12.2020 02:00 23,1 °C 2,9 °C 47 % 62 % 984,3 hPa 0,0 l/m² 17,1 km/h (3 Bft) SO 138 ° 0 min 0 W/m² -3,6 °C -4,6 °C 20,9 km/h (4 Bft)
28.12.2020 02:01 23,1 °C 2,9 °C 47 % 61 % 984,2 hPa 0,0 l/m² 16,4 km/h (3 Bft) SO 136 ° 0 min 0 W/m² -3,9 °C -4,2 °C 20,9 km/h (4 Bft)
28.12.2020 02:02 23,1 °C 2,9 °C 47 % 62 % 984,2 hPa 0,0 l/m² 16,5 km/h (3 Bft) SO 130 ° 0 min 0 W/m² -3,6 °C -4,3 °C 19,3 km/h (3 Bft)
28.12.2020 02:03 23,1 °C 2,9 °C 47 % 62 % 984,2 hPa 0,0 l/m² 17,6 km/h (3 Bft) O-SO 121 ° 0 min 0 W/m² -3,6 °C -4,8 °C 24,1 km/h (4 Bft)
28.12.2020 02:05 23,1 °C 2,9 °C 47 % 62 % 984,2 hPa 0,0 l/m² 15,1 km/h (3 Bft) O-SO 122 ° 0 min 0 W/m² -3,6 °C -3,5 °C 20,9 km/h (4 Bft)
28.12.2020 02:07 23,1 °C 2,9 °C 47 % 63 % 984,3 hPa 0,0 l/m² 15,1 km/h (3 Bft) SO 127 ° 0 min 0 W/m² -3,4 °C -3,5 °C 19,3 km/h (3 Bft)
28.12.2020 02:09 23,1 °C 2,9 °C 47 % 63 % 984,5 hPa 0,0 l/m² 11,3 km/h (2 Bft) O-SO 115 ° 0 min 0 W/m² -3,4 °C -1,2 °C 14,5 km/h (3 Bft)
28.12.2020 02:10 23,1 °C 2,9 °C 47 % 63 % 984,5 hPa 0,0 l/m² 11,5 km/h (2 Bft) SO 126 ° 0 min 0 W/m² -3,4 °C -1,3 °C 14,5 km/h (3 Bft)
28.12.2020 02:11 23,1 °C 2,8 °C 47 % 63 % 984,4 hPa 0,0 l/m² 14,5 km/h (3 Bft) O-SO 115 ° 0 min 0 W/m² -3,5 °C -3,3 °C 16,1 km/h (3 Bft)
28.12.2020 02:12 23,1 °C 2,8 °C 47 % 63 % 984,4 hPa 0,0 l/m² 13,9 km/h (3 Bft) SO 124 ° 0 min 0 W/m² -3,5 °C -3,0 °C 19,3 km/h (3 Bft)
28.12.2020 02:13 23,1 °C 2,8 °C 47 % 63 % 984,3 hPa 0,0 l/m² 13,0 km/h (3 Bft) SO 126 ° 0 min 0 W/m² -3,5 °C -2,4 °C 14,5 km/h (3 Bft)
28.12.2020 02:15 23,1 °C 2,8 °C 47 % 63 % 984,3 hPa 0,0 l/m² 12,5 km/h (2 Bft) SO 126 ° 0 min 0 W/m² -3,5 °C -2,1 °C 16,1 km/h (3 Bft)
28.12.2020 02:17 23,1 °C 2,8 °C 47 % 63 % 984,5 hPa 0,0 l/m² 7,3 km/h (2 Bft) SO 131 ° 0 min 0 W/m² -3,5 °C 1,9 °C 12,9 km/h (3 Bft)
28.12.2020 02:19 23,1 °C 2,8 °C 47 % 64 % 984,4 hPa 0,0 l/m² 10,2 km/h (2 Bft) SO 138 ° 0 min 0 W/m² -3,3 °C -0,5 °C 16,1 km/h (3 Bft)
28.12.2020 02:20 23,1 °C 2,8 °C 47 % 64 % 984,4 hPa 0,0 l/m² 9,9 km/h (2 Bft) SO 138 ° 0 min 0 W/m² -3,3 °C -0,3 °C 14,5 km/h (3 Bft)
28.12.2020 02:21 23,1 °C 2,7 °C 47 % 64 % 984,5 hPa 0,0 l/m² 11,5 km/h (2 Bft) SO 142 ° 0 min 0 W/m² -3,4 °C -1,6 °C 16,1 km/h (3 Bft)
28.12.2020 02:22 23,1 °C 2,7 °C 47 % 64 % 984,5 hPa 0,0 l/m² 10,8 km/h (2 Bft) SO 131 ° 0 min 0 W/m² -3,4 °C -1,1 °C 14,5 km/h (3 Bft)
28.12.2020 02:23 23,1 °C 2,7 °C 47 % 64 % 984,4 hPa 0,0 l/m² 10,5 km/h (2 Bft) SO 126 ° 0 min 0 W/m² -3,4 °C -0,8 °C 14,5 km/h (3 Bft)
28.12.2020 02:25 23,1 °C 2,7 °C 47 % 64 % 984,2 hPa 0,0 l/m² 12,6 km/h (3 Bft) SO 126 ° 0 min 0 W/m² -3,4 °C -2,3 °C 16,1 km/h (3 Bft)
28.12.2020 02:27 23,1 °C 2,7 °C 47 % 64 % 984,2 hPa 0,0 l/m² 12,8 km/h (3 Bft) O-SO 123 ° 0 min 0 W/m² -3,4 °C -2,4 °C 17,7 km/h (3 Bft)
28.12.2020 02:29 23,1 °C 2,7 °C 47 % 65 % 984,3 hPa 0,0 l/m² 10,3 km/h (2 Bft) O-SO 119 ° 0 min 0 W/m² -3,2 °C -0,7 °C 14,5 km/h (3 Bft)
28.12.2020 02:30 23,1 °C 2,7 °C 47 % 65 % 984,3 hPa 0,0 l/m² 12,3 km/h (2 Bft) SO 128 ° 0 min 0 W/m² -3,2 °C -2,1 °C 20,9 km/h (4 Bft)
28.12.2020 02:31 23,1 °C 2,7 °C 47 % 64 % 984,3 hPa 0,0 l/m² 10,5 km/h (2 Bft) SO 128 ° 0 min 0 W/m² -3,4 °C -0,8 °C 16,1 km/h (3 Bft)
28.12.2020 02:32 23,1 °C 2,6 °C 47 % 65 % 984,2 hPa 0,0 l/m² 10,2 km/h (2 Bft) SO 130 ° 0 min 0 W/m² -3,3 °C -0,7 °C 14,5 km/h (3 Bft)
28.12.2020 02:33 23,1 °C 2,6 °C 47 % 65 % 984,3 hPa 0,0 l/m² 9,5 km/h (2 Bft) S-SO 152 ° 0 min 0 W/m² -3,3 °C -0,2 °C 16,1 km/h (3 Bft)
28.12.2020 02:35 23,1 °C 2,6 °C 47 % 65 % 984,4 hPa 0,0 l/m² 10,4 km/h (2 Bft) SO 138 ° 0 min 0 W/m² -3,3 °C -0,9 °C 14,5 km/h (3 Bft)
28.12.2020 02:37 23,1 °C 2,6 °C 47 % 65 % 984,3 hPa 0,0 l/m² 10,0 km/h (2 Bft) S-SO 150 ° 0 min 0 W/m² -3,3 °C -0,6 °C 12,9 km/h (3 Bft)
28.12.2020 02:39 23,1 °C 2,6 °C 47 % 65 % 984,2 hPa 0,0 l/m² 12,9 km/h (3 Bft) SO 136 ° 0 min 0 W/m² -3,3 °C -2,6 °C 19,3 km/h (3 Bft)
28.12.2020 02:40 23,1 °C 2,6 °C 47 % 65 % 984,2 hPa 0,0 l/m² 15,4 km/h (3 Bft) O-SO 122 ° 0 min 0 W/m² -3,3 °C -4,1 °C 22,5 km/h (4 Bft)
28.12.2020 02:41 23,1 °C 2,6 °C 47 % 65 % 984,2 hPa 0,0 l/m² 18,0 km/h (3 Bft) SO 134 ° 0 min 0 W/m² -3,3 °C -5,4 °C 22,5 km/h (4 Bft)
28.12.2020 02:42 23,1 °C 2,6 °C 47 % 65 % 984,2 hPa 0,0 l/m² 15,7 km/h (3 Bft) SO 132 ° 0 min 0 W/m² -3,3 °C -4,2 °C 19,3 km/h (3 Bft)
28.12.2020 02:43 23,1 °C 2,6 °C 47 % 65 % 984,1 hPa 0,0 l/m² 16,5 km/h (3 Bft) S-SO 147 ° 0 min 0 W/m² -3,3 °C -4,6 °C 20,9 km/h (4 Bft)
28.12.2020 02:45 23,1 °C 2,6 °C 47 % 65 % 984,0 hPa 0,0 l/m² 14,0 km/h (3 Bft) SO 130 ° 0 min 0 W/m² -3,3 °C -3,3 °C 19,3 km/h (3 Bft)
28.12.2020 02:47 23,1 °C 2,6 °C 47 % 65 % 984,0 hPa 0,0 l/m² 14,3 km/h (3 Bft) O-SO 116 ° 0 min 0 W/m² -3,3 °C -3,4 °C 24,1 km/h (4 Bft)
28.12.2020 02:49 23,1 °C 2,7 °C 47 % 65 % 984,0 hPa 0,0 l/m² 19,5 km/h (3 Bft) SO 132 ° 0 min 0 W/m² -3,2 °C -5,9 °C 29,0 km/h (5 Bft)
28.12.2020 02:50 23,1 °C 2,7 °C 47 % 65 % 984,0 hPa 0,0 l/m² 16,2 km/h (3 Bft) SO 130 ° 0 min 0 W/m² -3,2 °C -4,4 °C 20,9 km/h (4 Bft)
28.12.2020 02:51 23,1 °C 2,7 °C 47 % 65 % 984,0 hPa 0,0 l/m² 15,5 km/h (3 Bft) O-SO 109 ° 0 min 0 W/m² -3,2 °C -4,0 °C 19,3 km/h (3 Bft)
28.12.2020 02:52 23,1 °C 2,7 °C 47 % 65 % 984,0 hPa 0,0 l/m² 18,2 km/h (3 Bft) S-SO 148 ° 0 min 0 W/m² -3,2 °C -5,3 °C 22,5 km/h (4 Bft)
28.12.2020 02:53 23,1 °C 2,7 °C 47 % 65 % 984,0 hPa 0,0 l/m² 18,2 km/h (3 Bft) SO 143 ° 0 min 0 W/m² -3,2 °C -5,3 °C 22,5 km/h (4 Bft)
28.12.2020 02:55 23,1 °C 2,8 °C 47 % 65 % 983,9 hPa 0,0 l/m² 15,8 km/h (3 Bft) SO 142 ° 0 min 0 W/m² -3,1 °C -4,0 °C 19,3 km/h (3 Bft)
28.12.2020 02:57 23,1 °C 2,8 °C 47 % 66 % 983,9 hPa 0,0 l/m² 10,3 km/h (2 Bft) SO 128 ° 0 min 0 W/m² -2,9 °C -0,6 °C 12,9 km/h (3 Bft)
28.12.2020 02:59 23,1 °C 2,8 °C 47 % 66 % 983,8 hPa 0,0 l/m² 11,7 km/h (2 Bft) SO 125 ° 0 min 0 W/m² -2,9 °C -1,6 °C 16,1 km/h (3 Bft)
28.12.2020 03:00 23,1 °C 2,8 °C 47 % 66 % 983,8 hPa 0,0 l/m² 12,9 km/h (3 Bft) O-SO 112 ° 0 min 0 W/m² -2,9 °C -2,4 °C 16,1 km/h (3 Bft)
28.12.2020 03:01 23,1 °C 2,8 °C 47 % 66 % 983,8 hPa 0,0 l/m² 12,9 km/h (3 Bft) O-SO 112 ° 0 min 0 W/m² -2,9 °C -2,4 °C 20,9 km/h (4 Bft)
28.12.2020 03:07 23,1 °C 2,8 °C 47 % 66 % 983,7 hPa 0,0 l/m² 14,8 km/h (3 Bft) SO 125 ° 0 min 0 W/m² -2,9 °C -3,5 °C 19,3 km/h (3 Bft)
28.12.2020 03:09 23,1 °C 2,8 °C 47 % 66 % 983,7 hPa 0,0 l/m² 13,0 km/h (3 Bft) SO 131 ° 0 min 0 W/m² -2,9 °C -2,4 °C 16,1 km/h (3 Bft)
28.12.2020 03:11 23,0 °C 2,8 °C 47 % 66 % 983,6 hPa 0,0 l/m² 12,1 km/h (2 Bft) O 86 ° 0 min 0 W/m² -2,9 °C -1,8 °C 16,1 km/h (3 Bft)
28.12.2020 03:13 23,1 °C 2,8 °C 47 % 67 % 983,5 hPa 0,0 l/m² 12,5 km/h (2 Bft) O 95 ° 0 min 0 W/m² -2,7 °C -2,1 °C 16,1 km/h (3 Bft)
28.12.2020 03:14 23,0 °C 2,8 °C 47 % 67 % 983,6 hPa 0,0 l/m² 7,2 km/h (2 Bft) O 99 ° 0 min 0 W/m² -2,7 °C 2,0 °C 9,7 km/h (2 Bft)
28.12.2020 03:15 23,0 °C 2,7 °C 47 % 67 % 983,6 hPa 0,0 l/m² 12,9 km/h (3 Bft) O-SO 112 ° 0 min 0 W/m² -2,8 °C -2,5 °C 16,1 km/h (3 Bft)
28.12.2020 03:16 23,1 °C 2,7 °C 47 % 67 % 983,5 hPa 0,0 l/m² 11,3 km/h (2 Bft) O-SO 112 ° 0 min 0 W/m² -2,8 °C -1,4 °C 14,5 km/h (3 Bft)
28.12.2020 03:22 23,0 °C 2,7 °C 47 % 67 % 983,6 hPa 0,0 l/m² 14,0 km/h (3 Bft) O-SO 112 ° 0 min 0 W/m² -2,8 °C -3,1 °C 16,1 km/h (3 Bft)
28.12.2020 03:24 23,0 °C 2,7 °C 47 % 67 % 983,6 hPa 0,0 l/m² 12,7 km/h (3 Bft) O-SO 103 ° 0 min 0 W/m² -2,8 °C -2,3 °C 17,7 km/h (3 Bft)
28.12.2020 03:25 23,0 °C 2,7 °C 47 % 67 % 983,6 hPa 0,0 l/m² 13,2 km/h (3 Bft) O-SO 117 ° 0 min 0 W/m² -2,8 °C -2,7 °C 17,7 km/h (3 Bft)
28.12.2020 03:27 23,0 °C 2,7 °C 47 % 67 % 983,5 hPa 0,0 l/m² 12,0 km/h (2 Bft) O-SO 113 ° 0 min 0 W/m² -2,8 °C -1,9 °C 16,1 km/h (3 Bft)
28.12.2020 03:29 23,0 °C 2,7 °C 47 % 67 % 983,5 hPa 0,0 l/m² 11,3 km/h (2 Bft) SO 126 ° 0 min 0 W/m² -2,8 °C -1,4 °C 19,3 km/h (3 Bft)
28.12.2020 03:30 23,0 °C 2,7 °C 47 % 67 % 983,4 hPa 0,0 l/m² 9,8 km/h (2 Bft) O-SO 107 ° 0 min 0 W/m² -2,8 °C -0,3 °C 14,5 km/h (3 Bft)
28.12.2020 03:31 23,0 °C 2,7 °C 47 % 67 % 983,5 hPa 0,0 l/m² 7,1 km/h (2 Bft) O-SO 113 ° 0 min 0 W/m² -2,8 °C 2,0 °C 9,7 km/h (2 Bft)
28.12.2020 03:33 23,0 °C 2,7 °C 47 % 67 % 983,5 hPa 0,0 l/m² 5,8 km/h (2 Bft) O-SO 123 ° 0 min 0 W/m² -2,8 °C 2,7 °C 8,0 km/h (2 Bft)
28.12.2020 03:35 23,0 °C 2,7 °C 47 % 67 % 983,6 hPa 0,0 l/m² 11,4 km/h (2 Bft) SO 134 ° 0 min 0 W/m² -2,8 °C -1,5 °C 19,3 km/h (3 Bft)
28.12.2020 03:37 23,0 °C 2,7 °C 47 % 67 % 983,6 hPa 0,0 l/m² 14,5 km/h (3 Bft) SO 138 ° 0 min 0 W/m² -2,8 °C -3,4 °C 20,9 km/h (4 Bft)
28.12.2020 03:39 23,0 °C 2,7 °C 47 % 67 % 983,6 hPa 0,0 l/m² 13,9 km/h (3 Bft) SO 128 ° 0 min 0 W/m² -2,8 °C -3,1 °C 22,5 km/h (4 Bft)
28.12.2020 03:40 23,0 °C 2,7 °C 47 % 67 % 983,5 hPa 0,0 l/m² 13,0 km/h (3 Bft) SO 140 ° 0 min 0 W/m² -2,8 °C -2,5 °C 19,3 km/h (3 Bft)
28.12.2020 03:41 23,0 °C 2,7 °C 47 % 67 % 983,5 hPa 0,0 l/m² 11,6 km/h (2 Bft) SO 126 ° 0 min 0 W/m² -2,8 °C -1,6 °C 16,1 km/h (3 Bft)
28.12.2020 03:42 23,0 °C 2,6 °C 47 % 67 % 983,6 hPa 0,0 l/m² 10,2 km/h (2 Bft) SO 136 ° 0 min 0 W/m² -2,9 °C -0,7 °C 14,5 km/h (3 Bft)
28.12.2020 03:43 23,0 °C 2,7 °C 47 % 67 % 983,5 hPa 0,0 l/m² 9,4 km/h (2 Bft) O-SO 115 ° 0 min 0 W/m² -2,8 °C 0,0 °C 12,9 km/h (3 Bft)
28.12.2020 03:45 22,9 °C 2,6 °C 47 % 68 % 983,5 hPa 0,0 l/m² 10,2 km/h (2 Bft) SO 146 ° 0 min 0 W/m² -2,7 °C -0,7 °C 14,5 km/h (3 Bft)
28.12.2020 03:47 23,0 °C 2,6 °C 47 % 68 % 983,5 hPa 0,0 l/m² 8,9 km/h (2 Bft) SO 125 ° 0 min 0 W/m² -2,7 °C 0,3 °C 12,9 km/h (3 Bft)
28.12.2020 03:48 23,0 °C 2,6 °C 47 % 68 % 983,5 hPa 0,0 l/m² 12,6 km/h (3 Bft) SO 136 ° 0 min 0 W/m² -2,7 °C -2,4 °C 16,1 km/h (3 Bft)
28.12.2020 03:50 22,9 °C 2,6 °C 47 % 68 % 983,5 hPa 0,0 l/m² 12,4 km/h (2 Bft) S-SO 147 ° 0 min 0 W/m² -2,7 °C -2,3 °C 20,9 km/h (4 Bft)
28.12.2020 03:51 23,0 °C 2,6 °C 47 % 68 % 983,4 hPa 0,0 l/m² 16,5 km/h (3 Bft) SO 137 ° 0 min 0 W/m² -2,7 °C -4,6 °C 20,9 km/h (4 Bft)
28.12.2020 03:52 23,0 °C 2,6 °C 47 % 68 % 983,5 hPa 0,0 l/m² 14,4 km/h (3 Bft) SO 128 ° 0 min 0 W/m² -2,7 °C -3,5 °C 20,9 km/h (4 Bft)
28.12.2020 03:53 22,9 °C 2,6 °C 47 % 68 % 983,5 hPa 0,0 l/m² 16,2 km/h (3 Bft) SO 136 ° 0 min 0 W/m² -2,7 °C -4,5 °C 19,3 km/h (3 Bft)
28.12.2020 03:55 22,9 °C 2,6 °C 47 % 68 % 983,4 hPa 0,0 l/m² 14,7 km/h (3 Bft) S-SO 150 ° 0 min 0 W/m² -2,7 °C -3,7 °C 19,3 km/h (3 Bft)
28.12.2020 03:57 22,9 °C 2,6 °C 47 % 68 % 983,4 hPa 0,0 l/m² 16,2 km/h (3 Bft) SO 137 ° 0 min 0 W/m² -2,7 °C -4,5 °C 24,1 km/h (4 Bft)
28.12.2020 03:59 22,9 °C 2,6 °C 47 % 68 % 983,4 hPa 0,0 l/m² 15,5 km/h (3 Bft) SO 135 ° 0 min 0 W/m² -2,7 °C -4,1 °C 19,3 km/h (3 Bft)
28.12.2020 04:00 22,9 °C 2,6 °C 47 % 68 % 983,4 hPa 0,0 l/m² 13,2 km/h (3 Bft) O-SO 122 ° 0 min 0 W/m² -2,7 °C -2,8 °C 17,7 km/h (3 Bft)
28.12.2020 04:01 22,9 °C 2,6 °C 47 % 68 % 983,4 hPa 0,0 l/m² 12,8 km/h (3 Bft) SO 132 ° 0 min 0 W/m² -2,7 °C -2,5 °C 17,7 km/h (3 Bft)
28.12.2020 04:03 22,9 °C 2,6 °C 47 % 68 % 983,4 hPa 0,0 l/m² 13,5 km/h (3 Bft) SO 137 ° 0 min 0 W/m² -2,7 °C -3,0 °C 19,3 km/h (3 Bft)
28.12.2020 04:05 22,9 °C 2,6 °C 47 % 68 % 983,3 hPa 0,0 l/m² 13,7 km/h (3 Bft) S-SO 147 ° 0 min 0 W/m² -2,7 °C -3,1 °C 16,1 km/h (3 Bft)
28.12.2020 04:07 22,9 °C 2,6 °C 47 % 68 % 983,4 hPa 0,0 l/m² 14,8 km/h (3 Bft) S-SO 158 ° 0 min 0 W/m² -2,7 °C -3,7 °C 24,1 km/h (4 Bft)
28.12.2020 04:09 22,9 °C 2,6 °C 47 % 69 % 983,4 hPa 0,0 l/m² 15,0 km/h (3 Bft) S-SO 148 ° 0 min 0 W/m² -2,5 °C -3,8 °C 20,9 km/h (4 Bft)
28.12.2020 04:10 22,9 °C 2,6 °C 47 % 69 % 983,5 hPa 0,0 l/m² 16,3 km/h (3 Bft) SO 126 ° 0 min 0 W/m² -2,5 °C -4,5 °C 22,5 km/h (4 Bft)
28.12.2020 04:11 22,9 °C 2,6 °C 47 % 69 % 983,5 hPa 0,0 l/m² 13,6 km/h (3 Bft) SO 133 ° 0 min 0 W/m² -2,5 °C -3,0 °C 17,7 km/h (3 Bft)
28.12.2020 04:12 22,9 °C 2,6 °C 47 % 69 % 983,4 hPa 0,0 l/m² 16,7 km/h (3 Bft) SO 132 ° 0 min 0 W/m² -2,5 °C -4,7 °C 22,5 km/h (4 Bft)
28.12.2020 04:13 22,9 °C 2,6 °C 47 % 69 % 983,4 hPa 0,0 l/m² 20,9 km/h (4 Bft) SO 138 ° 0 min 0 W/m² -2,5 °C -6,7 °C 27,4 km/h (5 Bft)
28.12.2020 04:15 22,9 °C 2,6 °C 47 % 69 % 983,3 hPa 0,0 l/m² 18,8 km/h (3 Bft) SO 142 ° 0 min 0 W/m² -2,5 °C -5,7 °C 24,1 km/h (4 Bft)
28.12.2020 04:17 22,9 °C 2,6 °C 47 % 69 % 983,3 hPa 0,0 l/m² 16,9 km/h (3 Bft) SO 133 ° 0 min 0 W/m² -2,5 °C -4,8 °C 20,9 km/h (4 Bft)
28.12.2020 04:19 22,9 °C 2,6 °C 47 % 70 % 983,2 hPa 0,0 l/m² 16,1 km/h (3 Bft) SO 136 ° 0 min 0 W/m² -2,3 °C -4,4 °C 22,5 km/h (4 Bft)
28.12.2020 04:20 22,9 °C 2,6 °C 47 % 70 % 983,2 hPa 0,0 l/m² 16,8 km/h (3 Bft) S-SO 162 ° 0 min 0 W/m² -2,3 °C -4,8 °C 22,5 km/h (4 Bft)
28.12.2020 04:21 22,9 °C 2,6 °C 47 % 70 % 983,2 hPa 0,0 l/m² 18,5 km/h (3 Bft) SO 143 ° 0 min 0 W/m² -2,3 °C -5,6 °C 25,7 km/h (4 Bft)
28.12.2020 04:22 22,9 °C 2,6 °C 47 % 70 % 983,3 hPa 0,0 l/m² 18,7 km/h (3 Bft) S-SO 168 ° 0 min 0 W/m² -2,3 °C -5,7 °C 24,1 km/h (4 Bft)
28.12.2020 04:23 22,9 °C 2,6 °C 47 % 70 % 983,2 hPa 0,0 l/m² 16,7 km/h (3 Bft) S-SO 160 ° 0 min 0 W/m² -2,3 °C -4,7 °C 22,5 km/h (4 Bft)
28.12.2020 04:25 22,9 °C 2,6 °C 47 % 71 % 983,1 hPa 0,0 l/m² 10,3 km/h (2 Bft) SO 126 ° 0 min 0 W/m² -2,1 °C -0,8 °C 14,5 km/h (3 Bft)
28.12.2020 04:27 22,9 °C 2,6 °C 47 % 71 % 983,1 hPa 0,0 l/m² 15,9 km/h (3 Bft) SO 135 ° 0 min 0 W/m² -2,1 °C -4,3 °C 27,4 km/h (5 Bft)
28.12.2020 04:29 22,9 °C 2,5 °C 47 % 70 % 983,1 hPa 0,0 l/m² 17,1 km/h (3 Bft) SO 140 ° 0 min 0 W/m² -2,4 °C -5,1 °C 22,5 km/h (4 Bft)
28.12.2020 04:30 22,9 °C 2,6 °C 47 % 71 % 983,1 hPa 0,0 l/m² 18,1 km/h (3 Bft) S-SO 149 ° 0 min 0 W/m² -2,1 °C -5,4 °C 22,5 km/h (4 Bft)
28.12.2020 04:31 22,9 °C 2,6 °C 47 % 70 % 983,1 hPa 0,0 l/m² 13,2 km/h (3 Bft) SO 141 ° 0 min 0 W/m² -2,3 °C -2,8 °C 16,1 km/h (3 Bft)
28.12.2020 04:32 22,9 °C 2,5 °C 47 % 71 % 983,1 hPa 0,0 l/m² 9,9 km/h (2 Bft) SO 124 ° 0 min 0 W/m² -2,2 °C -0,6 °C 14,5 km/h (3 Bft)
28.12.2020 04:33 22,9 °C 2,6 °C 47 % 71 % 983,1 hPa 0,0 l/m² 14,1 km/h (3 Bft) S-SO 149 ° 0 min 0 W/m² -2,1 °C -3,3 °C 19,3 km/h (3 Bft)
28.12.2020 04:35 22,8 °C 2,5 °C 47 % 72 % 982,9 hPa 0,0 l/m² 12,4 km/h (2 Bft) SO 140 ° 0 min 0 W/m² -2,0 °C -2,4 °C 19,3 km/h (3 Bft)
28.12.2020 04:37 22,9 °C 2,5 °C 47 % 72 % 982,8 hPa 0,0 l/m² 12,0 km/h (2 Bft) SO 142 ° 0 min 0 W/m² -2,0 °C -2,1 °C 19,3 km/h (3 Bft)
28.12.2020 04:39 22,9 °C 2,5 °C 47 % 72 % 982,8 hPa 0,0 l/m² 12,8 km/h (3 Bft) SO 133 ° 0 min 0 W/m² -2,0 °C -2,6 °C 19,3 km/h (3 Bft)
28.12.2020 04:40 22,9 °C 2,5 °C 47 % 72 % 982,8 hPa 0,0 l/m² 17,7 km/h (3 Bft) SO 146 ° 0 min 0 W/m² -2,0 °C -5,4 °C 24,1 km/h (4 Bft)
28.12.2020 04:41 22,9 °C 2,5 °C 47 % 72 % 982,8 hPa 0,0 l/m² 15,7 km/h (3 Bft) SO 139 ° 0 min 0 W/m² -2,0 °C -4,3 °C 17,7 km/h (3 Bft)
28.12.2020 04:42 22,8 °C 2,5 °C 47 % 72 % 982,8 hPa 0,0 l/m² 14,1 km/h (3 Bft) SO 128 ° 0 min 0 W/m² -2,0 °C -3,4 °C 17,7 km/h (3 Bft)
28.12.2020 04:43 22,8 °C 2,5 °C 47 % 72 % 982,8 hPa 0,0 l/m² 12,5 km/h (2 Bft) SO 141 ° 0 min 0 W/m² -2,0 °C -2,5 °C 17,7 km/h (3 Bft)
28.12.2020 04:45 22,8 °C 2,5 °C 47 % 72 % 982,7 hPa 0,0 l/m² 16,1 km/h (3 Bft) SO 141 ° 0 min 0 W/m² -2,0 °C -4,5 °C 24,1 km/h (4 Bft)
28.12.2020 04:47 22,8 °C 2,5 °C 47 % 72 % 982,7 hPa 0,0 l/m² 19,1 km/h (3 Bft) S-SO 154 ° 0 min 0 W/m² -2,0 °C -6,0 °C 32,2 km/h (5 Bft)
28.12.2020 04:49 22,8 °C 2,5 °C 47 % 72 % 982,7 hPa 0,0 l/m² 17,8 km/h (3 Bft) SO 144 ° 0 min 0 W/m² -2,0 °C -5,4 °C 29,0 km/h (5 Bft)
28.12.2020 04:50 22,8 °C 2,5 °C 47 % 72 % 982,8 hPa 0,0 l/m² 12,9 km/h (3 Bft) SO 133 ° 0 min 0 W/m² -2,0 °C -2,7 °C 17,7 km/h (3 Bft)
28.12.2020 04:51 22,8 °C 2,6 °C 47 % 72 % 982,8 hPa 0,0 l/m² 12,0 km/h (2 Bft) S-SO 161 ° 0 min 0 W/m² -1,9 °C -2,0 °C 17,7 km/h (3 Bft)
28.12.2020 04:52 22,8 °C 2,5 °C 47 % 72 % 982,7 hPa 0,0 l/m² 11,0 km/h (2 Bft) SO 142 ° 0 min 0 W/m² -2,0 °C -1,4 °C 16,1 km/h (3 Bft)
28.12.2020 04:53 22,8 °C 2,6 °C 47 % 72 % 982,7 hPa 0,0 l/m² 19,6 km/h (3 Bft) S-SO 156 ° 0 min 0 W/m² -1,9 °C -6,1 °C 24,1 km/h (4 Bft)
28.12.2020 04:55 22,8 °C 2,6 °C 47 % 72 % 982,7 hPa 0,0 l/m² 15,9 km/h (3 Bft) S-SO 153 ° 0 min 0 W/m² -1,9 °C -4,3 °C 22,5 km/h (4 Bft)
28.12.2020 04:57 22,8 °C 2,6 °C 47 % 72 % 982,8 hPa 0,0 l/m² 13,1 km/h (3 Bft) S-SO 164 ° 0 min 0 W/m² -1,9 °C -2,7 °C 19,3 km/h (3 Bft)
28.12.2020 04:59 22,8 °C 2,6 °C 47 % 72 % 982,8 hPa 0,0 l/m² 13,5 km/h (3 Bft) SO 136 ° 0 min 0 W/m² -1,9 °C -3,0 °C 20,9 km/h (4 Bft)
28.12.2020 05:00 22,8 °C 2,6 °C 47 % 72 % 982,8 hPa 0,0 l/m² 9,5 km/h (2 Bft) SO 126 ° 0 min 0 W/m² -1,9 °C -0,2 °C 16,1 km/h (3 Bft)
28.12.2020 05:01 22,8 °C 2,6 °C 47 % 72 % 982,7 hPa 0,0 l/m² 14,0 km/h (3 Bft) SO 133 ° 0 min 0 W/m² -1,9 °C -3,3 °C 17,7 km/h (3 Bft)
28.12.2020 05:02 22,8 °C 2,6 °C 47 % 71 % 982,8 hPa 0,0 l/m² 16,8 km/h (3 Bft) SO 142 ° 0 min 0 W/m² -2,1 °C -4,8 °C 20,9 km/h (4 Bft)
28.12.2020 05:03 22,8 °C 2,6 °C 47 % 71 % 982,7 hPa 0,0 l/m² 15,4 km/h (3 Bft) SO 136 ° 0 min 0 W/m² -2,1 °C -4,1 °C 22,5 km/h (4 Bft)
28.12.2020 05:05 22,8 °C 2,6 °C 47 % 71 % 982,7 hPa 0,0 l/m² 13,6 km/h (3 Bft) SO 144 ° 0 min 0 W/m² -2,1 °C -3,0 °C 17,7 km/h (3 Bft)
28.12.2020 05:07 22,8 °C 2,7 °C 47 % 71 % 982,7 hPa 0,0 l/m² 14,6 km/h (3 Bft) S-SO 149 ° 0 min 0 W/m² -2,0 °C -3,5 °C 19,3 km/h (3 Bft)
28.12.2020 05:09 22,8 °C 2,7 °C 47 % 71 % 982,7 hPa 0,0 l/m² 10,7 km/h (2 Bft) SO 128 ° 0 min 0 W/m² -2,0 °C -1,0 °C 19,3 km/h (3 Bft)
28.12.2020 05:10 22,8 °C 2,7 °C 47 % 71 % 982,6 hPa 0,0 l/m² 14,7 km/h (3 Bft) S-SO 155 ° 0 min 0 W/m² -2,0 °C -3,5 °C 20,9 km/h (4 Bft)
28.12.2020 05:11 22,8 °C 2,7 °C 47 % 71 % 982,6 hPa 0,0 l/m² 15,0 km/h (3 Bft) SO 139 ° 0 min 0 W/m² -2,0 °C -3,7 °C 20,9 km/h (4 Bft)
28.12.2020 05:12 22,8 °C 2,7 °C 47 % 71 % 982,6 hPa 0,0 l/m² 11,9 km/h (2 Bft) SO 130 ° 0 min 0 W/m² -2,0 °C -1,8 °C 20,9 km/h (4 Bft)
28.12.2020 05:13 22,8 °C 2,7 °C 47 % 71 % 982,6 hPa 0,0 l/m² 13,9 km/h (3 Bft) S-SO 149 ° 0 min 0 W/m² -2,0 °C -3,1 °C 16,1 km/h (3 Bft)
28.12.2020 05:15 22,8 °C 2,7 °C 47 % 71 % 982,6 hPa 0,0 l/m² 16,5 km/h (3 Bft) S-SO 158 ° 0 min 0 W/m² -2,0 °C -4,5 °C 24,1 km/h (4 Bft)
28.12.2020 05:17 22,8 °C 2,7 °C 47 % 71 % 982,6 hPa 0,0 l/m² 18,5 km/h (3 Bft) SO 138 ° 0 min 0 W/m² -2,0 °C -5,5 °C 25,7 km/h (4 Bft)
28.12.2020 05:19 22,8 °C 2,7 °C 47 % 70 % 982,5 hPa 0,0 l/m² 14,9 km/h (3 Bft) S-SO 147 ° 0 min 0 W/m² -2,2 °C -3,7 °C 20,9 km/h (4 Bft)
28.12.2020 05:20 22,8 °C 2,7 °C 47 % 71 % 982,6 hPa 0,0 l/m² 11,6 km/h (2 Bft) SO 127 ° 0 min 0 W/m² -2,0 °C -1,6 °C 17,7 km/h (3 Bft)
28.12.2020 05:21 22,8 °C 2,7 °C 47 % 71 % 982,5 hPa 0,0 l/m² 12,0 km/h (2 Bft) S-SO 150 ° 0 min 0 W/m² -2,0 °C -1,9 °C 22,5 km/h (4 Bft)
28.12.2020 05:22 22,8 °C 2,7 °C 47 % 71 % 982,5 hPa 0,0 l/m² 22,3 km/h (4 Bft) SO 143 ° 0 min 0 W/m² -2,0 °C -7,1 °C 25,7 km/h (4 Bft)
28.12.2020 05:23 22,8 °C 2,7 °C 47 % 71 % 982,7 hPa 0,0 l/m² 17,9 km/h (3 Bft) SO 144 ° 0 min 0 W/m² -2,0 °C -5,2 °C 25,7 km/h (4 Bft)
28.12.2020 05:25 22,8 °C 2,7 °C 47 % 71 % 982,5 hPa 0,0 l/m² 19,5 km/h (3 Bft) S-SO 163 ° 0 min 0 W/m² -2,0 °C -5,9 °C 24,1 km/h (4 Bft)
28.12.2020 05:27 22,8 °C 2,7 °C 47 % 71 % 982,6 hPa 0,0 l/m² 14,4 km/h (3 Bft) SO 132 ° 0 min 0 W/m² -2,0 °C -3,4 °C 20,9 km/h (4 Bft)
28.12.2020 05:29 22,7 °C 2,7 °C 47 % 71 % 982,5 hPa 0,0 l/m² 18,5 km/h (3 Bft) SO 130 ° 0 min 0 W/m² -2,0 °C -5,5 °C 25,7 km/h (4 Bft)
28.12.2020 05:30 22,8 °C 2,7 °C 47 % 70 % 982,5 hPa 0,0 l/m² 15,2 km/h (3 Bft) SO 142 ° 0 min 0 W/m² -2,2 °C -3,8 °C 22,5 km/h (4 Bft)
28.12.2020 05:31 22,8 °C 2,7 °C 47 % 71 % 982,6 hPa 0,0 l/m² 10,9 km/h (2 Bft) S-SO 156 ° 0 min 0 W/m² -2,0 °C -1,1 °C 14,5 km/h (3 Bft)
28.12.2020 05:32 22,8 °C 2,7 °C 47 % 71 % 982,6 hPa 0,0 l/m² 11,3 km/h (2 Bft) S-SO 150 ° 0 min 0 W/m² -2,0 °C -1,4 °C 17,7 km/h (3 Bft)
28.12.2020 05:33 22,8 °C 2,7 °C 47 % 71 % 982,6 hPa 0,0 l/m² 15,7 km/h (3 Bft) S-SO 152 ° 0 min 0 W/m² -2,0 °C -4,1 °C 20,9 km/h (4 Bft)
28.12.2020 05:35 22,7 °C 2,7 °C 47 % 71 % 982,7 hPa 0,0 l/m² 11,3 km/h (2 Bft) S-SO 156 ° 0 min 0 W/m² -2,0 °C -1,4 °C 17,7 km/h (3 Bft)
28.12.2020 05:37 22,8 °C 2,7 °C 47 % 71 % 982,7 hPa 0,0 l/m² 16,8 km/h (3 Bft) SO 146 ° 0 min 0 W/m² -2,0 °C -4,7 °C 25,7 km/h (4 Bft)
28.12.2020 05:39 22,7 °C 2,7 °C 47 % 71 % 982,6 hPa 0,0 l/m² 13,4 km/h (3 Bft) SO 126 ° 0 min 0 W/m² -2,0 °C -2,8 °C 20,9 km/h (4 Bft)
28.12.2020 05:40 22,8 °C 2,7 °C 47 % 71 % 982,6 hPa 0,0 l/m² 13,5 km/h (3 Bft) S-SO 161 ° 0 min 0 W/m² -2,0 °C -2,8 °C 16,1 km/h (3 Bft)
28.12.2020 05:41 22,8 °C 2,6 °C 47 % 71 % 982,7 hPa 0,0 l/m² 13,3 km/h (3 Bft) S-SO 150 ° 0 min 0 W/m² -2,1 °C -2,8 °C 16,1 km/h (3 Bft)
28.12.2020 05:42 22,8 °C 2,7 °C 47 % 71 % 982,6 hPa 0,0 l/m² 19,0 km/h (3 Bft) S-SO 148 ° 0 min 0 W/m² -2,0 °C -5,7 °C 24,1 km/h (4 Bft)
28.12.2020 05:43 22,8 °C 2,7 °C 47 % 71 % 982,5 hPa 0,0 l/m² 16,5 km/h (3 Bft) S 178 ° 0 min 0 W/m² -2,0 °C -4,5 °C 20,9 km/h (4 Bft)
28.12.2020 05:45 22,7 °C 2,6 °C 47 % 71 % 982,6 hPa 0,0 l/m² 13,1 km/h (3 Bft) SO 144 ° 0 min 0 W/m² -2,1 °C -2,7 °C 17,7 km/h (3 Bft)
28.12.2020 05:47 22,8 °C 2,6 °C 47 % 71 % 982,5 hPa 0,0 l/m² 8,7 km/h (2 Bft) O-SO 120 ° 0 min 0 W/m² -2,1 °C 0,5 °C 12,9 km/h (3 Bft)
28.12.2020 05:49 22,8 °C 2,6 °C 47 % 71 % 982,4 hPa 0,0 l/m² 10,3 km/h (2 Bft) O-SO 104 ° 0 min 0 W/m² -2,1 °C -0,8 °C 14,5 km/h (3 Bft)
28.12.2020 05:50 22,7 °C 2,6 °C 47 % 71 % 982,3 hPa 0,0 l/m² 8,8 km/h (2 Bft) O-SO 115 ° 0 min 0 W/m² -2,1 °C 0,4 °C 16,1 km/h (3 Bft)
28.12.2020 05:51 22,8 °C 2,6 °C 47 % 71 % 982,3 hPa 0,0 l/m² 13,9 km/h (3 Bft) SO 134 ° 0 min 0 W/m² -2,1 °C -3,2 °C 19,3 km/h (3 Bft)
28.12.2020 05:52 22,7 °C 2,6 °C 47 % 71 % 982,3 hPa 0,0 l/m² 13,1 km/h (3 Bft) SO 140 ° 0 min 0 W/m² -2,1 °C -2,7 °C 16,1 km/h (3 Bft)
28.12.2020 05:53 22,7 °C 2,5 °C 47 % 71 % 982,3 hPa 0,0 l/m² 9,3 km/h (2 Bft) O-SO 105 ° 0 min 0 W/m² -2,2 °C -0,1 °C 12,9 km/h (3 Bft)
28.12.2020 05:55 22,8 °C 2,4 °C 47 % 71 % 982,4 hPa 0,0 l/m² 13,3 km/h (3 Bft) SO 129 ° 0 min 0 W/m² -2,3 °C -3,1 °C 17,7 km/h (3 Bft)
28.12.2020 05:57 22,8 °C 2,4 °C 47 % 71 % 982,5 hPa 0,0 l/m² 13,2 km/h (3 Bft) O-SO 123 ° 0 min 0 W/m² -2,3 °C -3,0 °C 16,1 km/h (3 Bft)
28.12.2020 05:59 22,7 °C 2,4 °C 47 % 71 % 982,5 hPa 0,0 l/m² 10,6 km/h (2 Bft) SO 141 ° 0 min 0 W/m² -2,3 °C -1,3 °C 14,5 km/h (3 Bft)
28.12.2020 06:00 22,8 °C 2,3 °C 47 % 71 % 982,4 hPa 0,0 l/m² 11,1 km/h (2 Bft) SO 125 ° 0 min 0 W/m² -2,4 °C -1,7 °C 14,5 km/h (3 Bft)
28.12.2020 06:01 22,8 °C 2,3 °C 47 % 71 % 982,4 hPa 0,0 l/m² 8,4 km/h (2 Bft) O-SO 119 ° 0 min 0 W/m² -2,4 °C 0,4 °C 12,9 km/h (3 Bft)
28.12.2020 06:02 22,7 °C 2,3 °C 47 % 71 % 982,3 hPa 0,0 l/m² 9,8 km/h (2 Bft) SO 130 ° 0 min 0 W/m² -2,4 °C -0,8 °C 12,9 km/h (3 Bft)
28.12.2020 06:03 22,8 °C 2,3 °C 47 % 71 % 982,4 hPa 0,0 l/m² 9,9 km/h (2 Bft) O-SO 113 ° 0 min 0 W/m² -2,4 °C -0,8 °C 14,5 km/h (3 Bft)
28.12.2020 06:05 22,8 °C 2,2 °C 47 % 72 % 982,4 hPa 0,0 l/m² 11,6 km/h (2 Bft) SO 134 ° 0 min 0 W/m² -2,3 °C -2,2 °C 19,3 km/h (3 Bft)
28.12.2020 06:07 22,8 °C 2,2 °C 47 % 72 % 982,4 hPa 0,0 l/m² 11,5 km/h (2 Bft) O-SO 120 ° 0 min 0 W/m² -2,3 °C -2,1 °C 16,1 km/h (3 Bft)
28.12.2020 06:09 22,7 °C 2,2 °C 47 % 72 % 982,4 hPa 0,0 l/m² 10,8 km/h (2 Bft) O-SO 121 ° 0 min 0 W/m² -2,3 °C -1,6 °C 16,1 km/h (3 Bft)
28.12.2020 06:10 22,8 °C 2,2 °C 47 % 72 % 982,3 hPa 0,0 l/m² 7,3 km/h (2 Bft) O 86 ° 0 min 0 W/m² -2,3 °C 1,3 °C 11,3 km/h (2 Bft)
28.12.2020 06:11 22,8 °C 2,2 °C 47 % 72 % 982,3 hPa 0,0 l/m² 8,4 km/h (2 Bft) SO 132 ° 0 min 0 W/m² -2,3 °C 0,3 °C 11,3 km/h (2 Bft)
28.12.2020 06:12 22,7 °C 2,1 °C 47 % 72 % 982,3 hPa 0,0 l/m² 12,5 km/h (2 Bft) O-SO 117 ° 0 min 0 W/m² -2,4 °C -2,9 °C 16,1 km/h (3 Bft)
28.12.2020 06:13 22,8 °C 2,1 °C 47 % 72 % 982,4 hPa 0,0 l/m² 12,7 km/h (3 Bft) SO 132 ° 0 min 0 W/m² -2,4 °C -3,0 °C 16,1 km/h (3 Bft)
28.12.2020 06:15 22,8 °C 2,1 °C 47 % 72 % 982,3 hPa 0,0 l/m² 11,5 km/h (2 Bft) O-SO 103 ° 0 min 0 W/m² -2,4 °C -2,2 °C 17,7 km/h (3 Bft)
28.12.2020 06:17 22,7 °C 2,1 °C 47 % 72 % 982,3 hPa 0,0 l/m² 9,0 km/h (2 Bft) O-SO 115 ° 0 min 0 W/m² -2,4 °C -0,3 °C 14,5 km/h (3 Bft)
28.12.2020 06:19 22,8 °C 2,1 °C 47 % 72 % 982,3 hPa 0,0 l/m² 10,4 km/h (2 Bft) O 82 ° 0 min 0 W/m² -2,4 °C -1,4 °C 14,5 km/h (3 Bft)
28.12.2020 06:20 22,7 °C 2,1 °C 47 % 72 % 982,3 hPa 0,0 l/m² 5,7 km/h (2 Bft) O 86 ° 0 min 0 W/m² -2,4 °C 2,1 °C 6,4 km/h (2 Bft)
28.12.2020 06:21 22,7 °C 2,1 °C 47 % 72 % 982,3 hPa 0,0 l/m² 6,0 km/h (2 Bft) O-SO 109 ° 0 min 0 W/m² -2,4 °C 2,1 °C 8,0 km/h (2 Bft)
28.12.2020 06:22 22,7 °C 2,1 °C 47 % 72 % 982,4 hPa 0,0 l/m² 6,7 km/h (2 Bft) SO 132 ° 0 min 0 W/m² -2,4 °C 1,8 °C 12,9 km/h (3 Bft)
28.12.2020 06:23 22,7 °C 2,1 °C 47 % 72 % 982,3 hPa 0,0 l/m² 8,4 km/h (2 Bft) SO 124 ° 0 min 0 W/m² -2,4 °C 0,2 °C 12,9 km/h (3 Bft)
28.12.2020 06:25 22,7 °C 2,1 °C 47 % 72 % 982,3 hPa 0,0 l/m² 4,7 km/h (1 Bft) O-NO 69 ° 0 min 0 W/m² -2,4 °C 2,1 °C 8,0 km/h (2 Bft)
28.12.2020 06:27 22,8 °C 2,1 °C 47 % 72 % 982,2 hPa 0,0 l/m² 5,1 km/h (1 Bft) O 81 ° 0 min 0 W/m² -2,4 °C 2,1 °C 8,0 km/h (2 Bft)
28.12.2020 06:29 22,8 °C 2,1 °C 47 % 72 % 982,3 hPa 0,0 l/m² 8,2 km/h (2 Bft) O 96 ° 0 min 0 W/m² -2,4 °C 0,4 °C 12,9 km/h (3 Bft)
28.12.2020 06:30 22,8 °C 2,0 °C 47 % 72 % 982,3 hPa 0,0 l/m² 7,9 km/h (2 Bft) O 93 ° 0 min 0 W/m² -2,5 °C 0,5 °C 11,3 km/h (2 Bft)
28.12.2020 06:31 22,8 °C 2,0 °C 47 % 73 % 982,3 hPa 0,0 l/m² 8,0 km/h (2 Bft) O 90 ° 0 min 0 W/m² -2,3 °C 0,5 °C 11,3 km/h (2 Bft)
28.12.2020 06:32 22,8 °C 2,0 °C 47 % 73 % 982,3 hPa 0,0 l/m² 5,7 km/h (2 Bft) O 87 ° 0 min 0 W/m² -2,3 °C 2,0 °C 6,4 km/h (2 Bft)
28.12.2020 06:33 22,8 °C 1,9 °C 47 % 73 % 982,4 hPa 0,0 l/m² 5,4 km/h (2 Bft) O 95 ° 0 min 0 W/m² -2,4 °C 1,9 °C 9,7 km/h (2 Bft)
28.12.2020 06:35 22,8 °C 1,9 °C 47 % 73 % 982,3 hPa 0,0 l/m² 5,2 km/h (1 Bft) O-NO 76 ° 0 min 0 W/m² -2,4 °C 1,9 °C 11,3 km/h (2 Bft)
28.12.2020 06:37 22,8 °C 1,9 °C 47 % 73 % 982,4 hPa 0,0 l/m² 7,6 km/h (2 Bft) O-NO 75 ° 0 min 0 W/m² -2,4 °C 0,7 °C 12,9 km/h (3 Bft)
28.12.2020 06:39 22,8 °C 1,8 °C 47 % 73 % 982,4 hPa 0,0 l/m² 5,3 km/h (1 Bft) O 83 ° 0 min 0 W/m² -2,5 °C 1,8 °C 8,0 km/h (2 Bft)
28.12.2020 06:40 22,8 °C 1,9 °C 47 % 73 % 982,4 hPa 0,0 l/m² 5,4 km/h (2 Bft) O-NO 77 ° 0 min 0 W/m² -2,4 °C 1,9 °C 8,0 km/h (2 Bft)
28.12.2020 06:41 22,8 °C 1,8 °C 47 % 73 % 982,4 hPa 0,0 l/m² 4,4 km/h (1 Bft) O-NO 77 ° 0 min 0 W/m² -2,5 °C 1,8 °C 6,4 km/h (2 Bft)
28.12.2020 06:42 22,7 °C 1,8 °C 47 % 73 % 982,4 hPa 0,0 l/m² 4,2 km/h (1 Bft) O-NO 77 ° 0 min 0 W/m² -2,5 °C 1,8 °C 4,8 km/h (1 Bft)
28.12.2020 06:43 22,8 °C 1,8 °C 47 % 73 % 982,4 hPa 0,0 l/m² 4,4 km/h (1 Bft) O 80 ° 0 min 0 W/m² -2,5 °C 1,8 °C 6,4 km/h (2 Bft)
28.12.2020 06:45 22,8 °C 1,8 °C 47 % 73 % 982,4 hPa 0,0 l/m² 4,8 km/h (1 Bft) O-NO 74 ° 0 min 0 W/m² -2,5 °C 1,8 °C 6,4 km/h (2 Bft)
28.12.2020 06:47 22,8 °C 1,8 °C 47 % 74 % 982,4 hPa 0,0 l/m² 6,5 km/h (2 Bft) O-NO 78 ° 0 min 0 W/m² -2,3 °C 1,7 °C 8,0 km/h (2 Bft)
28.12.2020 06:48 22,8 °C 1,7 °C 47 % 74 % 982,4 hPa 0,0 l/m² 8,5 km/h (2 Bft) O 82 ° 0 min 0 W/m² -2,4 °C -0,3 °C 11,3 km/h (2 Bft)
28.12.2020 06:50 22,8 °C 1,7 °C 47 % 74 % 982,4 hPa 0,0 l/m² 7,9 km/h (2 Bft) O-NO 70 ° 0 min 0 W/m² -2,4 °C 0,2 °C 11,3 km/h (2 Bft)
28.12.2020 06:51 22,8 °C 1,7 °C 47 % 74 % 982,4 hPa 0,0 l/m² 6,9 km/h (2 Bft) O 85 ° 0 min 0 W/m² -2,4 °C 1,2 °C 12,9 km/h (3 Bft)
28.12.2020 06:52 22,8 °C 1,6 °C 47 % 74 % 982,3 hPa 0,0 l/m² 9,1 km/h (2 Bft) O 86 ° 0 min 0 W/m² -2,5 °C -0,9 °C 11,3 km/h (2 Bft)
28.12.2020 06:54 22,8 °C 1,6 °C 47 % 75 % 982,2 hPa 0,0 l/m² 9,0 km/h (2 Bft) O 80 ° 0 min 0 W/m² -2,3 °C -0,9 °C 12,9 km/h (3 Bft)
28.12.2020 06:56 22,8 °C 1,6 °C 47 % 75 % 982,0 hPa 0,0 l/m² 8,2 km/h (2 Bft) O 82 ° 0 min 0 W/m² -2,3 °C -0,2 °C 12,9 km/h (3 Bft)
28.12.2020 06:58 22,8 °C 1,5 °C 47 % 75 % 982,0 hPa 0,0 l/m² 9,0 km/h (2 Bft) O 83 ° 0 min 0 W/m² -2,4 °C -1,0 °C 12,9 km/h (3 Bft)
28.12.2020 07:00 22,8 °C 1,5 °C 47 % 75 % 982,1 hPa 0,0 l/m² 8,5 km/h (2 Bft) O 95 ° 0 min 0 W/m² -2,4 °C -0,5 °C 11,3 km/h (2 Bft)
28.12.2020 07:01 22,8 °C 1,4 °C 47 % 75 % 982,1 hPa 0,0 l/m² 7,7 km/h (2 Bft) O 92 ° 0 min 0 W/m² -2,5 °C 0,1 °C 11,3 km/h (2 Bft)
28.12.2020 07:02 22,8 °C 1,4 °C 47 % 75 % 982,2 hPa 0,0 l/m² 6,9 km/h (2 Bft) O 89 ° 0 min 0 W/m² -2,5 °C 0,9 °C 11,3 km/h (2 Bft)
28.12.2020 07:03 22,8 °C 1,4 °C 47 % 75 % 982,1 hPa 0,0 l/m² 8,0 km/h (2 Bft) O 88 ° 0 min 0 W/m² -2,5 °C -0,2 °C 11,3 km/h (2 Bft)
28.12.2020 07:04 22,8 °C 1,4 °C 47 % 76 % 982,1 hPa 0,0 l/m² 8,4 km/h (2 Bft) O 90 ° 0 min 0 W/m² -2,4 °C -0,5 °C 11,3 km/h (2 Bft)
28.12.2020 07:06 22,8 °C 1,3 °C 47 % 76 % 982,1 hPa 0,0 l/m² 9,9 km/h (2 Bft) O 82 ° 0 min 0 W/m² -2,5 °C -1,9 °C 12,9 km/h (3 Bft)
28.12.2020 07:08 22,8 °C 1,3 °C 47 % 76 % 982,0 hPa 0,0 l/m² 11,0 km/h (2 Bft) O 87 ° 0 min 0 W/m² -2,5 °C -2,8 °C 14,5 km/h (3 Bft)
28.12.2020 07:10 22,8 °C 1,2 °C 47 % 76 % 981,9 hPa 0,0 l/m² 11,3 km/h (2 Bft) O 88 ° 0 min 0 W/m² -2,5 °C -3,1 °C 14,5 km/h (3 Bft)
28.12.2020 07:11 22,8 °C 1,2 °C 47 % 76 % 981,9 hPa 0,0 l/m² 9,8 km/h (2 Bft) O 84 ° 0 min 0 W/m² -2,5 °C -2,0 °C 12,9 km/h (3 Bft)
28.12.2020 07:12 22,7 °C 1,2 °C 47 % 76 % 981,9 hPa 0,0 l/m² 7,7 km/h (2 Bft) O 82 ° 0 min 0 W/m² -2,5 °C -0,1 °C 11,3 km/h (2 Bft)
28.12.2020 07:14 22,8 °C 1,2 °C 47 % 76 % 981,8 hPa 0,0 l/m² 9,5 km/h (2 Bft) O 85 ° 0 min 0 W/m² -2,5 °C -1,7 °C 12,9 km/h (3 Bft)
28.12.2020 07:16 22,8 °C 1,2 °C 47 % 77 % 981,9 hPa 0,0 l/m² 7,6 km/h (2 Bft) O 86 ° 0 min 0 W/m² -2,4 °C -0,0 °C 12,9 km/h (3 Bft)
28.12.2020 07:18 22,8 °C 1,2 °C 47 % 77 % 981,9 hPa 0,0 l/m² 7,6 km/h (2 Bft) O 86 ° 0 min 0 W/m² -2,4 °C -0,0 °C 12,9 km/h (3 Bft)
28.12.2020 07:20 22,8 °C 1,1 °C 47 % 77 % 981,9 hPa 0,0 l/m² 8,1 km/h (2 Bft) O 89 ° 0 min 0 W/m² -2,5 °C -0,6 °C 12,9 km/h (3 Bft)
28.12.2020 07:21 22,8 °C 1,1 °C 47 % 77 % 981,9 hPa 0,0 l/m² 8,5 km/h (2 Bft) O 95 ° 0 min 0 W/m² -2,5 °C -1,0 °C 12,9 km/h (3 Bft)
28.12.2020 07:22 22,8 °C 1,1 °C 47 % 77 % 981,9 hPa 0,0 l/m² 6,8 km/h (2 Bft) O 88 ° 0 min 0 W/m² -2,5 °C 0,7 °C 9,7 km/h (2 Bft)
28.12.2020 07:24 22,8 °C 1,1 °C 47 % 77 % 982,1 hPa 0,0 l/m² 6,0 km/h (2 Bft) O 94 ° 0 min 0 W/m² -2,5 °C 1,1 °C 9,7 km/h (2 Bft)
28.12.2020 07:26 22,8 °C 1,1 °C 47 % 77 % 982,2 hPa 0,0 l/m² 7,4 km/h (2 Bft) O 89 ° 0 min 0 W/m² -2,5 °C 0,1 °C 12,9 km/h (3 Bft)
28.12.2020 07:28 22,7 °C 1,0 °C 47 % 77 % 982,3 hPa 0,0 l/m² 6,1 km/h (2 Bft) O 97 ° 0 min 0 W/m² -2,6 °C 1,0 °C 9,7 km/h (2 Bft)
28.12.2020 07:30 22,8 °C 0,9 °C 47 % 78 % 982,3 hPa 0,0 l/m² 9,2 km/h (2 Bft) O 96 ° 0 min 0 W/m² -2,5 °C -1,8 °C 12,9 km/h (3 Bft)
28.12.2020 07:31 22,8 °C 0,9 °C 47 % 78 % 982,4 hPa 0,0 l/m² 10,2 km/h (2 Bft) O 100 ° 0 min 0 W/m² -2,5 °C -2,6 °C 12,9 km/h (3 Bft)
28.12.2020 07:32 22,8 °C 0,8 °C 47 % 78 % 982,4 hPa 0,0 l/m² 11,3 km/h (2 Bft) O 97 ° 0 min 0 W/m² -2,6 °C -3,6 °C 12,9 km/h (3 Bft)
28.12.2020 07:33 22,8 °C 0,8 °C 47 % 79 % 982,3 hPa 0,0 l/m² 11,5 km/h (2 Bft) O 101 ° 0 min 0 W/m² -2,4 °C -3,7 °C 14,5 km/h (3 Bft)
28.12.2020 07:34 22,8 °C 0,8 °C 47 % 79 % 982,4 hPa 0,0 l/m² 10,7 km/h (2 Bft) O 96 ° 0 min 0 W/m² -2,4 °C -3,1 °C 12,9 km/h (3 Bft)
28.12.2020 07:36 22,8 °C 0,8 °C 47 % 79 % 982,4 hPa 0,0 l/m² 11,9 km/h (2 Bft) O 96 ° 0 min 0 W/m² -2,4 °C -4,0 °C 14,5 km/h (3 Bft)
28.12.2020 07:38 22,8 °C 0,8 °C 47 % 79 % 982,5 hPa 0,0 l/m² 10,8 km/h (2 Bft) O 97 ° 0 min 0 W/m² -2,4 °C -3,2 °C 12,9 km/h (3 Bft)
28.12.2020 07:40 22,7 °C 0,7 °C 47 % 80 % 982,4 hPa 0,0 l/m² 10,5 km/h (2 Bft) O 92 ° 0 min 0 W/m² -2,3 °C -3,1 °C 14,5 km/h (3 Bft)
28.12.2020 07:41 22,8 °C 0,7 °C 47 % 80 % 982,5 hPa 0,0 l/m² 9,7 km/h (2 Bft) O 101 ° 0 min 0 W/m² -2,3 °C -2,4 °C 11,3 km/h (2 Bft)
28.12.2020 07:42 22,8 °C 0,7 °C 47 % 80 % 982,5 hPa 0,0 l/m² 8,4 km/h (2 Bft) O 93 ° 0 min 0 W/m² -2,3 °C -1,3 °C 12,9 km/h (3 Bft)
28.12.2020 07:43 22,7 °C 0,7 °C 47 % 80 % 982,6 hPa 0,0 l/m² 9,7 km/h (2 Bft) O 98 ° 0 min 0 W/m² -2,3 °C -2,4 °C 12,9 km/h (3 Bft)
28.12.2020 07:44 22,7 °C 0,7 °C 47 % 79 % 982,6 hPa 0,0 l/m² 6,2 km/h (2 Bft) O 96 ° 0 min 0 W/m² -2,5 °C 0,7 °C 9,7 km/h (2 Bft)
28.12.2020 07:46 22,7 °C 0,7 °C 47 % 79 % 982,7 hPa 0,0 l/m² 8,0 km/h (2 Bft) O 91 ° 0 min 0 W/m² -2,5 °C -0,9 °C 11,3 km/h (2 Bft)
28.12.2020 07:48 22,7 °C 0,7 °C 47 % 79 % 982,8 hPa 0,0 l/m² 7,6 km/h (2 Bft) O 101 ° 0 min 0 W/m² -2,5 °C -0,5 °C 12,9 km/h (3 Bft)
28.12.2020 07:50 22,7 °C 0,7 °C 47 % 79 % 982,8 hPa 0,0 l/m² 5,6 km/h (2 Bft) O 88 ° 0 min 0 W/m² -2,5 °C 0,7 °C 8,0 km/h (2 Bft)
28.12.2020 07:51 22,7 °C 0,7 °C 47 % 79 % 982,7 hPa 0,0 l/m² 6,7 km/h (2 Bft) O 88 ° 0 min 0 W/m² -2,5 °C 0,4 °C 8,0 km/h (2 Bft)
28.12.2020 07:52 22,7 °C 0,7 °C 47 % 79 % 982,7 hPa 0,0 l/m² 6,3 km/h (2 Bft) O 94 ° 0 min 0 W/m² -2,5 °C 0,7 °C 9,7 km/h (2 Bft)
28.12.2020 07:53 22,7 °C 0,7 °C 47 % 79 % 982,7 hPa 0,0 l/m² 8,0 km/h (2 Bft) O 92 ° 0 min 0 W/m² -2,5 °C -0,9 °C 9,7 km/h (2 Bft)
28.12.2020 07:55 22,7 °C 0,7 °C 47 % 79 % 982,7 hPa 0,0 l/m² 8,8 km/h (2 Bft) O 91 ° 0 min 0 W/m² -2,5 °C -1,7 °C 11,3 km/h (2 Bft)
28.12.2020 07:57 22,8 °C 0,7 °C 47 % 79 % 982,6 hPa 0,0 l/m² 9,8 km/h (2 Bft) O 89 ° 0 min 0 W/m² -2,5 °C -2,5 °C 12,9 km/h (3 Bft)
28.12.2020 07:59 22,7 °C 0,7 °C 47 % 79 % 982,6 hPa 0,0 l/m² 8,9 km/h (2 Bft) O 99 ° 0 min 0 W/m² -2,5 °C -1,7 °C 11,3 km/h (2 Bft)
28.12.2020 08:00 22,7 °C 0,7 °C 47 % 79 % 982,7 hPa 0,0 l/m² 9,7 km/h (2 Bft) O 99 ° 0 min 0 W/m² -2,5 °C -2,4 °C 12,9 km/h (3 Bft)
28.12.2020 08:01 22,7 °C 0,7 °C 47 % 79 % 982,7 hPa 0,0 l/m² 10,3 km/h (2 Bft) O-SO 105 ° 0 min 0 W/m² -2,5 °C -2,9 °C 12,9 km/h (3 Bft)
28.12.2020 08:02 22,8 °C 0,7 °C 47 % 80 % 982,6 hPa 0,0 l/m² 10,1 km/h (2 Bft) O 98 ° 0 min 0 W/m² -2,3 °C -2,8 °C 12,9 km/h (3 Bft)
28.12.2020 08:03 22,7 °C 0,7 °C 47 % 80 % 982,6 hPa 0,0 l/m² 10,6 km/h (2 Bft) O 95 ° 0 min 0 W/m² -2,3 °C -3,2 °C 12,9 km/h (3 Bft)
28.12.2020 08:05 22,7 °C 0,6 °C 47 % 80 % 982,6 hPa 0,0 l/m² 10,2 km/h (2 Bft) O 94 ° 0 min 0 W/m² -2,4 °C -2,9 °C 11,3 km/h (2 Bft)
28.12.2020 08:07 22,7 °C 0,6 °C 47 % 80 % 982,5 hPa 0,0 l/m² 10,1 km/h (2 Bft) O 83 ° 0 min 0 W/m² -2,4 °C -2,9 °C 12,9 km/h (3 Bft)
28.12.2020 08:09 22,7 °C 0,6 °C 47 % 80 % 982,5 hPa 0,0 l/m² 10,7 km/h (2 Bft) O 90 ° 0 min 0 W/m² -2,4 °C -3,3 °C 12,9 km/h (3 Bft)
28.12.2020 08:10 22,7 °C 0,6 °C 47 % 80 % 982,6 hPa 0,0 l/m² 10,5 km/h (2 Bft) O 88 ° 0 min 0 W/m² -2,4 °C -3,2 °C 12,9 km/h (3 Bft)
28.12.2020 08:11 22,7 °C 0,6 °C 47 % 80 % 982,6 hPa 0,0 l/m² 8,1 km/h (2 Bft) O 84 ° 0 min 0 W/m² -2,4 °C -1,1 °C 11,3 km/h (2 Bft)
28.12.2020 08:12 22,7 °C 0,6 °C 47 % 80 % 982,6 hPa 0,0 l/m² 7,8 km/h (2 Bft) O 79 ° 0 min 0 W/m² -2,4 °C -0,8 °C 11,3 km/h (2 Bft)
28.12.2020 08:13 22,7 °C 0,6 °C 47 % 80 % 982,5 hPa 0,0 l/m² 7,8 km/h (2 Bft) O 82 ° 0 min 0 W/m² -2,4 °C -0,8 °C 12,9 km/h (3 Bft)
28.12.2020 08:15 22,7 °C 0,6 °C 47 % 80 % 982,5 hPa 0,0 l/m² 8,2 km/h (2 Bft) O 82 ° 0 min 0 W/m² -2,4 °C -1,2 °C 11,3 km/h (2 Bft)
28.12.2020 08:17 22,7 °C 0,6 °C 47 % 80 % 982,6 hPa 0,0 l/m² 7,9 km/h (2 Bft) O 82 ° 0 min 0 W/m² -2,4 °C -0,9 °C 11,3 km/h (2 Bft)
28.12.2020 08:19 22,8 °C 0,6 °C 47 % 80 % 982,6 hPa 0,0 l/m² 7,4 km/h (2 Bft) O-NO 76 ° 0 min 0 W/m² -2,4 °C -0,4 °C 11,3 km/h (2 Bft)
28.12.2020 08:20 22,7 °C 0,6 °C 47 % 80 % 982,5 hPa 0,0 l/m² 6,3 km/h (2 Bft) O-NO 68 ° 0 min 0 W/m² -2,4 °C 0,6 °C 9,7 km/h (2 Bft)
28.12.2020 08:21 22,7 °C 0,6 °C 47 % 80 % 982,5 hPa 0,0 l/m² 7,3 km/h (2 Bft) O-NO 71 ° 0 min 0 W/m² -2,4 °C -0,3 °C 11,3 km/h (2 Bft)
28.12.2020 08:22 22,7 °C 0,6 °C 47 % 80 % 982,4 hPa 0,0 l/m² 7,4 km/h (2 Bft) O-NO 63 ° 0 min 0 W/m² -2,4 °C -0,4 °C 12,9 km/h (3 Bft)
28.12.2020 08:23 22,8 °C 0,6 °C 47 % 80 % 982,4 hPa 0,0 l/m² 6,9 km/h (2 Bft) O-NO 65 ° 0 min 0 W/m² -2,4 °C 0,1 °C 9,7 km/h (2 Bft)
28.12.2020 08:25 22,7 °C 0,6 °C 47 % 80 % 982,5 hPa 0,0 l/m² 7,2 km/h (2 Bft) O-NO 62 ° 0 min 0 W/m² -2,4 °C -0,2 °C 11,3 km/h (2 Bft)
28.12.2020 08:27 22,7 °C 0,6 °C 47 % 80 % 982,5 hPa 0,0 l/m² 7,6 km/h (2 Bft) O-NO 63 ° 0 min 0 W/m² -2,4 °C -0,6 °C 12,9 km/h (3 Bft)
28.12.2020 08:29 22,7 °C 0,6 °C 47 % 80 % 982,6 hPa 0,0 l/m² 7,5 km/h (2 Bft) O-NO 63 ° 0 min 5 W/m² -2,4 °C -0,5 °C 14,5 km/h (3 Bft)
28.12.2020 08:30 22,8 °C 0,6 °C 47 % 80 % 982,5 hPa 0,0 l/m² 6,4 km/h (2 Bft) O-NO 58 ° 0 min 5 W/m² -2,4 °C 0,6 °C 9,7 km/h (2 Bft)
28.12.2020 08:31 22,7 °C 0,6 °C 47 % 80 % 982,5 hPa 0,0 l/m² 6,3 km/h (2 Bft) NO 56 ° 0 min 5 W/m² -2,4 °C 0,6 °C 9,7 km/h (2 Bft)
28.12.2020 08:32 22,8 °C 0,7 °C 47 % 80 % 982,5 hPa 0,0 l/m² 6,6 km/h (2 Bft) O-NO 70 ° 0 min 7 W/m² -2,3 °C 0,5 °C 8,0 km/h (2 Bft)
28.12.2020 08:33 22,8 °C 0,6 °C 47 % 80 % 982,5 hPa 0,0 l/m² 6,0 km/h (2 Bft) O-NO 68 ° 0 min 7 W/m² -2,4 °C 0,6 °C 8,0 km/h (2 Bft)
28.12.2020 08:35 22,7 °C 0,7 °C 47 % 80 % 982,5 hPa 0,0 l/m² 6,7 km/h (2 Bft) O-NO 75 ° 0 min 7 W/m² -2,3 °C 0,4 °C 9,7 km/h (2 Bft)
28.12.2020 08:37 22,7 °C 0,7 °C 47 % 80 % 982,5 hPa 0,0 l/m² 6,5 km/h (2 Bft) O 80 ° 0 min 11 W/m² -2,3 °C 0,6 °C 11,3 km/h (2 Bft)
28.12.2020 08:39 22,8 °C 0,7 °C 47 % 80 % 982,6 hPa 0,0 l/m² 7,4 km/h (2 Bft) O 86 ° 0 min 11 W/m² -2,3 °C -0,3 °C 11,3 km/h (2 Bft)
28.12.2020 08:40 22,8 °C 0,7 °C 47 % 80 % 982,6 hPa 0,0 l/m² 7,4 km/h (2 Bft) O 87 ° 0 min 12 W/m² -2,3 °C -0,3 °C 11,3 km/h (2 Bft)
28.12.2020 08:41 22,8 °C 0,7 °C 47 % 80 % 982,6 hPa 0,0 l/m² 9,0 km/h (2 Bft) O 87 ° 0 min 12 W/m² -2,3 °C -1,8 °C 11,3 km/h (2 Bft)
28.12.2020 08:42 22,7 °C 0,6 °C 47 % 80 % 982,6 hPa 0,0 l/m² 11,3 km/h (2 Bft) O 87 ° 0 min 14 W/m² -2,4 °C -3,8 °C 12,9 km/h (3 Bft)
28.12.2020 08:43 22,7 °C 0,6 °C 47 % 80 % 982,6 hPa 0,0 l/m² 12,0 km/h (2 Bft) O 80 ° 0 min 14 W/m² -2,4 °C -4,3 °C 14,5 km/h (3 Bft)
28.12.2020 08:45 22,7 °C 0,6 °C 47 % 80 % 982,6 hPa 0,0 l/m² 9,8 km/h (2 Bft) O 79 ° 0 min 16 W/m² -2,4 °C -2,6 °C 14,5 km/h (3 Bft)
28.12.2020 08:47 22,8 °C 0,6 °C 47 % 80 % 982,7 hPa 0,0 l/m² 7,3 km/h (2 Bft) O 90 ° 0 min 18 W/m² -2,4 °C -0,3 °C 12,9 km/h (3 Bft)
28.12.2020 08:49 22,8 °C 0,5 °C 47 % 80 % 982,8 hPa 0,0 l/m² 9,5 km/h (2 Bft) O-NO 76 ° 0 min 19 W/m² -2,5 °C -2,5 °C 14,5 km/h (3 Bft)
28.12.2020 08:50 22,8 °C 0,5 °C 47 % 80 % 982,8 hPa 0,0 l/m² 7,7 km/h (2 Bft) O-NO 76 ° 0 min 19 W/m² -2,5 °C -0,8 °C 11,3 km/h (2 Bft)
28.12.2020 08:51 22,8 °C 0,5 °C 47 % 80 % 982,8 hPa 0,0 l/m² 7,5 km/h (2 Bft) O-NO 78 ° 0 min 19 W/m² -2,5 °C -0,6 °C 12,9 km/h (3 Bft)
28.12.2020 08:53 22,8 °C 0,5 °C 47 % 80 % 982,8 hPa 0,0 l/m² 6,2 km/h (2 Bft) O-NO 70 ° 0 min 23 W/m² -2,5 °C 0,5 °C 8,0 km/h (2 Bft)
28.12.2020 08:55 22,8 °C 0,5 °C 47 % 80 % 982,7 hPa 0,0 l/m² 6,5 km/h (2 Bft) O-NO 57 ° 0 min 23 W/m² -2,5 °C 0,4 °C 9,7 km/h (2 Bft)
28.12.2020 08:57 22,8 °C 0,4 °C 47 % 80 % 982,8 hPa 0,0 l/m² 5,3 km/h (1 Bft) O-NO 58 ° 0 min 25 W/m² -2,6 °C 0,4 °C 8,0 km/h (2 Bft)
28.12.2020 08:59 22,8 °C 0,5 °C 47 % 80 % 982,8 hPa 0,0 l/m² 3,3 km/h (1 Bft) O-NO 57 ° 0 min 26 W/m² -2,5 °C 0,5 °C 6,4 km/h (2 Bft)
28.12.2020 09:00 22,8 °C 0,4 °C 47 % 80 % 982,8 hPa 0,0 l/m² 4,6 km/h (1 Bft) O-NO 69 ° 0 min 26 W/m² -2,6 °C 0,4 °C 6,4 km/h (2 Bft)
28.12.2020 09:01 22,8 °C 0,5 °C 47 % 80 % 982,8 hPa 0,0 l/m² 4,2 km/h (1 Bft) O-NO 69 ° 0 min 28 W/m² -2,5 °C 0,5 °C 6,4 km/h (2 Bft)
28.12.2020 09:03 22,8 °C 0,5 °C 47 % 80 % 982,9 hPa 0,0 l/m² 5,5 km/h (2 Bft) O-NO 76 ° 0 min 30 W/m² -2,5 °C 0,5 °C 9,7 km/h (2 Bft)
28.12.2020 09:05 22,8 °C 0,4 °C 47 % 80 % 982,9 hPa 0,0 l/m² 5,8 km/h (2 Bft) O-NO 61 ° 0 min 32 W/m² -2,6 °C 0,4 °C 9,7 km/h (2 Bft)
28.12.2020 09:07 22,8 °C 0,4 °C 46 % 80 % 982,8 hPa 0,0 l/m² 5,4 km/h (2 Bft) O-NO 69 ° 0 min 33 W/m² -2,6 °C 0,4 °C 9,7 km/h (2 Bft)
28.12.2020 09:09 22,8 °C 0,4 °C 46 % 81 % 982,9 hPa 0,0 l/m² 5,4 km/h (2 Bft) O-NO 68 ° 0 min 37 W/m² -2,5 °C 0,4 °C 8,0 km/h (2 Bft)
28.12.2020 09:10 22,8 °C 0,5 °C 46 % 81 % 982,8 hPa 0,0 l/m² 6,9 km/h (2 Bft) O-NO 63 ° 0 min 39 W/m² -2,4 °C -0,0 °C 8,0 km/h (2 Bft)
28.12.2020 09:11 22,8 °C 0,5 °C 46 % 81 % 982,8 hPa 0,0 l/m² 10,2 km/h (2 Bft) O-NO 72 ° 0 min 39 W/m² -2,4 °C -3,1 °C 12,9 km/h (3 Bft)
28.12.2020 09:12 22,8 °C 0,5 °C 46 % 81 % 982,8 hPa 0,0 l/m² 8,6 km/h (2 Bft) O-NO 63 ° 0 min 40 W/m² -2,4 °C -1,7 °C 12,9 km/h (3 Bft)
28.12.2020 09:13 22,8 °C 0,5 °C 46 % 81 % 982,8 hPa 0,0 l/m² 7,9 km/h (2 Bft) O-NO 66 ° 0 min 42 W/m² -2,4 °C -1,0 °C 12,9 km/h (3 Bft)
28.12.2020 09:15 22,8 °C 0,5 °C 46 % 81 % 982,8 hPa 0,0 l/m² 6,3 km/h (2 Bft) O-NO 65 ° 0 min 44 W/m² -2,4 °C 0,5 °C 9,7 km/h (2 Bft)
28.12.2020 09:17 22,8 °C 0,5 °C 46 % 81 % 982,8 hPa 0,0 l/m² 6,3 km/h (2 Bft) O-NO 57 ° 0 min 47 W/m² -2,4 °C 0,5 °C 8,0 km/h (2 Bft)
28.12.2020 09:19 22,8 °C 0,6 °C 46 % 81 % 982,8 hPa 0,0 l/m² 7,8 km/h (2 Bft) O 80 ° 0 min 49 W/m² -2,3 °C -0,8 °C 12,9 km/h (3 Bft)
28.12.2020 09:20 22,9 °C 0,6 °C 46 % 81 % 982,9 hPa 0,0 l/m² 7,5 km/h (2 Bft) O-NO 74 ° 0 min 49 W/m² -2,3 °C -0,5 °C 11,3 km/h (2 Bft)
28.12.2020 09:21 22,8 °C 0,6 °C 46 % 81 % 982,9 hPa 0,0 l/m² 6,1 km/h (2 Bft) O-NO 65 ° 0 min 51 W/m² -2,3 °C 0,6 °C 8,0 km/h (2 Bft)
28.12.2020 09:23 22,9 °C 0,6 °C 46 % 81 % 983,0 hPa 0,0 l/m² 7,3 km/h (2 Bft) O-NO 77 ° 2 min 54 W/m² -2,3 °C -0,3 °C 11,3 km/h (2 Bft)
28.12.2020 09:25 22,9 °C 0,6 °C 46 % 81 % 983,1 hPa 0,0 l/m² 5,4 km/h (2 Bft) O-NO 74 ° 2 min 54 W/m² -2,3 °C 0,6 °C 8,0 km/h (2 Bft)
28.12.2020 09:27 22,9 °C 0,7 °C 46 % 81 % 983,0 hPa 0,0 l/m² 4,8 km/h (1 Bft) O-NO 69 ° 2 min 56 W/m² -2,2 °C 0,7 °C 8,0 km/h (2 Bft)
28.12.2020 09:29 22,9 °C 0,7 °C 46 % 81 % 983,0 hPa 0,0 l/m² 7,1 km/h (2 Bft) O 87 ° 2 min 56 W/m² -2,2 °C -0,0 °C 11,3 km/h (2 Bft)
28.12.2020 09:30 22,9 °C 0,7 °C 46 % 81 % 983,2 hPa 0,0 l/m² 6,7 km/h (2 Bft) O-NO 63 ° 1 min 58 W/m² -2,2 °C 0,4 °C 9,7 km/h (2 Bft)
28.12.2020 09:31 22,9 °C 0,8 °C 46 % 81 % 983,2 hPa 0,0 l/m² 7,6 km/h (2 Bft) O-NO 72 ° 1 min 58 W/m² -2,1 °C -0,4 °C 11,3 km/h (2 Bft)
28.12.2020 09:32 22,9 °C 0,8 °C 46 % 81 % 983,1 hPa 0,0 l/m² 5,9 km/h (2 Bft) O-NO 64 ° 1 min 58 W/m² -2,1 °C 0,8 °C 8,0 km/h (2 Bft)
28.12.2020 09:33 22,9 °C 0,8 °C 45 % 81 % 983,1 hPa 0,0 l/m² 5,1 km/h (1 Bft) O-NO 72 ° 1 min 58 W/m² -2,1 °C 0,8 °C 6,4 km/h (2 Bft)
28.12.2020 09:35 22,9 °C 0,8 °C 45 % 81 % 983,2 hPa 0,0 l/m² 5,5 km/h (2 Bft) O-NO 69 ° 2 min 60 W/m² -2,1 °C 0,8 °C 8,0 km/h (2 Bft)
28.12.2020 09:37 22,9 °C 0,8 °C 45 % 81 % 983,2 hPa 0,0 l/m² 5,3 km/h (1 Bft) O-NO 77 ° 2 min 60 W/m² -2,1 °C 0,8 °C 8,0 km/h (2 Bft)
28.12.2020 09:39 22,9 °C 0,9 °C 45 % 81 % 983,1 hPa 0,0 l/m² 4,7 km/h (1 Bft) O-NO 72 ° 2 min 62 W/m² -2,0 °C 0,9 °C 8,0 km/h (2 Bft)
28.12.2020 09:40 22,9 °C 0,9 °C 45 % 81 % 983,1 hPa 0,0 l/m² 6,6 km/h (2 Bft) O-NO 63 ° 1 min 62 W/m² -2,0 °C 0,7 °C 9,7 km/h (2 Bft)
28.12.2020 09:41 22,9 °C 0,9 °C 45 % 81 % 983,1 hPa 0,0 l/m² 6,0 km/h (2 Bft) O-NO 63 ° 1 min 62 W/m² -2,0 °C 0,9 °C 8,0 km/h (2 Bft)
28.12.2020 09:43 22,9 °C 0,9 °C 45 % 81 % 983,2 hPa 0,0 l/m² 4,3 km/h (1 Bft) O-NO 63 ° 2 min 63 W/m² -2,0 °C 0,9 °C 6,4 km/h (2 Bft)
28.12.2020 09:44 22,9 °C 0,9 °C 45 % 81 % 983,2 hPa 0,0 l/m² 3,2 km/h (1 Bft) O-NO 63 ° 1 min 63 W/m² -2,0 °C 0,9 °C 4,8 km/h (1 Bft)
28.12.2020 09:45 22,9 °C 0,9 °C 45 % 81 % 983,2 hPa 0,0 l/m² 2,1 km/h (1 Bft) O-NO 63 ° 1 min 63 W/m² -2,0 °C 0,9 °C 4,8 km/h (1 Bft)
28.12.2020 09:46 22,9 °C 0,9 °C 45 % 81 % 983,2 hPa 0,0 l/m² 2,4 km/h (1 Bft) O-NO 63 ° 1 min 63 W/m² -2,0 °C 0,9 °C 3,2 km/h (1 Bft)
28.12.2020 09:48 22,9 °C 1,0 °C 45 % 81 % 983,2 hPa 0,0 l/m² 2,7 km/h (1 Bft) O-NO 63 ° 2 min 65 W/m² -1,9 °C 1,0 °C 4,8 km/h (1 Bft)
28.12.2020 09:50 23,0 °C 1,0 °C 45 % 81 % 983,2 hPa 0,0 l/m² 3,0 km/h (1 Bft) O-NO 63 ° 2 min 67 W/m² -1,9 °C 1,0 °C 4,8 km/h (1 Bft)
28.12.2020 09:51 22,9 °C 1,1 °C 45 % 81 % 983,0 hPa 0,0 l/m² 2,4 km/h (1 Bft) O-NO 63 ° 1 min 67 W/m² -1,8 °C 1,1 °C 3,2 km/h (1 Bft)
28.12.2020 09:52 22,9 °C 1,1 °C 45 % 80 % 983,0 hPa 0,0 l/m² 3,7 km/h (1 Bft) O-NO 63 ° 1 min 67 W/m² -2,0 °C 1,1 °C 6,4 km/h (2 Bft)
28.12.2020 09:53 22,9 °C 1,1 °C 45 % 80 % 983,1 hPa 0,0 l/m² 3,1 km/h (1 Bft) O-NO 63 ° 1 min 69 W/m² -2,0 °C 1,1 °C 4,8 km/h (1 Bft)
28.12.2020 09:55 22,9 °C 1,1 °C 45 % 80 % 983,1 hPa 0,0 l/m² 2,1 km/h (1 Bft) O-NO 63 ° 2 min 69 W/m² -2,0 °C 1,1 °C 4,8 km/h (1 Bft)
28.12.2020 09:57 22,9 °C 1,1 °C 45 % 81 % 983,0 hPa 0,0 l/m² 3,4 km/h (1 Bft) O-NO 61 ° 2 min 70 W/m² -1,8 °C 1,1 °C 6,4 km/h (2 Bft)
28.12.2020 09:59 22,9 °C 1,2 °C 45 % 81 % 982,9 hPa 0,0 l/m² 3,7 km/h (1 Bft) O-NO 59 ° 2 min 70 W/m² -1,7 °C 1,2 °C 6,4 km/h (2 Bft)
28.12.2020 10:00 22,9 °C 1,2 °C 45 % 81 % 982,9 hPa 0,0 l/m² 3,8 km/h (1 Bft) O-NO 58 ° 1 min 70 W/m² -1,7 °C 1,2 °C 6,4 km/h (2 Bft)
28.12.2020 10:01 22,9 °C 1,2 °C 45 % 80 % 982,9 hPa 0,0 l/m² 3,9 km/h (1 Bft) O-NO 58 ° 1 min 70 W/m² -1,9 °C 1,2 °C 6,4 km/h (2 Bft)
28.12.2020 10:02 23,0 °C 1,2 °C 45 % 80 % 983,0 hPa 0,0 l/m² 5,0 km/h (1 Bft) NO 55 ° 1 min 72 W/m² -1,9 °C 1,2 °C 6,4 km/h (2 Bft)
28.12.2020 10:03 23,0 °C 1,2 °C 45 % 80 % 983,0 hPa 0,0 l/m² 3,8 km/h (1 Bft) O-NO 57 ° 1 min 72 W/m² -1,9 °C 1,2 °C 4,8 km/h (1 Bft)
28.12.2020 10:05 22,9 °C 1,2 °C 45 % 80 % 983,0 hPa 0,0 l/m² 4,8 km/h (1 Bft) NO 48 ° 2 min 77 W/m² -1,9 °C 1,2 °C 6,4 km/h (2 Bft)
28.12.2020 10:06 22,9 °C 1,2 °C 45 % 80 % 983,1 hPa 0,0 l/m² 3,5 km/h (1 Bft) NO 48 ° 1 min 79 W/m² -1,9 °C 1,2 °C 4,8 km/h (1 Bft)
28.12.2020 10:07 22,9 °C 1,3 °C 45 % 80 % 983,1 hPa 0,0 l/m² 2,6 km/h (1 Bft) NO 48 ° 1 min 81 W/m² -1,8 °C 1,3 °C 3,2 km/h (1 Bft)
28.12.2020 10:09 22,9 °C 1,3 °C 44 % 80 % 983,1 hPa 0,0 l/m² 3,8 km/h (1 Bft) NO 48 ° 2 min 84 W/m² -1,8 °C 1,3 °C 4,8 km/h (1 Bft)
28.12.2020 10:10 22,9 °C 1,4 °C 40 % 80 % 983,0 hPa 0,0 l/m² 3,8 km/h (1 Bft) NO 48 ° 1 min 86 W/m² -1,7 °C 1,4 °C 4,8 km/h (1 Bft)
28.12.2020 10:11 22,9 °C 1,4 °C 40 % 80 % 983,0 hPa 0,0 l/m² 4,2 km/h (1 Bft) NO 48 ° 1 min 86 W/m² -1,7 °C 1,4 °C 6,4 km/h (2 Bft)
28.12.2020 10:12 22,9 °C 1,5 °C 36 % 80 % 983,0 hPa 0,0 l/m² 3,6 km/h (1 Bft) NO 40 ° 1 min 86 W/m² -1,6 °C 1,5 °C 6,4 km/h (2 Bft)
28.12.2020 10:13 22,9 °C 1,5 °C 36 % 80 % 983,0 hPa 0,0 l/m² 4,9 km/h (1 Bft) NO 35 ° 1 min 84 W/m² -1,6 °C 1,5 °C 6,4 km/h (2 Bft)
28.12.2020 10:15 22,8 °C 1,6 °C 36 % 80 % 983,0 hPa 0,0 l/m² 4,3 km/h (1 Bft) NO 43 ° 2 min 84 W/m² -1,5 °C 1,6 °C 6,4 km/h (2 Bft)
28.12.2020 10:17 22,7 °C 1,7 °C 36 % 80 % 983,0 hPa 0,0 l/m² 4,3 km/h (1 Bft) NO 42 ° 2 min 86 W/m² -1,4 °C 1,7 °C 6,4 km/h (2 Bft)
28.12.2020 10:19 22,7 °C 1,7 °C 38 % 79 % 983,0 hPa 0,0 l/m² 2,8 km/h (1 Bft) NO 42 ° 2 min 86 W/m² -1,5 °C 1,7 °C 4,8 km/h (1 Bft)
28.12.2020 10:20 22,7 °C 1,8 °C 38 % 79 % 983,0 hPa 0,0 l/m² 3,3 km/h (1 Bft) NO 44 ° 1 min 88 W/m² -1,4 °C 1,8 °C 6,4 km/h (2 Bft)
28.12.2020 10:21 22,7 °C 1,8 °C 38 % 79 % 983,0 hPa 0,0 l/m² 5,6 km/h (2 Bft) NO 42 ° 1 min 88 W/m² -1,4 °C 1,8 °C 8,0 km/h (2 Bft)
28.12.2020 10:23 22,7 °C 1,8 °C 39 % 79 % 983,0 hPa 0,0 l/m² 3,1 km/h (1 Bft) NO 42 ° 2 min 90 W/m² -1,4 °C 1,8 °C 4,8 km/h (1 Bft)
28.12.2020 10:25 22,7 °C 1,8 °C 40 % 79 % 983,0 hPa 0,0 l/m² 3,9 km/h (1 Bft) NO 43 ° 2 min 93 W/m² -1,4 °C 1,8 °C 6,4 km/h (2 Bft)
28.12.2020 10:27 22,7 °C 1,9 °C 40 % 79 % 983,0 hPa 0,0 l/m² 3,1 km/h (1 Bft) NO 44 ° 2 min 98 W/m² -1,3 °C 1,9 °C 4,8 km/h (1 Bft)
28.12.2020 10:29 22,7 °C 1,9 °C 40 % 79 % 983,1 hPa 0,0 l/m² 2,7 km/h (1 Bft) NO 44 ° 2 min 102 W/m² -1,3 °C 1,9 °C 4,8 km/h (1 Bft)
28.12.2020 10:30 22,7 °C 2,0 °C 40 % 79 % 983,1 hPa 0,0 l/m² 2,4 km/h (1 Bft) NO 44 ° 1 min 105 W/m² -1,2 °C 2,0 °C 3,2 km/h (1 Bft)
28.12.2020 10:31 22,7 °C 2,0 °C 40 % 79 % 983,1 hPa 0,0 l/m² 3,1 km/h (1 Bft) NO 44 ° 1 min 107 W/m² -1,2 °C 2,0 °C 4,8 km/h (1 Bft)
28.12.2020 10:32 22,7 °C 2,1 °C 40 % 79 % 983,1 hPa 0,0 l/m² 4,7 km/h (1 Bft) NO 44 ° 1 min 109 W/m² -1,2 °C 2,1 °C 6,4 km/h (2 Bft)
28.12.2020 10:33 22,7 °C 2,1 °C 41 % 79 % 983,0 hPa 0,0 l/m² 5,6 km/h (2 Bft) NO 39 ° 1 min 113 W/m² -1,2 °C 2,1 °C 8,0 km/h (2 Bft)
28.12.2020 10:35 22,7 °C 2,2 °C 41 % 79 % 983,1 hPa 0,0 l/m² 4,5 km/h (1 Bft) NO 51 ° 2 min 104 W/m² -1,1 °C 2,2 °C 6,4 km/h (2 Bft)
28.12.2020 10:37 22,8 °C 2,2 °C 41 % 79 % 983,1 hPa 0,0 l/m² 4,0 km/h (1 Bft) NO 55 ° 2 min 100 W/m² -1,1 °C 2,2 °C 6,4 km/h (2 Bft)
28.12.2020 10:39 22,8 °C 2,2 °C 41 % 79 % 983,2 hPa 0,0 l/m² 4,0 km/h (1 Bft) NO 53 ° 2 min 102 W/m² -1,1 °C 2,2 °C 6,4 km/h (2 Bft)
28.12.2020 10:40 22,8 °C 2,3 °C 41 % 79 % 983,1 hPa 0,0 l/m² 4,0 km/h (1 Bft) NO 53 ° 1 min 105 W/m² -1,0 °C 2,3 °C 4,8 km/h (1 Bft)
28.12.2020 10:41 22,8 °C 2,2 °C 41 % 79 % 983,1 hPa 0,0 l/m² 4,4 km/h (1 Bft) NO 51 ° 1 min 113 W/m² -1,1 °C 2,2 °C 6,4 km/h (2 Bft)
28.12.2020 10:42 22,8 °C 2,2 °C 41 % 78 % 983,1 hPa 0,0 l/m² 4,8 km/h (1 Bft) NO 46 ° 1 min 121 W/m² -1,2 °C 2,2 °C 6,4 km/h (2 Bft)
28.12.2020 10:43 22,8 °C 2,3 °C 41 % 79 % 983,1 hPa 0,0 l/m² 4,6 km/h (1 Bft) NO 46 ° 1 min 123 W/m² -1,0 °C 2,3 °C 6,4 km/h (2 Bft)
28.12.2020 10:45 22,8 °C 2,3 °C 41 % 79 % 983,1 hPa 0,0 l/m² 4,3 km/h (1 Bft) O-NO 59 ° 2 min 137 W/m² -1,0 °C 2,3 °C 8,0 km/h (2 Bft)
28.12.2020 10:47 22,8 °C 2,5 °C 42 % 79 % 983,1 hPa 0,0 l/m² 5,7 km/h (2 Bft) O-NO 66 ° 2 min 137 W/m² -0,8 °C 2,5 °C 8,0 km/h (2 Bft)
28.12.2020 10:49 22,9 °C 2,6 °C 42 % 79 % 983,1 hPa 0,0 l/m² 4,7 km/h (1 Bft) O-NO 71 ° 2 min 127 W/m² -0,7 °C 2,6 °C 6,4 km/h (2 Bft)
28.12.2020 10:50 22,9 °C 2,6 °C 42 % 79 % 983,1 hPa 0,0 l/m² 4,1 km/h (1 Bft) O-NO 69 ° 1 min 120 W/m² -0,7 °C 2,6 °C 6,4 km/h (2 Bft)
28.12.2020 10:51 22,9 °C 2,6 °C 42 % 79 % 983,1 hPa 0,0 l/m² 3,5 km/h (1 Bft) O-NO 69 ° 1 min 120 W/m² -0,7 °C 2,6 °C 6,4 km/h (2 Bft)
28.12.2020 10:52 22,9 °C 2,6 °C 42 % 79 % 983,0 hPa 0,0 l/m² 5,6 km/h (2 Bft) O 82 ° 1 min 121 W/m² -0,7 °C 2,6 °C 8,0 km/h (2 Bft)
28.12.2020 10:53 22,9 °C 2,6 °C 42 % 79 % 983,1 hPa 0,0 l/m² 6,1 km/h (2 Bft) O-NO 69 ° 1 min 123 W/m² -0,7 °C 2,6 °C 11,3 km/h (2 Bft)
28.12.2020 10:55 22,9 °C 2,7 °C 42 % 79 % 983,1 hPa 0,0 l/m² 6,2 km/h (2 Bft) O-NO 71 ° 2 min 123 W/m² -0,6 °C 2,7 °C 12,9 km/h (3 Bft)
28.12.2020 10:56 22,9 °C 2,7 °C 42 % 79 % 983,2 hPa 0,0 l/m² 8,3 km/h (2 Bft) O-NO 74 ° 1 min 139 W/m² -0,6 °C 0,9 °C 12,9 km/h (3 Bft)
28.12.2020 10:58 22,9 °C 2,7 °C 42 % 78 % 983,1 hPa 0,0 l/m² 7,7 km/h (2 Bft) O-NO 72 ° 2 min 142 W/m² -0,7 °C 1,5 °C 11,3 km/h (2 Bft)
28.12.2020 11:00 22,9 °C 2,8 °C 42 % 78 % 983,1 hPa 0,0 l/m² 6,0 km/h (2 Bft) O-NO 76 ° 2 min 151 W/m² -0,6 °C 2,8 °C 8,0 km/h (2 Bft)
28.12.2020 11:01 23,0 °C 2,9 °C 42 % 79 % 983,0 hPa 0,0 l/m² 4,5 km/h (1 Bft) O-NO 74 ° 1 min 144 W/m² -0,4 °C 2,9 °C 6,4 km/h (2 Bft)
28.12.2020 11:02 23,0 °C 2,9 °C 42 % 79 % 983,0 hPa 0,0 l/m² 6,0 km/h (2 Bft) O-NO 78 ° 1 min 151 W/m² -0,4 °C 2,9 °C 8,0 km/h (2 Bft)
28.12.2020 11:03 23,0 °C 2,9 °C 42 % 79 % 983,0 hPa 0,0 l/m² 6,9 km/h (2 Bft) O 81 ° 1 min 153 W/m² -0,4 °C 2,4 °C 8,0 km/h (2 Bft)
28.12.2020 11:04 23,0 °C 2,9 °C 42 % 79 % 982,9 hPa 0,0 l/m² 7,0 km/h (2 Bft) O-NO 78 ° 1 min 156 W/m² -0,4 °C 2,3 °C 11,3 km/h (2 Bft)
28.12.2020 11:06 23,0 °C 2,9 °C 40 % 79 % 982,9 hPa 0,0 l/m² 6,5 km/h (2 Bft) O-NO 66 ° 2 min 142 W/m² -0,4 °C 2,8 °C 8,0 km/h (2 Bft)
28.12.2020 11:08 23,0 °C 2,9 °C 38 % 79 % 982,8 hPa 0,0 l/m² 6,0 km/h (2 Bft) O-NO 71 ° 2 min 156 W/m² -0,4 °C 2,9 °C 9,7 km/h (2 Bft)
28.12.2020 11:10 22,9 °C 3,1 °C 35 % 78 % 982,8 hPa 0,0 l/m² 7,3 km/h (2 Bft) O-NO 68 ° 2 min 169 W/m² -0,4 °C 2,2 °C 11,3 km/h (2 Bft)
28.12.2020 11:11 22,9 °C 3,1 °C 35 % 78 % 982,8 hPa 0,0 l/m² 6,2 km/h (2 Bft) O 81 ° 1 min 163 W/m² -0,4 °C 3,1 °C 8,0 km/h (2 Bft)
28.12.2020 11:12 22,9 °C 3,1 °C 35 % 78 % 982,8 hPa 0,0 l/m² 8,1 km/h (2 Bft) O-NO 75 ° 1 min 165 W/m² -0,4 °C 1,5 °C 11,3 km/h (2 Bft)
28.12.2020 11:13 22,9 °C 3,1 °C 35 % 78 % 982,8 hPa 0,0 l/m² 6,3 km/h (2 Bft) O-NO 69 ° 1 min 167 W/m² -0,4 °C 3,1 °C 8,0 km/h (2 Bft)
28.12.2020 11:14 22,8 °C 3,2 °C 35 % 78 % 982,8 hPa 0,0 l/m² 5,2 km/h (1 Bft) O-NO 71 ° 1 min 167 W/m² -0,3 °C 3,2 °C 6,4 km/h (2 Bft)
28.12.2020 11:16 22,8 °C 3,2 °C 36 % 78 % 982,8 hPa 0,0 l/m² 7,5 km/h (2 Bft) O 86 ° 2 min 179 W/m² -0,3 °C 2,2 °C 11,3 km/h (2 Bft)
28.12.2020 11:18 22,8 °C 3,1 °C 37 % 78 % 982,9 hPa 0,0 l/m² 7,4 km/h (2 Bft) O 82 ° 2 min 158 W/m² -0,4 °C 2,2 °C 11,3 km/h (2 Bft)
28.12.2020 11:20 22,8 °C 3,1 °C 37 % 78 % 982,9 hPa 0,0 l/m² 7,3 km/h (2 Bft) O 80 ° 2 min 155 W/m² -0,4 °C 2,2 °C 11,3 km/h (2 Bft)
28.12.2020 11:21 22,8 °C 3,1 °C 38 % 78 % 982,9 hPa 0,0 l/m² 5,8 km/h (2 Bft) O 84 ° 1 min 155 W/m² -0,4 °C 3,1 °C 6,4 km/h (2 Bft)
28.12.2020 11:22 22,8 °C 3,1 °C 38 % 78 % 982,9 hPa 0,0 l/m² 4,7 km/h (1 Bft) O 82 ° 1 min 165 W/m² -0,4 °C 3,1 °C 6,4 km/h (2 Bft)
28.12.2020 11:23 22,8 °C 3,2 °C 38 % 78 % 982,9 hPa 0,0 l/m² 5,8 km/h (2 Bft) O-NO 77 ° 1 min 172 W/m² -0,3 °C 3,2 °C 6,4 km/h (2 Bft)
28.12.2020 11:24 22,8 °C 3,2 °C 38 % 78 % 982,9 hPa 0,0 l/m² 5,0 km/h (1 Bft) O-NO 77 ° 1 min 192 W/m² -0,3 °C 3,2 °C 6,4 km/h (2 Bft)
28.12.2020 11:26 22,9 °C 3,4 °C 38 % 78 % 983,0 hPa 0,0 l/m² 3,6 km/h (1 Bft) O-NO 77 ° 2 min 209 W/m² -0,1 °C 3,4 °C 4,8 km/h (1 Bft)
28.12.2020 11:28 22,9 °C 3,6 °C 39 % 78 % 983,0 hPa 0,0 l/m² 2,3 km/h (1 Bft) O-NO 77 ° 2 min 197 W/m² 0,1 °C 3,6 °C 4,8 km/h (1 Bft)
28.12.2020 11:30 22,9 °C 3,7 °C 39 % 76 % 983,0 hPa 0,0 l/m² 3,3 km/h (1 Bft) NO 56 ° 2 min 192 W/m² -0,1 °C 3,7 °C 6,4 km/h (2 Bft)
28.12.2020 11:31 22,9 °C 3,7 °C 39 % 76 % 983,0 hPa 0,0 l/m² 2,9 km/h (1 Bft) NO 56 ° 1 min 167 W/m² -0,1 °C 3,7 °C 4,8 km/h (1 Bft)
28.12.2020 11:32 22,9 °C 3,7 °C 39 % 76 % 983,0 hPa 0,0 l/m² 1,7 km/h (1 Bft) NO 56 ° 1 min 165 W/m² -0,1 °C 3,7 °C 3,2 km/h (1 Bft)
28.12.2020 11:33 22,9 °C 3,7 °C 39 % 76 % 983,0 hPa 0,0 l/m² 1,9 km/h (1 Bft) NO 56 ° 1 min 158 W/m² -0,1 °C 3,7 °C 3,2 km/h (1 Bft)
28.12.2020 11:34 22,9 °C 3,7 °C 39 % 76 % 983,0 hPa 0,0 l/m² 1,3 km/h (1 Bft) NO 56 ° 1 min 151 W/m² -0,1 °C 3,7 °C 3,2 km/h (1 Bft)
28.12.2020 11:36 22,9 °C 3,7 °C 40 % 76 % 982,9 hPa 0,0 l/m² 1,2 km/h (1 Bft) NO 56 ° 2 min 116 W/m² -0,1 °C 3,7 °C 3,2 km/h (1 Bft)
28.12.2020 11:38 22,9 °C 3,8 °C 40 % 76 % 982,9 hPa 0,0 l/m² 3,0 km/h (1 Bft) NO 56 ° 2 min 141 W/m² -0,0 °C 3,8 °C 4,8 km/h (1 Bft)
28.12.2020 11:40 23,0 °C 3,8 °C 40 % 76 % 983,0 hPa 0,0 l/m² 1,8 km/h (1 Bft) NO 56 ° 2 min 158 W/m² -0,0 °C 3,8 °C 3,2 km/h (1 Bft)
28.12.2020 11:41 23,0 °C 3,8 °C 40 % 75 % 982,9 hPa 0,0 l/m² 0,2 km/h (0 Bft) NO 56 ° 1 min 169 W/m² -0,2 °C 3,8 °C 1,6 km/h (1 Bft)
28.12.2020 11:42 23,0 °C 3,8 °C 40 % 75 % 982,9 hPa 0,0 l/m² 0,5 km/h (0 Bft) NO 56 ° 1 min 185 W/m² -0,2 °C 3,8 °C 1,6 km/h (1 Bft)
28.12.2020 11:43 23,0 °C 3,8 °C 40 % 76 % 982,8 hPa 0,0 l/m² 0,4 km/h (0 Bft) NO 56 ° 1 min 183 W/m² -0,0 °C 3,8 °C 1,6 km/h (1 Bft)
28.12.2020 11:44 23,0 °C 3,8 °C 40 % 76 % 982,8 hPa 0,0 l/m² 1,5 km/h (1 Bft) NO 56 ° 1 min 156 W/m² -0,0 °C 3,8 °C 3,2 km/h (1 Bft)
28.12.2020 11:46 23,1 °C 4,0 °C 40 % 76 % 982,9 hPa 0,0 l/m² 2,5 km/h (1 Bft) NO 56 ° 2 min 148 W/m² 0,2 °C 4,0 °C 4,8 km/h (1 Bft)
28.12.2020 11:48 23,1 °C 4,1 °C 40 % 76 % 982,9 hPa 0,0 l/m² 2,8 km/h (1 Bft) NO 56 ° 2 min 151 W/m² 0,3 °C 4,1 °C 3,2 km/h (1 Bft)
28.12.2020 11:50 23,1 °C 4,1 °C 41 % 76 % 982,8 hPa 0,0 l/m² 3,4 km/h (1 Bft) O-NO 57 ° 2 min 163 W/m² 0,3 °C 4,1 °C 4,8 km/h (1 Bft)
28.12.2020 11:51 23,1 °C 4,0 °C 41 % 75 % 982,9 hPa 0,0 l/m² 3,0 km/h (1 Bft) O-NO 57 ° 1 min 151 W/m² -0,0 °C 4,0 °C 3,2 km/h (1 Bft)
28.12.2020 11:52 23,1 °C 3,9 °C 41 % 77 % 982,8 hPa 0,0 l/m² 3,8 km/h (1 Bft) O-NO 57 ° 1 min 132 W/m² 0,2 °C 3,9 °C 4,8 km/h (1 Bft)
28.12.2020 11:53 23,1 °C 3,9 °C 41 % 77 % 982,8 hPa 0,0 l/m² 4,4 km/h (1 Bft) O-NO 63 ° 1 min 141 W/m² 0,2 °C 3,9 °C 4,8 km/h (1 Bft)
28.12.2020 11:54 23,1 °C 3,9 °C 41 % 76 % 982,8 hPa 0,0 l/m² 5,5 km/h (2 Bft) O 89 ° 1 min 127 W/m² 0,1 °C 3,9 °C 6,4 km/h (2 Bft)
28.12.2020 11:56 23,1 °C 3,8 °C 41 % 77 % 982,8 hPa 0,0 l/m² 5,0 km/h (1 Bft) O 89 ° 2 min 137 W/m² 0,1 °C 3,8 °C 6,4 km/h (2 Bft)
28.12.2020 11:58 23,1 °C 3,8 °C 41 % 78 % 982,7 hPa 0,0 l/m² 5,2 km/h (1 Bft) O 89 ° 2 min 137 W/m² 0,3 °C 3,8 °C 6,4 km/h (2 Bft)
28.12.2020 12:00 23,1 °C 3,8 °C 41 % 78 % 982,7 hPa 0,0 l/m² 5,1 km/h (1 Bft) O 89 ° 2 min 127 W/m² 0,3 °C 3,8 °C 6,4 km/h (2 Bft)
28.12.2020 12:01 23,1 °C 3,8 °C 41 % 78 % 982,6 hPa 0,0 l/m² 3,7 km/h (1 Bft) O 89 ° 1 min 153 W/m² 0,3 °C 3,8 °C 4,8 km/h (1 Bft)
28.12.2020 12:02 23,1 °C 3,8 °C 41 % 78 % 982,7 hPa 0,0 l/m² 4,7 km/h (1 Bft) O 89 ° 1 min 153 W/m² 0,3 °C 3,8 °C 6,4 km/h (2 Bft)
28.12.2020 12:03 23,1 °C 3,8 °C 41 % 78 % 982,6 hPa 0,0 l/m² 4,8 km/h (1 Bft) O 89 ° 1 min 165 W/m² 0,3 °C 3,8 °C 6,4 km/h (2 Bft)
28.12.2020 12:05 23,1 °C 3,9 °C 41 % 78 % 982,7 hPa 0,0 l/m² 4,7 km/h (1 Bft) O 89 ° 2 min 155 W/m² 0,4 °C 3,9 °C 6,4 km/h (2 Bft)
28.12.2020 12:07 23,2 °C 4,1 °C 41 % 78 % 982,6 hPa 0,0 l/m² 3,6 km/h (1 Bft) O 89 ° 2 min 174 W/m² 0,6 °C 4,1 °C 4,8 km/h (1 Bft)
28.12.2020 12:08 23,1 °C 4,1 °C 41 % 78 % 982,7 hPa 0,0 l/m² 5,0 km/h (1 Bft) O 88 ° 1 min 169 W/m² 0,6 °C 4,1 °C 6,4 km/h (2 Bft)
28.12.2020 12:09 23,1 °C 4,2 °C 42 % 78 % 982,6 hPa 0,0 l/m² 4,4 km/h (1 Bft) O 97 ° 1 min 158 W/m² 0,7 °C 4,2 °C 6,4 km/h (2 Bft)
28.12.2020 12:10 23,1 °C 4,2 °C 42 % 77 % 982,6 hPa 0,0 l/m² 3,3 km/h (1 Bft) O 97 ° 1 min 162 W/m² 0,5 °C 4,2 °C 4,8 km/h (1 Bft)
28.12.2020 12:11 23,2 °C 4,2 °C 42 % 78 % 982,7 hPa 0,0 l/m² 3,4 km/h (1 Bft) O 94 ° 1 min 167 W/m² 0,7 °C 4,2 °C 4,8 km/h (1 Bft)
28.12.2020 12:12 23,2 °C 4,2 °C 42 % 78 % 982,7 hPa 0,0 l/m² 4,0 km/h (1 Bft) O 85 ° 1 min 167 W/m² 0,7 °C 4,2 °C 6,4 km/h (2 Bft)
28.12.2020 12:14 23,2 °C 4,4 °C 42 % 77 % 982,7 hPa 0,0 l/m² 4,0 km/h (1 Bft) O 85 ° 2 min 134 W/m² 0,7 °C 4,4 °C 6,4 km/h (2 Bft)
28.12.2020 12:16 23,1 °C 4,4 °C 42 % 77 % 982,7 hPa 0,0 l/m² 3,0 km/h (1 Bft) O 79 ° 2 min 160 W/m² 0,7 °C 4,4 °C 6,4 km/h (2 Bft)
28.12.2020 12:18 23,2 °C 4,5 °C 42 % 77 % 982,7 hPa 0,0 l/m² 5,6 km/h (2 Bft) O-NO 71 ° 2 min 127 W/m² 0,8 °C 4,5 °C 8,0 km/h (2 Bft)
28.12.2020 12:20 23,2 °C 4,6 °C 42 % 76 % 982,6 hPa 0,0 l/m² 4,2 km/h (1 Bft) O-NO 66 ° 2 min 120 W/m² 0,7 °C 4,6 °C 6,4 km/h (2 Bft)
28.12.2020 12:22 23,2 °C 4,6 °C 42 % 76 % 982,7 hPa 0,0 l/m² 4,3 km/h (1 Bft) O-NO 63 ° 2 min 118 W/m² 0,7 °C 4,6 °C 6,4 km/h (2 Bft)
28.12.2020 12:23 23,2 °C 4,6 °C 42 % 76 % 982,7 hPa 0,0 l/m² 5,0 km/h (1 Bft) O-NO 63 ° 1 min 118 W/m² 0,7 °C 4,6 °C 8,0 km/h (2 Bft)
28.12.2020 12:25 23,2 °C 4,6 °C 42 % 76 % 982,7 hPa 0,0 l/m² 4,2 km/h (1 Bft) O-NO 61 ° 2 min 121 W/m² 0,7 °C 4,6 °C 6,4 km/h (2 Bft)
28.12.2020 12:27 23,2 °C 4,6 °C 43 % 76 % 982,6 hPa 0,0 l/m² 5,2 km/h (1 Bft) O 90 ° 2 min 125 W/m² 0,7 °C 4,6 °C 8,0 km/h (2 Bft)
28.12.2020 12:29 23,2 °C 4,7 °C 43 % 77 % 982,5 hPa 0,0 l/m² 5,5 km/h (2 Bft) O 84 ° 2 min 114 W/m² 1,0 °C 4,7 °C 9,7 km/h (2 Bft)
28.12.2020 12:31 23,2 °C 4,6 °C 43 % 76 % 982,6 hPa 0,0 l/m² 4,8 km/h (1 Bft) O-SO 104 ° 2 min 98 W/m² 0,7 °C 4,6 °C 6,4 km/h (2 Bft)
28.12.2020 12:32 23,2 °C 4,6 °C 43 % 77 % 982,5 hPa 0,0 l/m² 5,4 km/h (2 Bft) O-SO 106 ° 1 min 97 W/m² 0,9 °C 4,6 °C 6,4 km/h (2 Bft)
28.12.2020 12:33 23,2 °C 4,6 °C 43 % 77 % 982,5 hPa 0,0 l/m² 5,8 km/h (2 Bft) SO 132 ° 1 min 93 W/m² 0,9 °C 4,6 °C 6,4 km/h (2 Bft)
28.12.2020 12:35 23,2 °C 4,6 °C 43 % 77 % 982,5 hPa 0,0 l/m² 5,8 km/h (2 Bft) O-SO 103 ° 2 min 86 W/m² 0,9 °C 4,6 °C 9,7 km/h (2 Bft)
28.12.2020 12:37 23,2 °C 4,5 °C 44 % 77 % 982,5 hPa 0,0 l/m² 4,7 km/h (1 Bft) O-SO 106 ° 2 min 81 W/m² 0,8 °C 4,5 °C 6,4 km/h (2 Bft)
28.12.2020 12:39 23,2 °C 4,6 °C 44 % 78 % 982,5 hPa 0,0 l/m² 5,4 km/h (2 Bft) O 94 ° 2 min 76 W/m² 1,1 °C 4,6 °C 9,7 km/h (2 Bft)
28.12.2020 12:41 23,2 °C 4,5 °C 44 % 77 % 982,5 hPa 0,0 l/m² 4,6 km/h (1 Bft) O 96 ° 2 min 76 W/m² 0,8 °C 4,5 °C 6,4 km/h (2 Bft)
28.12.2020 12:42 23,2 °C 4,6 °C 44 % 77 % 982,5 hPa 0,0 l/m² 4,0 km/h (1 Bft) O 96 ° 1 min 77 W/m² 0,9 °C 4,6 °C 6,4 km/h (2 Bft)
28.12.2020 12:43 23,2 °C 4,6 °C 44 % 78 % 982,5 hPa 0,0 l/m² 4,4 km/h (1 Bft) O 96 ° 1 min 77 W/m² 1,1 °C 4,6 °C 4,8 km/h (1 Bft)
28.12.2020 12:45 23,2 °C 4,5 °C 44 % 78 % 982,4 hPa 0,0 l/m² 4,7 km/h (1 Bft) O 92 ° 2 min 79 W/m² 1,0 °C 4,5 °C 6,4 km/h (2 Bft)
28.12.2020 12:47 23,2 °C 4,6 °C 44 % 78 % 982,5 hPa 0,0 l/m² 5,1 km/h (1 Bft) O 86 ° 2 min 86 W/m² 1,1 °C 4,6 °C 6,4 km/h (2 Bft)
28.12.2020 12:48 23,2 °C 4,6 °C 44 % 78 % 982,5 hPa 0,0 l/m² 3,8 km/h (1 Bft) O 86 ° 1 min 91 W/m² 1,1 °C 4,6 °C 4,8 km/h (1 Bft)
28.12.2020 12:49 23,2 °C 4,6 °C 44 % 78 % 982,5 hPa 0,0 l/m² 4,0 km/h (1 Bft) O 86 ° 1 min 97 W/m² 1,1 °C 4,6 °C 4,8 km/h (1 Bft)
28.12.2020 12:51 23,2 °C 4,6 °C 44 % 77 % 982,4 hPa 0,0 l/m² 4,6 km/h (1 Bft) O-NO 78 ° 2 min 109 W/m² 0,9 °C 4,6 °C 8,0 km/h (2 Bft)
28.12.2020 12:52 23,2 °C 4,7 °C 44 % 78 % 982,4 hPa 0,0 l/m² 4,5 km/h (1 Bft) O-NO 78 ° 1 min 114 W/m² 1,2 °C 4,7 °C 6,4 km/h (2 Bft)
28.12.2020 12:53 23,2 °C 4,7 °C 44 % 77 % 982,4 hPa 0,0 l/m² 4,7 km/h (1 Bft) O-NO 68 ° 1 min 116 W/m² 1,0 °C 4,7 °C 4,8 km/h (1 Bft)
28.12.2020 12:55 23,2 °C 4,7 °C 44 % 76 % 982,4 hPa 0,0 l/m² 4,4 km/h (1 Bft) O-NO 73 ° 2 min 116 W/m² 0,8 °C 4,7 °C 6,4 km/h (2 Bft)
28.12.2020 12:57 23,2 °C 4,8 °C 44 % 77 % 982,2 hPa 0,0 l/m² 4,2 km/h (1 Bft) O-NO 71 ° 2 min 113 W/m² 1,1 °C 4,8 °C 6,4 km/h (2 Bft)
28.12.2020 12:59 23,2 °C 4,8 °C 44 % 76 % 982,3 hPa 0,0 l/m² 4,4 km/h (1 Bft) O-NO 72 ° 2 min 113 W/m² 0,9 °C 4,8 °C 6,4 km/h (2 Bft)
28.12.2020 13:01 23,2 °C 4,8 °C 44 % 77 % 982,3 hPa 0,0 l/m² 4,1 km/h (1 Bft) O-NO 74 ° 2 min 125 W/m² 1,1 °C 4,8 °C 6,4 km/h (2 Bft)
28.12.2020 13:02 23,2 °C 4,8 °C 44 % 77 % 982,4 hPa 0,0 l/m² 4,4 km/h (1 Bft) O 84 ° 1 min 127 W/m² 1,1 °C 4,8 °C 6,4 km/h (2 Bft)
28.12.2020 13:03 23,2 °C 4,7 °C 44 % 78 % 982,4 hPa 0,0 l/m² 4,8 km/h (1 Bft) O 94 ° 1 min 121 W/m² 1,2 °C 4,7 °C 6,4 km/h (2 Bft)
28.12.2020 13:05 23,2 °C 4,7 °C 44 % 78 % 982,4 hPa 0,0 l/m² 4,3 km/h (1 Bft) O 94 ° 2 min 118 W/m² 1,2 °C 4,7 °C 6,4 km/h (2 Bft)
28.12.2020 13:07 23,2 °C 4,6 °C 44 % 78 % 982,4 hPa 0,0 l/m² 5,2 km/h (1 Bft) O 96 ° 2 min 114 W/m² 1,1 °C 4,6 °C 9,7 km/h (2 Bft)
28.12.2020 13:09 23,2 °C 4,6 °C 44 % 77 % 982,3 hPa 0,0 l/m² 5,6 km/h (2 Bft) O 94 ° 2 min 118 W/m² 0,9 °C 4,6 °C 9,7 km/h (2 Bft)
28.12.2020 13:11 23,2 °C 4,7 °C 44 % 78 % 982,3 hPa 0,0 l/m² 3,2 km/h (1 Bft) O 94 ° 2 min 134 W/m² 1,2 °C 4,7 °C 4,8 km/h (1 Bft)
28.12.2020 13:12 23,2 °C 4,7 °C 44 % 78 % 982,3 hPa 0,0 l/m² 4,3 km/h (1 Bft) O 92 ° 1 min 142 W/m² 1,2 °C 4,7 °C 4,8 km/h (1 Bft)
28.12.2020 13:13 23,2 °C 4,7 °C 44 % 78 % 982,3 hPa 0,0 l/m² 3,2 km/h (1 Bft) O 92 ° 1 min 153 W/m² 1,2 °C 4,7 °C 4,8 km/h (1 Bft)
28.12.2020 13:15 23,2 °C 4,9 °C 44 % 77 % 982,3 hPa 0,0 l/m² 3,1 km/h (1 Bft) O 91 ° 2 min 160 W/m² 1,2 °C 4,9 °C 4,8 km/h (1 Bft)
28.12.2020 13:17 23,2 °C 5,1 °C 44 % 76 % 982,4 hPa 0,0 l/m² 4,1 km/h (1 Bft) O-NO 63 ° 2 min 165 W/m² 1,2 °C 5,1 °C 6,4 km/h (2 Bft)
28.12.2020 13:19 23,2 °C 5,3 °C 44 % 76 % 982,5 hPa 0,0 l/m² 3,0 km/h (1 Bft) NO 44 ° 2 min 165 W/m² 1,4 °C 5,3 °C 6,4 km/h (2 Bft)
28.12.2020 13:21 23,2 °C 5,2 °C 44 % 75 % 982,4 hPa 0,0 l/m² 4,4 km/h (1 Bft) NO 44 ° 2 min 176 W/m² 1,1 °C 5,2 °C 6,4 km/h (2 Bft)
28.12.2020 13:22 23,2 °C 5,3 °C 44 % 75 % 982,5 hPa 0,0 l/m² 4,7 km/h (1 Bft) N-NO 14 ° 1 min 202 W/m² 1,2 °C 5,3 °C 6,4 km/h (2 Bft)
28.12.2020 13:23 23,2 °C 5,3 °C 44 % 75 % 982,5 hPa 0,0 l/m² 5,8 km/h (2 Bft) NO 37 ° 1 min 202 W/m² 1,2 °C 5,3 °C 8,0 km/h (2 Bft)
28.12.2020 13:25 23,2 °C 5,3 °C 44 % 74 % 982,4 hPa 0,0 l/m² 5,7 km/h (2 Bft) NO 42 ° 2 min 243 W/m² 1,0 °C 5,3 °C 9,7 km/h (2 Bft)
28.12.2020 13:27 23,2 °C 5,6 °C 44 % 74 % 982,4 hPa 0,0 l/m² 4,2 km/h (1 Bft) NO 42 ° 2 min 229 W/m² 1,3 °C 5,6 °C 8,0 km/h (2 Bft)
28.12.2020 13:29 23,2 °C 5,7 °C 44 % 74 % 982,4 hPa 0,0 l/m² 4,9 km/h (1 Bft) N-NO 30 ° 2 min 195 W/m² 1,4 °C 5,7 °C 8,0 km/h (2 Bft)
28.12.2020 13:31 23,2 °C 5,7 °C 44 % 73 % 982,3 hPa 0,0 l/m² 3,9 km/h (1 Bft) NO 36 ° 2 min 162 W/m² 1,2 °C 5,7 °C 6,4 km/h (2 Bft)
28.12.2020 13:32 23,2 °C 5,7 °C 44 % 74 % 982,3 hPa 0,0 l/m² 3,6 km/h (1 Bft) NO 56 ° 1 min 167 W/m² 1,4 °C 5,7 °C 4,8 km/h (1 Bft)
28.12.2020 13:33 23,2 °C 5,7 °C 44 % 73 % 982,3 hPa 0,0 l/m² 4,3 km/h (1 Bft) NO 47 ° 1 min 169 W/m² 1,2 °C 5,7 °C 8,0 km/h (2 Bft)
28.12.2020 13:35 23,3 °C 5,7 °C 44 % 73 % 982,3 hPa 0,0 l/m² 4,6 km/h (1 Bft) O-NO 69 ° 2 min 167 W/m² 1,2 °C 5,7 °C 6,4 km/h (2 Bft)
28.12.2020 13:37 23,2 °C 5,8 °C 44 % 73 % 982,4 hPa 0,0 l/m² 4,5 km/h (1 Bft) O-NO 74 ° 2 min 142 W/m² 1,3 °C 5,8 °C 6,4 km/h (2 Bft)
28.12.2020 13:39 23,2 °C 5,7 °C 44 % 73 % 982,4 hPa 0,0 l/m² 5,8 km/h (2 Bft) O 90 ° 2 min 128 W/m² 1,2 °C 5,7 °C 9,7 km/h (2 Bft)
28.12.2020 13:41 23,3 °C 5,4 °C 44 % 74 % 982,5 hPa 0,0 l/m² 8,3 km/h (2 Bft) O-SO 107 ° 2 min 116 W/m² 1,1 °C 3,8 °C 11,3 km/h (2 Bft)
28.12.2020 13:42 23,3 °C 5,3 °C 44 % 74 % 982,4 hPa 0,0 l/m² 5,2 km/h (1 Bft) O-SO 107 ° 1 min 127 W/m² 1,0 °C 5,3 °C 6,4 km/h (2 Bft)
28.12.2020 13:43 23,3 °C 5,3 °C 44 % 74 % 982,4 hPa 0,0 l/m² 5,5 km/h (2 Bft) O 98 ° 1 min 123 W/m² 1,0 °C 5,3 °C 6,4 km/h (2 Bft)
28.12.2020 13:45 23,3 °C 5,2 °C 44 % 74 % 982,4 hPa 0,0 l/m² 5,5 km/h (2 Bft) O-SO 112 ° 2 min 116 W/m² 1,0 °C 5,2 °C 6,4 km/h (2 Bft)
28.12.2020 13:47 23,3 °C 5,1 °C 44 % 76 % 982,4 hPa 0,0 l/m² 5,1 km/h (1 Bft) O 94 ° 2 min 113 W/m² 1,2 °C 5,1 °C 6,4 km/h (2 Bft)
28.12.2020 13:49 23,3 °C 4,9 °C 44 % 76 % 982,4 hPa 0,0 l/m² 5,7 km/h (2 Bft) O-SO 107 ° 2 min 111 W/m² 1,0 °C 4,9 °C 6,4 km/h (2 Bft)
28.12.2020 13:51 23,3 °C 4,9 °C 44 % 75 % 982,3 hPa 0,0 l/m² 4,8 km/h (1 Bft) O-SO 103 ° 2 min 105 W/m² 0,8 °C 4,9 °C 6,4 km/h (2 Bft)
28.12.2020 13:52 23,3 °C 4,9 °C 44 % 76 % 982,2 hPa 0,0 l/m² 3,6 km/h (1 Bft) O-SO 103 ° 1 min 105 W/m² 1,0 °C 4,9 °C 4,8 km/h (1 Bft)
28.12.2020 13:53 23,3 °C 4,9 °C 44 % 77 % 982,2 hPa 0,0 l/m² 3,0 km/h (1 Bft) O-SO 103 ° 1 min 105 W/m² 1,2 °C 4,9 °C 3,2 km/h (1 Bft)
28.12.2020 13:55 23,3 °C 4,8 °C 44 % 77 % 982,3 hPa 0,0 l/m² 4,5 km/h (1 Bft) O-SO 103 ° 2 min 102 W/m² 1,1 °C 4,8 °C 4,8 km/h (1 Bft)
28.12.2020 13:57 23,3 °C 4,8 °C 44 % 77 % 982,3 hPa 0,0 l/m² 4,2 km/h (1 Bft) O-SO 103 ° 2 min 102 W/m² 1,1 °C 4,8 °C 6,4 km/h (2 Bft)
28.12.2020 13:59 23,3 °C 4,8 °C 45 % 77 % 982,2 hPa 0,0 l/m² 4,5 km/h (1 Bft) O-SO 103 ° 2 min 93 W/m² 1,1 °C 4,8 °C 6,4 km/h (2 Bft)
28.12.2020 14:01 23,3 °C 4,7 °C 45 % 78 % 982,2 hPa 0,0 l/m² 4,7 km/h (1 Bft) O-SO 110 ° 2 min 90 W/m² 1,2 °C 4,7 °C 6,4 km/h (2 Bft)
28.12.2020 14:02 23,3 °C 4,7 °C 45 % 78 % 982,2 hPa 0,0 l/m² 4,8 km/h (1 Bft) O-SO 113 ° 1 min 88 W/m² 1,2 °C 4,7 °C 6,4 km/h (2 Bft)
28.12.2020 14:03 23,3 °C 4,7 °C 45 % 78 % 982,2 hPa 0,0 l/m² 4,9 km/h (1 Bft) O-SO 113 ° 1 min 86 W/m² 1,2 °C 4,7 °C 6,4 km/h (2 Bft)
28.12.2020 14:05 23,3 °C 4,6 °C 45 % 78 % 982,2 hPa 0,0 l/m² 5,1 km/h (1 Bft) O-SO 113 ° 2 min 83 W/m² 1,1 °C 4,6 °C 6,4 km/h (2 Bft)
28.12.2020 14:07 23,3 °C 4,6 °C 45 % 78 % 982,2 hPa 0,0 l/m² 5,6 km/h (2 Bft) O 91 ° 2 min 79 W/m² 1,1 °C 4,6 °C 9,7 km/h (2 Bft)
28.12.2020 14:09 23,3 °C 4,6 °C 45 % 78 % 982,2 hPa 0,0 l/m² 5,9 km/h (2 Bft) O 85 ° 2 min 76 W/m² 1,1 °C 4,6 °C 8,0 km/h (2 Bft)
28.12.2020 14:11 23,3 °C 4,6 °C 44 % 78 % 982,3 hPa 0,0 l/m² 4,7 km/h (1 Bft) O 92 ° 2 min 72 W/m² 1,1 °C 4,6 °C 6,4 km/h (2 Bft)
28.12.2020 14:12 23,3 °C 4,6 °C 44 % 77 % 982,2 hPa 0,0 l/m² 6,4 km/h (2 Bft) O 95 ° 1 min 72 W/m² 0,9 °C 4,6 °C 11,3 km/h (2 Bft)
28.12.2020 14:13 23,3 °C 4,6 °C 44 % 77 % 982,2 hPa 0,0 l/m² 7,7 km/h (2 Bft) O-SO 104 ° 1 min 70 W/m² 0,9 °C 3,4 °C 11,3 km/h (2 Bft)
28.12.2020 14:15 23,3 °C 4,5 °C 44 % 77 % 982,3 hPa 0,0 l/m² 6,8 km/h (2 Bft) O-SO 118 ° 2 min 69 W/m² 0,8 °C 4,2 °C 11,3 km/h (2 Bft)
28.12.2020 14:17 23,3 °C 4,4 °C 44 % 78 % 982,2 hPa 0,0 l/m² 5,4 km/h (2 Bft) O-SO 118 ° 2 min 67 W/m² 0,9 °C 4,4 °C 6,4 km/h (2 Bft)
28.12.2020 14:19 23,3 °C 4,3 °C 44 % 78 % 982,3 hPa 0,0 l/m² 7,5 km/h (2 Bft) O-SO 115 ° 2 min 65 W/m² 0,8 °C 3,3 °C 9,7 km/h (2 Bft)
28.12.2020 14:21 23,2 °C 4,3 °C 44 % 78 % 982,3 hPa 0,0 l/m² 8,0 km/h (2 Bft) O-SO 103 ° 2 min 63 W/m² 0,8 °C 2,9 °C 11,3 km/h (2 Bft)
28.12.2020 14:22 23,2 °C 4,3 °C 44 % 78 % 982,3 hPa 0,0 l/m² 10,9 km/h (2 Bft) O-SO 109 ° 1 min 63 W/m² 0,8 °C 0,7 °C 12,9 km/h (3 Bft)
28.12.2020 14:23 23,2 °C 4,3 °C 44 % 78 % 982,3 hPa 0,0 l/m² 10,1 km/h (2 Bft) O 92 ° 1 min 63 W/m² 0,8 °C 1,2 °C 12,9 km/h (3 Bft)
28.12.2020 14:25 23,2 °C 4,4 °C 44 % 77 % 982,3 hPa 0,0 l/m² 12,0 km/h (2 Bft) O 99 ° 2 min 63 W/m² 0,7 °C 0,1 °C 14,5 km/h (3 Bft)
28.12.2020 14:27 23,2 °C 4,3 °C 44 % 78 % 982,4 hPa 0,0 l/m² 10,3 km/h (2 Bft) O 90 ° 2 min 63 W/m² 0,8 °C 1,1 °C 12,9 km/h (3 Bft)
28.12.2020 14:29 23,2 °C 4,3 °C 44 % 78 % 982,4 hPa 0,0 l/m² 10,3 km/h (2 Bft) O 101 ° 2 min 63 W/m² 0,8 °C 1,1 °C 16,1 km/h (3 Bft)
28.12.2020 14:31 23,2 °C 4,2 °C 44 % 78 % 982,3 hPa 0,0 l/m² 9,1 km/h (2 Bft) O 94 ° 2 min 62 W/m² 0,7 °C 1,9 °C 12,9 km/h (3 Bft)
28.12.2020 14:32 23,2 °C 4,2 °C 44 % 78 % 982,4 hPa 0,0 l/m² 10,1 km/h (2 Bft) O 100 ° 1 min 62 W/m² 0,7 °C 1,1 °C 12,9 km/h (3 Bft)
28.12.2020 14:33 23,2 °C 4,1 °C 44 % 78 % 982,4 hPa 0,0 l/m² 10,1 km/h (2 Bft) O 98 ° 1 min 60 W/m² 0,6 °C 1,0 °C 11,3 km/h (2 Bft)
28.12.2020 14:35 23,2 °C 4,1 °C 44 % 78 % 982,3 hPa 0,0 l/m² 8,4 km/h (2 Bft) O 96 ° 2 min 58 W/m² 0,6 °C 2,3 °C 12,9 km/h (3 Bft)
28.12.2020 14:37 23,2 °C 4,0 °C 44 % 78 % 982,4 hPa 0,0 l/m² 7,8 km/h (2 Bft) O 98 ° 2 min 56 W/m² 0,5 °C 2,7 °C 12,9 km/h (3 Bft)
28.12.2020 14:39 23,2 °C 4,0 °C 44 % 78 % 982,4 hPa 0,0 l/m² 9,8 km/h (2 Bft) O 90 ° 2 min 54 W/m² 0,5 °C 1,1 °C 14,5 km/h (3 Bft)
28.12.2020 14:41 23,2 °C 4,0 °C 44 % 78 % 982,4 hPa 0,0 l/m² 9,6 km/h (2 Bft) O 84 ° 2 min 53 W/m² 0,5 °C 1,3 °C 12,9 km/h (3 Bft)
28.12.2020 14:42 23,2 °C 3,9 °C 44 % 78 % 982,4 hPa 0,0 l/m² 9,6 km/h (2 Bft) O 89 ° 1 min 53 W/m² 0,4 °C 1,2 °C 11,3 km/h (2 Bft)
28.12.2020 14:44 23,2 °C 3,8 °C 44 % 79 % 982,5 hPa 0,0 l/m² 8,2 km/h (2 Bft) O 84 ° 0 min 51 W/m² 0,5 °C 2,2 °C 12,9 km/h (3 Bft)
28.12.2020 14:46 23,2 °C 3,8 °C 44 % 79 % 982,6 hPa 0,0 l/m² 9,3 km/h (2 Bft) O 93 ° 0 min 49 W/m² 0,5 °C 1,3 °C 12,9 km/h (3 Bft)
28.12.2020 14:48 23,2 °C 3,7 °C 44 % 79 % 982,5 hPa 0,0 l/m² 8,2 km/h (2 Bft) O 89 ° 0 min 49 W/m² 0,4 °C 2,1 °C 11,3 km/h (2 Bft)
28.12.2020 14:50 23,2 °C 3,7 °C 44 % 80 % 982,6 hPa 0,0 l/m² 9,0 km/h (2 Bft) O 89 ° 0 min 47 W/m² 0,6 °C 1,4 °C 14,5 km/h (3 Bft)
28.12.2020 14:51 23,2 °C 3,6 °C 44 % 80 % 982,5 hPa 0,0 l/m² 7,8 km/h (2 Bft) O-NO 76 ° 0 min 46 W/m² 0,5 °C 2,3 °C 11,3 km/h (2 Bft)
28.12.2020 14:52 23,2 °C 3,6 °C 44 % 79 % 982,5 hPa 0,0 l/m² 8,9 km/h (2 Bft) O 83 ° 0 min 46 W/m² 0,3 °C 1,4 °C 11,3 km/h (2 Bft)
28.12.2020 14:54 23,2 °C 3,6 °C 42 % 79 % 982,5 hPa 0,0 l/m² 8,6 km/h (2 Bft) O 89 ° 0 min 44 W/m² 0,3 °C 1,6 °C 11,3 km/h (2 Bft)
28.12.2020 14:56 23,1 °C 3,6 °C 40 % 80 % 982,6 hPa 0,0 l/m² 6,9 km/h (2 Bft) O 90 ° 0 min 42 W/m² 0,5 °C 3,1 °C 9,7 km/h (2 Bft)
28.12.2020 14:58 23,1 °C 3,5 °C 41 % 80 % 982,5 hPa 0,0 l/m² 6,3 km/h (2 Bft) O 86 ° 0 min 40 W/m² 0,4 °C 3,5 °C 9,7 km/h (2 Bft)
28.12.2020 15:00 23,1 °C 3,4 °C 41 % 81 % 982,6 hPa 0,0 l/m² 5,3 km/h (1 Bft) O-NO 63 ° 0 min 39 W/m² 0,5 °C 3,4 °C 8,0 km/h (2 Bft)
28.12.2020 15:01 23,1 °C 3,4 °C 41 % 80 % 982,5 hPa 0,0 l/m² 6,6 km/h (2 Bft) O 88 ° 0 min 37 W/m² 0,3 °C 3,2 °C 9,7 km/h (2 Bft)
28.12.2020 15:02 23,1 °C 3,4 °C 41 % 81 % 982,5 hPa 0,0 l/m² 5,6 km/h (2 Bft) O 88 ° 0 min 35 W/m² 0,5 °C 3,4 °C 6,4 km/h (2 Bft)
28.12.2020 15:04 23,1 °C 3,3 °C 42 % 81 % 982,6 hPa 0,0 l/m² 7,3 km/h (2 Bft) O 88 ° 0 min 35 W/m² 0,4 °C 2,5 °C 11,3 km/h (2 Bft)
28.12.2020 15:06 23,1 °C 3,3 °C 42 % 81 % 982,5 hPa 0,0 l/m² 7,4 km/h (2 Bft) O 82 ° 0 min 33 W/m² 0,4 °C 2,4 °C 11,3 km/h (2 Bft)
28.12.2020 15:08 23,1 °C 3,3 °C 41 % 81 % 982,6 hPa 0,0 l/m² 8,9 km/h (2 Bft) O 87 ° 0 min 32 W/m² 0,4 °C 1,1 °C 14,5 km/h (3 Bft)
28.12.2020 15:10 23,1 °C 3,3 °C 41 % 81 % 982,6 hPa 0,0 l/m² 10,5 km/h (2 Bft) O 95 ° 0 min 30 W/m² 0,4 °C -0,2 °C 12,9 km/h (3 Bft)
28.12.2020 15:12 23,0 °C 3,3 °C 41 % 81 % 982,6 hPa 0,0 l/m² 11,2 km/h (2 Bft) O-SO 103 ° 0 min 28 W/m² 0,4 °C -0,7 °C 16,1 km/h (3 Bft)
28.12.2020 15:13 23,0 °C 3,4 °C 41 % 80 % 982,6 hPa 0,0 l/m² 9,6 km/h (2 Bft) O 94 ° 0 min 28 W/m² 0,3 °C 0,6 °C 11,3 km/h (2 Bft)
28.12.2020 15:14 23,1 °C 3,4 °C 42 % 80 % 982,5 hPa 0,0 l/m² 12,4 km/h (2 Bft) O 99 ° 0 min 26 W/m² 0,3 °C -1,3 °C 14,5 km/h (3 Bft)
28.12.2020 15:16 23,0 °C 3,5 °C 42 % 80 % 982,5 hPa 0,0 l/m² 9,6 km/h (2 Bft) O 95 ° 0 min 25 W/m² 0,4 °C 0,7 °C 12,9 km/h (3 Bft)
28.12.2020 15:18 23,0 °C 3,5 °C 42 % 79 % 982,4 hPa 0,0 l/m² 10,4 km/h (2 Bft) O 90 ° 0 min 23 W/m² 0,2 °C 0,1 °C 14,5 km/h (3 Bft)
28.12.2020 15:20 23,0 °C 3,6 °C 42 % 80 % 982,4 hPa 0,0 l/m² 9,4 km/h (2 Bft) O 95 ° 0 min 19 W/m² 0,5 °C 1,0 °C 11,3 km/h (2 Bft)
28.12.2020 15:22 23,0 °C 3,7 °C 42 % 79 % 982,5 hPa 0,0 l/m² 8,7 km/h (2 Bft) O 92 ° 0 min 19 W/m² 0,4 °C 1,6 °C 12,9 km/h (3 Bft)
28.12.2020 15:23 23,0 °C 3,6 °C 42 % 79 % 982,4 hPa 0,0 l/m² 7,8 km/h (2 Bft) O 80 ° 0 min 19 W/m² 0,3 °C 2,3 °C 11,3 km/h (2 Bft)
28.12.2020 15:24 23,0 °C 3,7 °C 42 % 79 % 982,4 hPa 0,0 l/m² 6,5 km/h (2 Bft) O 86 ° 0 min 18 W/m² 0,4 °C 3,6 °C 8,0 km/h (2 Bft)
28.12.2020 15:26 23,0 °C 3,7 °C 42 % 79 % 982,4 hPa 0,0 l/m² 6,2 km/h (2 Bft) O 80 ° 0 min 18 W/m² 0,4 °C 3,7 °C 8,0 km/h (2 Bft)
28.12.2020 15:28 23,0 °C 3,7 °C 42 % 79 % 982,5 hPa 0,0 l/m² 5,8 km/h (2 Bft) O 88 ° 0 min 18 W/m² 0,4 °C 3,7 °C 6,4 km/h (2 Bft)
28.12.2020 15:30 23,0 °C 3,6 °C 42 % 79 % 982,5 hPa 0,0 l/m² 6,1 km/h (2 Bft) O 83 ° 0 min 16 W/m² 0,3 °C 3,6 °C 11,3 km/h (2 Bft)
28.12.2020 15:32 23,0 °C 3,6 °C 42 % 79 % 982,5 hPa 0,0 l/m² 6,9 km/h (2 Bft) O 87 ° 0 min 14 W/m² 0,3 °C 3,1 °C 11,3 km/h (2 Bft)
28.12.2020 15:33 23,0 °C 3,5 °C 42 % 79 % 982,5 hPa 0,0 l/m² 8,6 km/h (2 Bft) O 88 ° 0 min 14 W/m² 0,2 °C 1,5 °C 12,9 km/h (3 Bft)
28.12.2020 15:34 23,0 °C 3,5 °C 42 % 79 % 982,4 hPa 0,0 l/m² 9,0 km/h (2 Bft) O 86 ° 0 min 12 W/m² 0,2 °C 1,2 °C 11,3 km/h (2 Bft)
28.12.2020 15:35 23,0 °C 3,6 °C 42 % 79 % 982,4 hPa 0,0 l/m² 9,4 km/h (2 Bft) O 92 ° 0 min 12 W/m² 0,3 °C 1,0 °C 11,3 km/h (2 Bft)
28.12.2020 15:37 23,0 °C 3,5 °C 42 % 79 % 982,5 hPa 0,0 l/m² 7,3 km/h (2 Bft) O 82 ° 0 min 11 W/m² 0,2 °C 2,7 °C 11,3 km/h (2 Bft)
28.12.2020 15:39 23,0 °C 3,6 °C 42 % 79 % 982,5 hPa 0,0 l/m² 7,3 km/h (2 Bft) O 93 ° 0 min 9 W/m² 0,3 °C 2,8 °C 9,7 km/h (2 Bft)
28.12.2020 15:42 23,0 °C 3,6 °C 43 % 80 % 982,5 hPa 0,0 l/m² 9,6 km/h (2 Bft) O 89 ° 0 min 9 W/m² 0,5 °C 0,8 °C 14,5 km/h (3 Bft)
28.12.2020 15:44 23,0 °C 3,6 °C 43 % 80 % 982,5 hPa 0,0 l/m² 10,3 km/h (2 Bft) O 95 ° 0 min 7 W/m² 0,5 °C 0,3 °C 14,5 km/h (3 Bft)
28.12.2020 15:45 23,0 °C 3,6 °C 43 % 80 % 982,5 hPa 0,0 l/m² 9,7 km/h (2 Bft) O-SO 103 ° 0 min 7 W/m² 0,5 °C 0,8 °C 14,5 km/h (3 Bft)
28.12.2020 15:46 23,0 °C 3,6 °C 43 % 79 % 982,5 hPa 0,0 l/m² 9,7 km/h (2 Bft) O 97 ° 0 min 5 W/m² 0,3 °C 0,8 °C 14,5 km/h (3 Bft)
28.12.2020 15:47 23,0 °C 3,6 °C 43 % 79 % 982,5 hPa 0,0 l/m² 10,8 km/h (2 Bft) O 101 ° 0 min 5 W/m² 0,3 °C -0,1 °C 14,5 km/h (3 Bft)
28.12.2020 15:49 23,0 °C 3,7 °C 43 % 79 % 982,5 hPa 0,0 l/m² 10,5 km/h (2 Bft) O 90 ° 0 min 5 W/m² 0,4 °C 0,3 °C 12,9 km/h (3 Bft)
28.12.2020 15:52 23,0 °C 3,7 °C 43 % 79 % 982,5 hPa 0,0 l/m² 7,6 km/h (2 Bft) O-NO 74 ° 0 min 0 W/m² 0,4 °C 2,6 °C 12,9 km/h (3 Bft)
28.12.2020 15:53 23,0 °C 3,7 °C 43 % 79 % 982,5 hPa 0,0 l/m² 5,1 km/h (1 Bft) O-NO 69 ° 0 min 0 W/m² 0,4 °C 3,7 °C 8,0 km/h (2 Bft)
28.12.2020 15:54 23,0 °C 3,7 °C 43 % 79 % 982,5 hPa 0,0 l/m² 6,0 km/h (2 Bft) O 83 ° 0 min 0 W/m² 0,4 °C 3,7 °C 9,7 km/h (2 Bft)
28.12.2020 15:55 23,0 °C 3,8 °C 43 % 79 % 982,5 hPa 0,0 l/m² 9,7 km/h (2 Bft) O 90 ° 0 min 0 W/m² 0,5 °C 1,0 °C 11,3 km/h (2 Bft)
28.12.2020 15:57 22,9 °C 3,8 °C 43 % 79 % 982,6 hPa 0,0 l/m² 10,3 km/h (2 Bft) O 94 ° 0 min 0 W/m² 0,5 °C 0,5 °C 12,9 km/h (3 Bft)
28.12.2020 15:59 23,0 °C 3,8 °C 43 % 79 % 982,5 hPa 0,0 l/m² 10,0 km/h (2 Bft) O 93 ° 0 min 0 W/m² 0,5 °C 0,7 °C 12,9 km/h (3 Bft)
28.12.2020 16:02 22,9 °C 3,7 °C 43 % 79 % 982,4 hPa 0,0 l/m² 9,1 km/h (2 Bft) O 91 ° 0 min 0 W/m² 0,4 °C 1,3 °C 14,5 km/h (3 Bft)
28.12.2020 16:04 22,9 °C 3,7 °C 43 % 79 % 982,4 hPa 0,0 l/m² 9,7 km/h (2 Bft) O 87 ° 0 min 0 W/m² 0,4 °C 0,9 °C 14,5 km/h (3 Bft)
28.12.2020 16:05 22,9 °C 3,7 °C 43 % 79 % 982,4 hPa 0,0 l/m² 7,0 km/h (2 Bft) O 89 ° 0 min 0 W/m² 0,4 °C 3,1 °C 8,0 km/h (2 Bft)
28.12.2020 16:07 23,0 °C 3,7 °C 43 % 80 % 982,4 hPa 0,0 l/m² 8,2 km/h (2 Bft) O 83 ° 0 min 0 W/m² 0,6 °C 2,1 °C 11,3 km/h (2 Bft)
28.12.2020 16:09 23,0 °C 3,7 °C 43 % 79 % 982,4 hPa 0,0 l/m² 7,2 km/h (2 Bft) O 95 ° 0 min 0 W/m² 0,4 °C 3,0 °C 11,3 km/h (2 Bft)
28.12.2020 16:12 22,9 °C 3,6 °C 43 % 80 % 982,5 hPa 0,0 l/m² 9,2 km/h (2 Bft) O 92 ° 0 min 0 W/m² 0,5 °C 1,1 °C 12,9 km/h (3 Bft)
28.12.2020 16:13 23,0 °C 3,6 °C 43 % 80 % 982,4 hPa 0,0 l/m² 8,9 km/h (2 Bft) O-SO 102 ° 0 min 0 W/m² 0,5 °C 1,4 °C 11,3 km/h (2 Bft)
28.12.2020 16:14 22,9 °C 3,6 °C 43 % 80 % 982,5 hPa 0,0 l/m² 12,5 km/h (2 Bft) O 97 ° 0 min 0 W/m² 0,5 °C -1,2 °C 16,1 km/h (3 Bft)
28.12.2020 16:15 22,9 °C 3,6 °C 43 % 80 % 982,5 hPa 0,0 l/m² 11,0 km/h (2 Bft) O 97 ° 0 min 0 W/m² 0,5 °C -0,2 °C 12,9 km/h (3 Bft)
28.12.2020 16:17 23,0 °C 3,6 °C 43 % 80 % 982,5 hPa 0,0 l/m² 11,3 km/h (2 Bft) O 90 ° 0 min 0 W/m² 0,5 °C -0,4 °C 14,5 km/h (3 Bft)
28.12.2020 16:19 23,0 °C 3,6 °C 43 % 80 % 982,5 hPa 0,0 l/m² 11,8 km/h (2 Bft) O 96 ° 0 min 0 W/m² 0,5 °C -0,7 °C 14,5 km/h (3 Bft)
28.12.2020 16:22 23,0 °C 3,6 °C 43 % 80 % 982,6 hPa 0,0 l/m² 9,5 km/h (2 Bft) O 95 ° 0 min 0 W/m² 0,5 °C 0,9 °C 12,9 km/h (3 Bft)
28.12.2020 16:23 23,0 °C 3,6 °C 43 % 80 % 982,6 hPa 0,0 l/m² 10,7 km/h (2 Bft) O 90 ° 0 min 0 W/m² 0,5 °C 0,0 °C 12,9 km/h (3 Bft)
28.12.2020 16:24 23,0 °C 3,6 °C 43 % 80 % 982,6 hPa 0,0 l/m² 9,9 km/h (2 Bft) O 95 ° 0 min 0 W/m² 0,5 °C 0,6 °C 11,3 km/h (2 Bft)
28.12.2020 16:25 23,0 °C 3,6 °C 43 % 80 % 982,6 hPa 0,0 l/m² 9,4 km/h (2 Bft) O 89 ° 0 min 0 W/m² 0,5 °C 1,0 °C 11,3 km/h (2 Bft)
28.12.2020 16:27 22,9 °C 3,6 °C 43 % 80 % 982,7 hPa 0,0 l/m² 9,4 km/h (2 Bft) O 94 ° 0 min 0 W/m² 0,5 °C 1,0 °C 11,3 km/h (2 Bft)
28.12.2020 16:29 23,0 °C 3,5 °C 43 % 80 % 982,6 hPa 0,0 l/m² 7,5 km/h (2 Bft) O 90 ° 0 min 0 W/m² 0,4 °C 2,5 °C 11,3 km/h (2 Bft)
28.12.2020 16:32 22,9 °C 3,5 °C 44 % 81 % 982,6 hPa 0,0 l/m² 6,5 km/h (2 Bft) O 82 ° 0 min 0 W/m² 0,6 °C 3,4 °C 11,3 km/h (2 Bft)
28.12.2020 16:33 22,9 °C 3,5 °C 44 % 80 % 982,6 hPa 0,0 l/m² 6,5 km/h (2 Bft) O 82 ° 0 min 0 W/m² 0,4 °C 3,4 °C 8,0 km/h (2 Bft)
28.12.2020 16:34 22,9 °C 3,4 °C 44 % 80 % 982,6 hPa 0,0 l/m² 6,1 km/h (2 Bft) O 82 ° 0 min 0 W/m² 0,3 °C 3,4 °C 6,4 km/h (2 Bft)
28.12.2020 16:35 22,9 °C 3,4 °C 44 % 81 % 982,6 hPa 0,0 l/m² 5,8 km/h (2 Bft) O 81 ° 0 min 0 W/m² 0,5 °C 3,4 °C 6,4 km/h (2 Bft)
28.12.2020 16:37 23,0 °C 3,4 °C 44 % 80 % 982,7 hPa 0,0 l/m² 5,8 km/h (2 Bft) O 88 ° 0 min 0 W/m² 0,3 °C 3,4 °C 8,0 km/h (2 Bft)
28.12.2020 16:39 23,0 °C 3,4 °C 44 % 80 % 982,7 hPa 0,0 l/m² 6,0 km/h (2 Bft) O-NO 76 ° 0 min 0 W/m² 0,3 °C 3,4 °C 11,3 km/h (2 Bft)
28.12.2020 16:42 23,0 °C 3,4 °C 44 % 81 % 982,7 hPa 0,0 l/m² 5,5 km/h (2 Bft) O 80 ° 0 min 0 W/m² 0,5 °C 3,4 °C 8,0 km/h (2 Bft)
28.12.2020 16:43 23,0 °C 3,4 °C 44 % 81 % 982,7 hPa 0,0 l/m² 5,9 km/h (2 Bft) O 92 ° 0 min 0 W/m² 0,5 °C 3,4 °C 8,0 km/h (2 Bft)
28.12.2020 16:44 23,0 °C 3,4 °C 44 % 81 % 982,7 hPa 0,0 l/m² 4,7 km/h (1 Bft) O 91 ° 0 min 0 W/m² 0,5 °C 3,4 °C 6,4 km/h (2 Bft)
28.12.2020 16:45 23,0 °C 3,4 °C 44 % 81 % 982,7 hPa 0,0 l/m² 4,3 km/h (1 Bft) O 88 ° 0 min 0 W/m² 0,5 °C 3,4 °C 6,4 km/h (2 Bft)
28.12.2020 16:47 23,0 °C 3,4 °C 44 % 81 % 982,7 hPa 0,0 l/m² 3,6 km/h (1 Bft) O 88 ° 0 min 0 W/m² 0,5 °C 3,4 °C 4,8 km/h (1 Bft)
28.12.2020 16:49 23,0 °C 3,4 °C 44 % 81 % 982,8 hPa 0,0 l/m² 3,5 km/h (1 Bft) O 88 ° 0 min 0 W/m² 0,5 °C 3,4 °C 4,8 km/h (1 Bft)
28.12.2020 16:52 23,1 °C 3,4 °C 44 % 81 % 982,8 hPa 0,0 l/m² 4,8 km/h (1 Bft) O 92 ° 0 min 0 W/m² 0,5 °C 3,4 °C 8,0 km/h (2 Bft)
28.12.2020 16:53 23,1 °C 3,4 °C 44 % 81 % 982,9 hPa 0,0 l/m² 6,6 km/h (2 Bft) O 95 ° 0 min 0 W/m² 0,5 °C 3,2 °C 9,7 km/h (2 Bft)
28.12.2020 16:54 23,1 °C 3,3 °C 44 % 81 % 982,8 hPa 0,0 l/m² 7,3 km/h (2 Bft) O 95 ° 0 min 0 W/m² 0,4 °C 2,5 °C 9,7 km/h (2 Bft)
28.12.2020 16:55 23,1 °C 3,3 °C 44 % 81 % 982,8 hPa 0,0 l/m² 6,6 km/h (2 Bft) O 95 ° 0 min 0 W/m² 0,4 °C 3,1 °C 9,7 km/h (2 Bft)
28.12.2020 16:57 23,1 °C 3,3 °C 44 % 82 % 982,8 hPa 0,0 l/m² 6,1 km/h (2 Bft) O 95 ° 0 min 0 W/m² 0,5 °C 3,3 °C 9,7 km/h (2 Bft)
28.12.2020 16:59 23,1 °C 3,3 °C 44 % 82 % 982,9 hPa 0,0 l/m² 7,9 km/h (2 Bft) O 101 ° 0 min 0 W/m² 0,5 °C 1,9 °C 9,7 km/h (2 Bft)
28.12.2020 17:02 23,1 °C 3,3 °C 44 % 82 % 982,8 hPa 0,0 l/m² 8,3 km/h (2 Bft) O-SO 102 ° 0 min 0 W/m² 0,5 °C 1,6 °C 12,9 km/h (3 Bft)
28.12.2020 17:03 23,1 °C 3,3 °C 44 % 82 % 982,8 hPa 0,0 l/m² 11,9 km/h (2 Bft) O-SO 106 ° 0 min 0 W/m² 0,5 °C -1,1 °C 14,5 km/h (3 Bft)
28.12.2020 17:04 23,1 °C 3,3 °C 44 % 82 % 982,8 hPa 0,0 l/m² 10,5 km/h (2 Bft) O 97 ° 0 min 0 W/m² 0,5 °C -0,2 °C 12,9 km/h (3 Bft)
28.12.2020 17:05 23,1 °C 3,3 °C 44 % 82 % 982,8 hPa 0,0 l/m² 11,3 km/h (2 Bft) O 94 ° 0 min 0 W/m² 0,5 °C -0,7 °C 12,9 km/h (3 Bft)
28.12.2020 17:07 23,1 °C 3,3 °C 45 % 82 % 982,8 hPa 0,0 l/m² 11,4 km/h (2 Bft) O-SO 103 ° 0 min 0 W/m² 0,5 °C -0,8 °C 16,1 km/h (3 Bft)
28.12.2020 17:09 23,1 °C 3,4 °C 45 % 81 % 982,8 hPa 0,0 l/m² 10,5 km/h (2 Bft) O-SO 109 ° 0 min 0 W/m² 0,5 °C -0,1 °C 16,1 km/h (3 Bft)
28.12.2020 17:12 23,1 °C 3,4 °C 45 % 81 % 982,8 hPa 0,0 l/m² 12,0 km/h (2 Bft) O 90 ° 0 min 0 W/m² 0,5 °C -1,1 °C 16,1 km/h (3 Bft)
28.12.2020 17:13 23,1 °C 3,5 °C 45 % 81 % 982,8 hPa 0,0 l/m² 12,3 km/h (2 Bft) O-SO 116 ° 0 min 0 W/m² 0,6 °C -1,2 °C 14,5 km/h (3 Bft)
28.12.2020 17:14 23,1 °C 3,5 °C 45 % 81 % 982,8 hPa 0,0 l/m² 12,7 km/h (3 Bft) O-SO 105 ° 0 min 0 W/m² 0,6 °C -1,4 °C 16,1 km/h (3 Bft)
28.12.2020 17:15 23,1 °C 3,5 °C 45 % 80 % 982,8 hPa 0,0 l/m² 11,8 km/h (2 Bft) O 98 ° 0 min 0 W/m² 0,4 °C -0,8 °C 12,9 km/h (3 Bft)
28.12.2020 17:17 23,1 °C 3,6 °C 45 % 80 % 982,8 hPa 0,0 l/m² 12,0 km/h (2 Bft) O-SO 116 ° 0 min 0 W/m² 0,5 °C -0,9 °C 16,1 km/h (3 Bft)
28.12.2020 17:19 23,2 °C 3,6 °C 45 % 80 % 982,8 hPa 0,0 l/m² 10,6 km/h (2 Bft) O-SO 112 ° 0 min 0 W/m² 0,5 °C 0,1 °C 14,5 km/h (3 Bft)
28.12.2020 17:22 23,2 °C 3,7 °C 45 % 79 % 982,7 hPa 0,0 l/m² 10,9 km/h (2 Bft) O-SO 104 ° 0 min 0 W/m² 0,4 °C -0,0 °C 16,1 km/h (3 Bft)
28.12.2020 17:23 23,2 °C 3,7 °C 45 % 79 % 982,7 hPa 0,0 l/m² 8,6 km/h (2 Bft) O-SO 103 ° 0 min 0 W/m² 0,4 °C 1,7 °C 11,3 km/h (2 Bft)
28.12.2020 17:24 23,2 °C 3,7 °C 45 % 79 % 982,7 hPa 0,0 l/m² 9,8 km/h (2 Bft) O 97 ° 0 min 0 W/m² 0,4 °C 0,8 °C 14,5 km/h (3 Bft)
28.12.2020 17:25 23,2 °C 3,7 °C 45 % 79 % 982,7 hPa 0,0 l/m² 11,7 km/h (2 Bft) O-SO 105 ° 0 min 0 W/m² 0,4 °C -0,5 °C 14,5 km/h (3 Bft)
28.12.2020 17:27 23,2 °C 3,7 °C 45 % 79 % 982,7 hPa 0,0 l/m² 9,3 km/h (2 Bft) O-SO 106 ° 0 min 0 W/m² 0,4 °C 1,2 °C 12,9 km/h (3 Bft)
28.12.2020 17:29 23,2 °C 3,7 °C 45 % 79 % 982,6 hPa 0,0 l/m² 6,5 km/h (2 Bft) O-SO 116 ° 0 min 0 W/m² 0,4 °C 3,6 °C 11,3 km/h (2 Bft)
28.12.2020 17:32 23,2 °C 3,7 °C 45 % 79 % 982,6 hPa 0,0 l/m² 7,7 km/h (2 Bft) O 101 ° 0 min 0 W/m² 0,4 °C 2,5 °C 11,3 km/h (2 Bft)
28.12.2020 17:34 23,2 °C 3,7 °C 45 % 79 % 982,6 hPa 0,0 l/m² 10,2 km/h (2 Bft) O-SO 106 ° 0 min 0 W/m² 0,4 °C 0,5 °C 12,9 km/h (3 Bft)
28.12.2020 17:35 23,2 °C 3,8 °C 45 % 79 % 982,6 hPa 0,0 l/m² 10,1 km/h (2 Bft) O-SO 107 ° 0 min 0 W/m² 0,5 °C 0,7 °C 11,3 km/h (2 Bft)
28.12.2020 17:37 23,2 °C 3,8 °C 45 % 80 % 982,5 hPa 0,0 l/m² 7,4 km/h (2 Bft) O 98 ° 0 min 0 W/m² 0,7 °C 2,9 °C 9,7 km/h (2 Bft)
28.12.2020 17:38 23,2 °C 3,7 °C 45 % 80 % 982,5 hPa 0,0 l/m² 5,5 km/h (2 Bft) O 96 ° 0 min 0 W/m² 0,6 °C 3,7 °C 9,7 km/h (2 Bft)
28.12.2020 17:39 23,2 °C 3,7 °C 45 % 80 % 982,5 hPa 0,0 l/m² 7,5 km/h (2 Bft) O 88 ° 0 min 0 W/m² 0,6 °C 2,7 °C 9,7 km/h (2 Bft)
28.12.2020 17:40 23,2 °C 3,7 °C 45 % 80 % 982,5 hPa 0,0 l/m² 9,7 km/h (2 Bft) O 90 ° 0 min 0 W/m² 0,6 °C 0,9 °C 11,3 km/h (2 Bft)
28.12.2020 17:41 23,2 °C 3,7 °C 45 % 80 % 982,4 hPa 0,0 l/m² 6,4 km/h (2 Bft) O 90 ° 0 min 0 W/m² 0,6 °C 3,7 °C 9,7 km/h (2 Bft)
28.12.2020 17:47 23,2 °C 3,7 °C 45 % 80 % 982,5 hPa 0,0 l/m² 4,3 km/h (1 Bft) O 92 ° 0 min 0 W/m² 0,6 °C 3,7 °C 4,8 km/h (1 Bft)
28.12.2020 17:49 23,1 °C 3,7 °C 45 % 81 % 982,4 hPa 0,0 l/m² 4,0 km/h (1 Bft) O 91 ° 0 min 0 W/m² 0,7 °C 3,7 °C 6,4 km/h (2 Bft)
28.12.2020 17:51 23,1 °C 3,7 °C 45 % 81 % 982,4 hPa 0,0 l/m² 2,4 km/h (1 Bft) O 91 ° 0 min 0 W/m² 0,7 °C 3,7 °C 4,8 km/h (1 Bft)
28.12.2020 17:53 23,1 °C 3,7 °C 45 % 81 % 982,4 hPa 0,0 l/m² 2,6 km/h (1 Bft) O 91 ° 0 min 0 W/m² 0,7 °C 3,7 °C 4,8 km/h (1 Bft)
28.12.2020 17:54 23,1 °C 3,7 °C 45 % 81 % 982,4 hPa 0,0 l/m² 1,3 km/h (1 Bft) O 91 ° 0 min 0 W/m² 0,7 °C 3,7 °C 3,2 km/h (1 Bft)
28.12.2020 17:56 23,1 °C 3,7 °C 45 % 81 % 982,3 hPa 0,0 l/m² 1,3 km/h (1 Bft) O 91 ° 0 min 0 W/m² 0,7 °C 3,7 °C 3,2 km/h (1 Bft)
28.12.2020 17:58 23,1 °C 3,7 °C 45 % 81 % 982,3 hPa 0,0 l/m² 2,0 km/h (1 Bft) O 91 ° 0 min 0 W/m² 0,7 °C 3,7 °C 3,2 km/h (1 Bft)
28.12.2020 18:00 23,1 °C 3,7 °C 45 % 81 % 982,2 hPa 0,0 l/m² 2,3 km/h (1 Bft) O 90 ° 0 min 0 W/m² 0,7 °C 3,7 °C 4,8 km/h (1 Bft)
28.12.2020 18:01 23,1 °C 3,7 °C 45 % 81 % 982,3 hPa 0,0 l/m² 1,7 km/h (1 Bft) O 90 ° 0 min 0 W/m² 0,7 °C 3,7 °C 3,2 km/h (1 Bft)
28.12.2020 18:02 23,1 °C 3,7 °C 45 % 81 % 982,3 hPa 0,2 l/m² 0,1 km/h (0 Bft) O 90 ° 0 min 0 W/m² 0,7 °C 3,7 °C 1,6 km/h (1 Bft)
28.12.2020 18:03 23,1 °C 3,6 °C 45 % 81 % 982,3 hPa 0,0 l/m² 0,2 km/h (0 Bft) O 90 ° 0 min 0 W/m² 0,7 °C 3,6 °C 1,6 km/h (1 Bft)
28.12.2020 18:04 23,1 °C 3,6 °C 45 % 81 % 982,2 hPa 0,0 l/m² 2,4 km/h (1 Bft) O 90 ° 0 min 0 W/m² 0,7 °C 3,6 °C 4,8 km/h (1 Bft)
28.12.2020 18:06 23,1 °C 3,6 °C 45 % 82 % 982,3 hPa 0,0 l/m² 3,3 km/h (1 Bft) O 90 ° 0 min 0 W/m² 0,8 °C 3,6 °C 4,8 km/h (1 Bft)
28.12.2020 18:08 23,1 °C 3,6 °C 45 % 82 % 982,3 hPa 0,0 l/m² 2,6 km/h (1 Bft) O 90 ° 0 min 0 W/m² 0,8 °C 3,6 °C 4,8 km/h (1 Bft)
28.12.2020 18:10 23,1 °C 3,6 °C 45 % 82 % 982,4 hPa 0,0 l/m² 4,2 km/h (1 Bft) O 79 ° 0 min 0 W/m² 0,8 °C 3,6 °C 6,4 km/h (2 Bft)
28.12.2020 18:11 23,1 °C 3,5 °C 45 % 82 % 982,4 hPa 0,0 l/m² 5,7 km/h (2 Bft) O 79 ° 0 min 0 W/m² 0,7 °C 3,5 °C 8,0 km/h (2 Bft)
28.12.2020 18:12 23,1 °C 3,5 °C 45 % 83 % 982,4 hPa 0,0 l/m² 5,8 km/h (2 Bft) O-NO 67 ° 0 min 0 W/m² 0,9 °C 3,5 °C 6,4 km/h (2 Bft)
28.12.2020 18:13 23,1 °C 3,4 °C 45 % 83 % 982,4 hPa 0,0 l/m² 7,0 km/h (2 Bft) O-NO 77 ° 0 min 0 W/m² 0,8 °C 2,8 °C 8,0 km/h (2 Bft)
28.12.2020 18:14 23,1 °C 3,4 °C 45 % 84 % 982,4 hPa 0,0 l/m² 9,2 km/h (2 Bft) O 79 ° 0 min 0 W/m² 1,0 °C 0,9 °C 11,3 km/h (2 Bft)
28.12.2020 18:16 23,1 °C 3,2 °C 46 % 84 % 982,5 hPa 0,0 l/m² 13,6 km/h (3 Bft) O 88 ° 0 min 0 W/m² 0,8 °C -2,3 °C 17,7 km/h (3 Bft)
28.12.2020 18:18 23,1 °C 3,2 °C 46 % 85 % 982,6 hPa 0,0 l/m² 13,6 km/h (3 Bft) O-NO 78 ° 0 min 0 W/m² 0,9 °C -2,3 °C 17,7 km/h (3 Bft)
28.12.2020 18:20 23,1 °C 3,1 °C 46 % 85 % 982,6 hPa 0,0 l/m² 12,8 km/h (3 Bft) O-NO 74 ° 0 min 0 W/m² 0,8 °C -1,9 °C 16,1 km/h (3 Bft)
28.12.2020 18:21 23,1 °C 3,0 °C 45 % 85 % 982,6 hPa 0,0 l/m² 11,6 km/h (2 Bft) O-NO 73 ° 0 min 0 W/m² 0,7 °C -1,3 °C 14,5 km/h (3 Bft)
28.12.2020 18:22 23,1 °C 3,0 °C 45 % 85 % 982,6 hPa 0,0 l/m² 9,2 km/h (2 Bft) O-NO 69 ° 0 min 0 W/m² 0,7 °C 0,5 °C 14,5 km/h (3 Bft)
28.12.2020 18:23 23,0 °C 2,9 °C 45 % 85 % 982,6 hPa 0,0 l/m² 10,3 km/h (2 Bft) O 80 ° 0 min 0 W/m² 0,6 °C -0,5 °C 16,1 km/h (3 Bft)
28.12.2020 18:24 23,1 °C 3,0 °C 45 % 85 % 982,5 hPa 0,0 l/m² 10,9 km/h (2 Bft) O 88 ° 0 min 0 W/m² 0,7 °C -0,8 °C 12,9 km/h (3 Bft)
28.12.2020 18:26 23,0 °C 2,9 °C 45 % 85 % 982,7 hPa 0,0 l/m² 10,1 km/h (2 Bft) O 81 ° 0 min 0 W/m² 0,6 °C -0,3 °C 16,1 km/h (3 Bft)
28.12.2020 18:28 23,1 °C 2,9 °C 46 % 85 % 982,7 hPa 0,0 l/m² 9,4 km/h (2 Bft) O 80 ° 0 min 0 W/m² 0,6 °C 0,2 °C 14,5 km/h (3 Bft)
28.12.2020 18:30 23,0 °C 2,9 °C 46 % 85 % 982,6 hPa 0,2 l/m² 9,2 km/h (2 Bft) O-NO 69 ° 0 min 0 W/m² 0,6 °C 0,4 °C 14,5 km/h (3 Bft)
28.12.2020 18:31 23,0 °C 2,8 °C 46 % 86 % 982,6 hPa 0,0 l/m² 9,7 km/h (2 Bft) O-NO 67 ° 0 min 0 W/m² 0,7 °C -0,1 °C 14,5 km/h (3 Bft)
28.12.2020 18:32 23,0 °C 2,8 °C 46 % 86 % 982,6 hPa 0,0 l/m² 5,9 km/h (2 Bft) O-NO 74 ° 0 min 0 W/m² 0,7 °C 2,8 °C 8,0 km/h (2 Bft)
28.12.2020 18:33 23,0 °C 2,8 °C 46 % 86 % 982,6 hPa 0,0 l/m² 6,2 km/h (2 Bft) O 84 ° 0 min 0 W/m² 0,7 °C 2,8 °C 8,0 km/h (2 Bft)
28.12.2020 18:34 23,0 °C 2,8 °C 46 % 86 % 982,6 hPa 0,0 l/m² 7,2 km/h (2 Bft) O 82 ° 0 min 0 W/m² 0,7 °C 2,0 °C 11,3 km/h (2 Bft)
28.12.2020 18:36 23,0 °C 2,8 °C 46 % 86 % 982,6 hPa 0,0 l/m² 7,5 km/h (2 Bft) O-NO 72 ° 0 min 0 W/m² 0,7 °C 1,8 °C 14,5 km/h (3 Bft)
28.12.2020 18:38 23,0 °C 2,8 °C 46 % 86 % 982,5 hPa 0,0 l/m² 8,4 km/h (2 Bft) NO 55 ° 0 min 0 W/m² 0,7 °C 0,9 °C 12,9 km/h (3 Bft)
28.12.2020 18:40 23,0 °C 2,8 °C 46 % 86 % 982,5 hPa 0,0 l/m² 8,2 km/h (2 Bft) O-NO 75 ° 0 min 0 W/m² 0,7 °C 1,1 °C 12,9 km/h (3 Bft)
28.12.2020 18:41 23,0 °C 2,7 °C 46 % 86 % 982,6 hPa 0,0 l/m² 7,4 km/h (2 Bft) O-NO 76 ° 0 min 0 W/m² 0,6 °C 1,7 °C 12,9 km/h (3 Bft)
28.12.2020 18:42 23,0 °C 2,8 °C 46 % 86 % 982,6 hPa 0,0 l/m² 7,7 km/h (2 Bft) O-NO 67 ° 0 min 0 W/m² 0,7 °C 1,6 °C 11,3 km/h (2 Bft)
28.12.2020 18:43 23,0 °C 2,8 °C 46 % 86 % 982,6 hPa 0,0 l/m² 6,9 km/h (2 Bft) O 80 ° 0 min 0 W/m² 0,7 °C 2,3 °C 11,3 km/h (2 Bft)
28.12.2020 18:46 23,0 °C 2,7 °C 46 % 86 % 982,6 hPa 0,0 l/m² 6,7 km/h (2 Bft) O-NO 76 ° 0 min 0 W/m² 0,6 °C 2,4 °C 12,9 km/h (3 Bft)
28.12.2020 18:48 22,9 °C 2,7 °C 46 % 86 % 982,5 hPa 0,0 l/m² 6,8 km/h (2 Bft) O-NO 73 ° 0 min 0 W/m² 0,6 °C 2,3 °C 8,0 km/h (2 Bft)
28.12.2020 18:50 22,9 °C 2,7 °C 46 % 87 % 982,6 hPa 0,0 l/m² 6,5 km/h (2 Bft) O-NO 64 ° 0 min 0 W/m² 0,8 °C 2,6 °C 8,0 km/h (2 Bft)
28.12.2020 18:51 22,9 °C 2,7 °C 47 % 87 % 982,5 hPa 0,0 l/m² 6,5 km/h (2 Bft) O-NO 59 ° 0 min 0 W/m² 0,8 °C 2,6 °C 8,0 km/h (2 Bft)
28.12.2020 18:52 23,0 °C 2,6 °C 47 % 87 % 982,4 hPa 0,0 l/m² 7,2 km/h (2 Bft) O-NO 64 ° 0 min 0 W/m² 0,7 °C 1,8 °C 9,7 km/h (2 Bft)
28.12.2020 18:53 22,9 °C 2,7 °C 47 % 87 % 982,5 hPa 0,0 l/m² 7,0 km/h (2 Bft) O-NO 67 ° 0 min 0 W/m² 0,8 °C 2,1 °C 11,3 km/h (2 Bft)
28.12.2020 18:54 22,9 °C 2,6 °C 47 % 87 % 982,5 hPa 0,0 l/m² 6,8 km/h (2 Bft) O 85 ° 0 min 0 W/m² 0,7 °C 2,2 °C 11,3 km/h (2 Bft)
28.12.2020 18:55 22,9 °C 2,6 °C 47 % 87 % 982,5 hPa 0,0 l/m² 8,4 km/h (2 Bft) O 80 ° 0 min 0 W/m² 0,7 °C 0,7 °C 11,3 km/h (2 Bft)
28.12.2020 18:57 23,0 °C 2,6 °C 47 % 87 % 982,6 hPa 0,0 l/m² 9,4 km/h (2 Bft) O-NO 70 ° 0 min 0 W/m² 0,7 °C -0,1 °C 12,9 km/h (3 Bft)
28.12.2020 18:59 23,0 °C 2,6 °C 47 % 87 % 982,6 hPa 0,0 l/m² 6,3 km/h (2 Bft) O 81 ° 0 min 0 W/m² 0,7 °C 2,6 °C 11,3 km/h (2 Bft)
28.12.2020 19:00 22,9 °C 2,6 °C 47 % 87 % 982,6 hPa 0,0 l/m² 5,0 km/h (1 Bft) O 81 ° 0 min 0 W/m² 0,7 °C 2,6 °C 6,4 km/h (2 Bft)
28.12.2020 19:01 22,9 °C 2,6 °C 47 % 87 % 982,6 hPa 0,0 l/m² 5,5 km/h (2 Bft) O 84 ° 0 min 0 W/m² 0,7 °C 2,6 °C 8,0 km/h (2 Bft)
28.12.2020 19:02 22,9 °C 2,6 °C 47 % 87 % 982,6 hPa 0,0 l/m² 5,4 km/h (2 Bft) O 82 ° 0 min 0 W/m² 0,7 °C 2,6 °C 8,0 km/h (2 Bft)
28.12.2020 19:03 22,9 °C 2,5 °C 47 % 87 % 982,6 hPa 0,0 l/m² 5,8 km/h (2 Bft) O 81 ° 0 min 0 W/m² 0,6 °C 2,5 °C 8,0 km/h (2 Bft)
28.12.2020 19:05 22,9 °C 2,5 °C 47 % 87 % 982,6 hPa 0,0 l/m² 4,1 km/h (1 Bft) O 81 ° 0 min 0 W/m² 0,6 °C 2,5 °C 6,4 km/h (2 Bft)
28.12.2020 19:07 22,9 °C 2,5 °C 47 % 88 % 982,6 hPa 0,0 l/m² 4,3 km/h (1 Bft) O 81 ° 0 min 0 W/m² 0,7 °C 2,5 °C 6,4 km/h (2 Bft)
28.12.2020 19:09 23,0 °C 2,4 °C 47 % 88 % 982,6 hPa 0,2 l/m² 4,4 km/h (1 Bft) O 81 ° 0 min 0 W/m² 0,6 °C 2,4 °C 6,4 km/h (2 Bft)
28.12.2020 19:10 23,0 °C 2,4 °C 47 % 87 % 982,7 hPa 0,0 l/m² 4,9 km/h (1 Bft) O 82 ° 0 min 0 W/m² 0,5 °C 2,4 °C 6,4 km/h (2 Bft)
28.12.2020 19:11 23,0 °C 2,4 °C 47 % 87 % 982,7 hPa 0,0 l/m² 4,6 km/h (1 Bft) O-NO 76 ° 0 min 0 W/m² 0,5 °C 2,4 °C 6,4 km/h (2 Bft)
28.12.2020 19:12 23,0 °C 2,4 °C 47 % 88 % 982,7 hPa 0,0 l/m² 3,8 km/h (1 Bft) O-NO 76 ° 0 min 0 W/m² 0,6 °C 2,4 °C 4,8 km/h (1 Bft)
28.12.2020 19:13 22,9 °C 2,4 °C 47 % 88 % 982,6 hPa 0,0 l/m² 3,5 km/h (1 Bft) O-NO 76 ° 0 min 0 W/m² 0,6 °C 2,4 °C 4,8 km/h (1 Bft)
28.12.2020 19:15 23,0 °C 2,4 °C 47 % 88 % 982,5 hPa 0,0 l/m² 2,9 km/h (1 Bft) O-NO 76 ° 0 min 0 W/m² 0,6 °C 2,4 °C 4,8 km/h (1 Bft)
28.12.2020 19:17 22,9 °C 2,4 °C 48 % 88 % 982,5 hPa 0,0 l/m² 0,9 km/h (0 Bft) O-NO 76 ° 0 min 0 W/m² 0,6 °C 2,4 °C 1,6 km/h (1 Bft)
28.12.2020 19:19 23,0 °C 2,4 °C 48 % 88 % 982,7 hPa 0,0 l/m² 1,9 km/h (1 Bft) O-NO 76 ° 0 min 0 W/m² 0,6 °C 2,4 °C 4,8 km/h (1 Bft)
28.12.2020 19:20 22,9 °C 2,4 °C 48 % 88 % 982,6 hPa 0,0 l/m² 0,9 km/h (0 Bft) O-NO 76 ° 0 min 0 W/m² 0,6 °C 2,4 °C 1,6 km/h (1 Bft)
28.12.2020 19:21 22,9 °C 2,4 °C 48 % 88 % 982,6 hPa 0,0 l/m² 0,3 km/h (0 Bft) O-NO 76 ° 0 min 0 W/m² 0,6 °C 2,4 °C 1,6 km/h (1 Bft)
28.12.2020 19:22 22,9 °C 2,4 °C 48 % 88 % 982,6 hPa 0,0 l/m² 1,3 km/h (1 Bft) O-NO 76 ° 0 min 0 W/m² 0,6 °C 2,4 °C 3,2 km/h (1 Bft)
28.12.2020 19:23 23,0 °C 2,4 °C 48 % 88 % 982,7 hPa 0,0 l/m² 1,6 km/h (1 Bft) O-NO 76 ° 0 min 0 W/m² 0,6 °C 2,4 °C 3,2 km/h (1 Bft)
28.12.2020 19:25 22,9 °C 2,4 °C 48 % 88 % 982,5 hPa 0,0 l/m² 0,4 km/h (0 Bft) O-NO 76 ° 0 min 0 W/m² 0,6 °C 2,4 °C 1,6 km/h (1 Bft)
28.12.2020 19:27 23,0 °C 2,4 °C 48 % 88 % 982,6 hPa 0,0 l/m² 1,1 km/h (1 Bft) O-NO 76 ° 0 min 0 W/m² 0,6 °C 2,4 °C 3,2 km/h (1 Bft)
28.12.2020 19:29 23,0 °C 2,4 °C 48 % 88 % 982,7 hPa 0,0 l/m² 0,4 km/h (0 Bft) O-NO 76 ° 0 min 0 W/m² 0,6 °C 2,4 °C 3,2 km/h (1 Bft)
28.12.2020 19:30 23,0 °C 2,4 °C 48 % 88 % 982,6 hPa 0,0 l/m² 0,9 km/h (0 Bft) O-NO 76 ° 0 min 0 W/m² 0,6 °C 2,4 °C 3,2 km/h (1 Bft)
28.12.2020 19:31 23,0 °C 2,4 °C 48 % 88 % 982,6 hPa 0,0 l/m² 2,9 km/h (1 Bft) O-NO 76 ° 0 min 0 W/m² 0,6 °C 2,4 °C 3,2 km/h (1 Bft)
28.12.2020 19:32 23,0 °C 2,4 °C 48 % 88 % 982,6 hPa 0,0 l/m² 1,3 km/h (1 Bft) O-NO 76 ° 0 min 0 W/m² 0,6 °C 2,4 °C 3,2 km/h (1 Bft)
28.12.2020 19:33 23,0 °C 2,4 °C 48 % 88 % 982,6 hPa 0,0 l/m² 0,8 km/h (0 Bft) O-NO 76 ° 0 min 0 W/m² 0,6 °C 2,4 °C 1,6 km/h (1 Bft)
28.12.2020 19:35 23,0 °C 2,4 °C 48 % 88 % 982,5 hPa 0,0 l/m² 0,2 km/h (0 Bft) O-NO 76 ° 0 min 0 W/m² 0,6 °C 2,4 °C 1,6 km/h (1 Bft)
28.12.2020 19:37 23,0 °C 2,4 °C 48 % 88 % 982,5 hPa 0,0 l/m² 0,4 km/h (0 Bft) O-NO 76 ° 0 min 0 W/m² 0,6 °C 2,4 °C 1,6 km/h (1 Bft)
28.12.2020 19:39 23,0 °C 2,3 °C 48 % 88 % 982,6 hPa 0,0 l/m² 0,9 km/h (0 Bft) O-NO 76 ° 0 min 0 W/m² 0,5 °C 2,3 °C 1,6 km/h (1 Bft)
28.12.2020 19:40 23,0 °C 2,3 °C 49 % 88 % 982,6 hPa 0,0 l/m² 1,2 km/h (1 Bft) O-NO 76 ° 0 min 0 W/m² 0,5 °C 2,3 °C 1,6 km/h (1 Bft)
28.12.2020 19:41 23,0 °C 2,3 °C 49 % 88 % 982,6 hPa 0,0 l/m² 1,5 km/h (1 Bft) O-NO 76 ° 0 min 0 W/m² 0,5 °C 2,3 °C 3,2 km/h (1 Bft)
28.12.2020 19:42 23,0 °C 2,3 °C 49 % 88 % 982,6 hPa 0,0 l/m² 1,3 km/h (1 Bft) O-NO 76 ° 0 min 0 W/m² 0,5 °C 2,3 °C 3,2 km/h (1 Bft)
28.12.2020 19:43 23,0 °C 2,3 °C 49 % 88 % 982,5 hPa 0,0 l/m² 1,5 km/h (1 Bft) O-NO 76 ° 0 min 0 W/m² 0,5 °C 2,3 °C 1,6 km/h (1 Bft)
28.12.2020 19:45 23,0 °C 2,3 °C 49 % 88 % 982,7 hPa 0,0 l/m² 1,7 km/h (1 Bft) O-NO 76 ° 0 min 0 W/m² 0,5 °C 2,3 °C 3,2 km/h (1 Bft)
28.12.2020 19:47 23,1 °C 2,3 °C 49 % 88 % 982,6 hPa 0,0 l/m² 1,9 km/h (1 Bft) O-NO 76 ° 0 min 0 W/m² 0,5 °C 2,3 °C 3,2 km/h (1 Bft)
28.12.2020 19:49 23,0 °C 2,3 °C 49 % 88 % 982,6 hPa 0,0 l/m² 2,4 km/h (1 Bft) O-NO 76 ° 0 min 0 W/m² 0,5 °C 2,3 °C 3,2 km/h (1 Bft)
28.12.2020 19:50 23,0 °C 2,3 °C 49 % 88 % 982,6 hPa 0,0 l/m² 2,8 km/h (1 Bft) O-NO 76 ° 0 min 0 W/m² 0,5 °C 2,3 °C 3,2 km/h (1 Bft)
28.12.2020 19:51 23,0 °C 2,3 °C 49 % 88 % 982,6 hPa 0,0 l/m² 3,2 km/h (1 Bft) O-NO 76 ° 0 min 0 W/m² 0,5 °C 2,3 °C 3,2 km/h (1 Bft)
28.12.2020 19:52 23,1 °C 2,3 °C 49 % 88 % 982,6 hPa 0,0 l/m² 3,3 km/h (1 Bft) O-NO 76 ° 0 min 0 W/m² 0,5 °C 2,3 °C 4,8 km/h (1 Bft)
28.12.2020 19:53 23,0 °C 2,3 °C 49 % 88 % 982,5 hPa 0,0 l/m² 3,4 km/h (1 Bft) O-NO 76 ° 0 min 0 W/m² 0,5 °C 2,3 °C 4,8 km/h (1 Bft)
28.12.2020 19:55 23,1 °C 2,3 °C 49 % 88 % 982,5 hPa 0,0 l/m² 2,7 km/h (1 Bft) O-NO 76 ° 0 min 0 W/m² 0,5 °C 2,3 °C 3,2 km/h (1 Bft)
28.12.2020 19:57 23,0 °C 2,2 °C 49 % 88 % 982,5 hPa 0,0 l/m² 3,3 km/h (1 Bft) O-NO 76 ° 0 min 0 W/m² 0,4 °C 2,2 °C 4,8 km/h (1 Bft)
28.12.2020 19:59 23,0 °C 2,2 °C 49 % 88 % 982,6 hPa 0,0 l/m² 3,7 km/h (1 Bft) O-NO 76 ° 0 min 0 W/m² 0,4 °C 2,2 °C 4,8 km/h (1 Bft)
28.12.2020 20:00 23,1 °C 2,2 °C 49 % 88 % 982,6 hPa 0,0 l/m² 4,2 km/h (1 Bft) O-NO 76 ° 0 min 0 W/m² 0,4 °C 2,2 °C 4,8 km/h (1 Bft)
28.12.2020 20:01 23,1 °C 2,2 °C 49 % 89 % 982,6 hPa 0,0 l/m² 4,7 km/h (1 Bft) O-NO 76 ° 0 min 0 W/m² 0,6 °C 2,2 °C 4,8 km/h (1 Bft)
28.12.2020 20:02 23,1 °C 2,2 °C 49 % 89 % 982,6 hPa 0,0 l/m² 5,4 km/h (2 Bft) O-NO 76 ° 0 min 0 W/m² 0,6 °C 2,2 °C 6,4 km/h (2 Bft)
28.12.2020 20:03 23,0 °C 2,2 °C 49 % 89 % 982,6 hPa 0,0 l/m² 5,0 km/h (1 Bft) O-NO 76 ° 0 min 0 W/m² 0,6 °C 2,2 °C 6,4 km/h (2 Bft)
28.12.2020 20:05 23,1 °C 2,2 °C 49 % 89 % 982,7 hPa 0,0 l/m² 5,3 km/h (1 Bft) O-NO 76 ° 0 min 0 W/m² 0,6 °C 2,2 °C 6,4 km/h (2 Bft)
28.12.2020 20:07 23,1 °C 2,2 °C 49 % 89 % 982,7 hPa 0,0 l/m² 5,2 km/h (1 Bft) O-NO 76 ° 0 min 0 W/m² 0,6 °C 2,2 °C 6,4 km/h (2 Bft)
28.12.2020 20:09 23,1 °C 2,1 °C 49 % 89 % 982,6 hPa 0,0 l/m² 4,7 km/h (1 Bft) O-NO 76 ° 0 min 0 W/m² 0,5 °C 2,1 °C 6,4 km/h (2 Bft)
28.12.2020 20:10 23,1 °C 2,2 °C 49 % 89 % 982,7 hPa 0,2 l/m² 5,4 km/h (2 Bft) O-NO 76 ° 0 min 0 W/m² 0,6 °C 2,2 °C 6,4 km/h (2 Bft)
28.12.2020 20:11 23,1 °C 2,2 °C 49 % 89 % 982,7 hPa 0,0 l/m² 5,7 km/h (2 Bft) O-NO 76 ° 0 min 0 W/m² 0,6 °C 2,2 °C 6,4 km/h (2 Bft)
28.12.2020 20:12 23,0 °C 2,2 °C 49 % 89 % 982,6 hPa 0,0 l/m² 4,7 km/h (1 Bft) O-NO 78 ° 0 min 0 W/m² 0,6 °C 2,2 °C 6,4 km/h (2 Bft)
28.12.2020 20:13 23,1 °C 2,1 °C 49 % 89 % 982,7 hPa 0,0 l/m² 4,8 km/h (1 Bft) O-NO 78 ° 0 min 0 W/m² 0,5 °C 2,1 °C 6,4 km/h (2 Bft)
28.12.2020 20:15 23,0 °C 2,1 °C 49 % 89 % 982,7 hPa 0,0 l/m² 4,6 km/h (1 Bft) O-NO 78 ° 0 min 0 W/m² 0,5 °C 2,1 °C 6,4 km/h (2 Bft)
28.12.2020 20:17 23,0 °C 2,1 °C 49 % 89 % 982,6 hPa 0,0 l/m² 5,2 km/h (1 Bft) O-NO 76 ° 0 min 0 W/m² 0,5 °C 2,1 °C 8,0 km/h (2 Bft)
28.12.2020 20:19 23,0 °C 2,1 °C 49 % 89 % 982,5 hPa 0,0 l/m² 5,1 km/h (1 Bft) O-NO 70 ° 0 min 0 W/m² 0,5 °C 2,1 °C 8,0 km/h (2 Bft)
28.12.2020 20:20 23,1 °C 2,1 °C 49 % 89 % 982,5 hPa 0,0 l/m² 4,8 km/h (1 Bft) O-NO 70 ° 0 min 0 W/m² 0,5 °C 2,1 °C 6,4 km/h (2 Bft)
28.12.2020 20:21 23,1 °C 2,1 °C 49 % 89 % 982,5 hPa 0,0 l/m² 4,9 km/h (1 Bft) O-NO 78 ° 0 min 0 W/m² 0,5 °C 2,1 °C 6,4 km/h (2 Bft)
28.12.2020 20:22 23,1 °C 2,1 °C 48 % 89 % 982,6 hPa 0,0 l/m² 6,2 km/h (2 Bft) O-NO 71 ° 0 min 0 W/m² 0,5 °C 2,1 °C 8,0 km/h (2 Bft)
28.12.2020 20:23 23,1 °C 2,1 °C 48 % 89 % 982,5 hPa 0,0 l/m² 3,8 km/h (1 Bft) O-NO 71 ° 0 min 0 W/m² 0,5 °C 2,1 °C 4,8 km/h (1 Bft)
28.12.2020 20:25 23,0 °C 2,1 °C 47 % 89 % 982,5 hPa 0,0 l/m² 5,1 km/h (1 Bft) O-NO 78 ° 0 min 0 W/m² 0,5 °C 2,1 °C 8,0 km/h (2 Bft)
28.12.2020 20:27 23,0 °C 2,0 °C 47 % 89 % 982,6 hPa 0,0 l/m² 5,5 km/h (2 Bft) O-NO 78 ° 0 min 0 W/m² 0,4 °C 2,0 °C 6,4 km/h (2 Bft)
28.12.2020 20:29 23,0 °C 2,0 °C 47 % 89 % 982,6 hPa 0,0 l/m² 6,5 km/h (2 Bft) O 79 ° 0 min 0 W/m² 0,4 °C 1,9 °C 8,0 km/h (2 Bft)
28.12.2020 20:30 23,0 °C 1,9 °C 47 % 89 % 982,6 hPa 0,0 l/m² 6,2 km/h (2 Bft) O 80 ° 0 min 0 W/m² 0,3 °C 1,9 °C 8,0 km/h (2 Bft)
28.12.2020 20:31 23,0 °C 2,0 °C 47 % 89 % 982,6 hPa 0,0 l/m² 5,0 km/h (1 Bft) O-NO 72 ° 0 min 0 W/m² 0,4 °C 2,0 °C 6,4 km/h (2 Bft)
28.12.2020 20:32 23,0 °C 1,9 °C 47 % 89 % 982,6 hPa 0,0 l/m² 4,6 km/h (1 Bft) O-NO 76 ° 0 min 0 W/m² 0,3 °C 1,9 °C 6,4 km/h (2 Bft)
28.12.2020 20:33 22,9 °C 1,9 °C 47 % 89 % 982,6 hPa 0,0 l/m² 4,8 km/h (1 Bft) O-NO 76 ° 0 min 0 W/m² 0,3 °C 1,9 °C 6,4 km/h (2 Bft)
28.12.2020 20:35 22,9 °C 1,9 °C 46 % 89 % 982,6 hPa 0,0 l/m² 4,7 km/h (1 Bft) O 79 ° 0 min 0 W/m² 0,3 °C 1,9 °C 8,0 km/h (2 Bft)
28.12.2020 20:37 22,9 °C 1,9 °C 46 % 89 % 982,6 hPa 0,0 l/m² 5,2 km/h (1 Bft) O-NO 67 ° 0 min 0 W/m² 0,3 °C 1,9 °C 8,0 km/h (2 Bft)
28.12.2020 20:39 22,9 °C 1,9 °C 46 % 89 % 982,5 hPa 0,2 l/m² 5,0 km/h (1 Bft) O 80 ° 0 min 0 W/m² 0,3 °C 1,9 °C 6,4 km/h (2 Bft)
28.12.2020 20:40 22,9 °C 1,9 °C 46 % 89 % 982,6 hPa 0,0 l/m² 5,3 km/h (1 Bft) O 82 ° 0 min 0 W/m² 0,3 °C 1,9 °C 8,0 km/h (2 Bft)
28.12.2020 20:41 22,9 °C 1,9 °C 46 % 89 % 982,6 hPa 0,0 l/m² 6,8 km/h (2 Bft) O 83 ° 0 min 0 W/m² 0,3 °C 1,5 °C 8,0 km/h (2 Bft)
28.12.2020 20:42 22,9 °C 1,9 °C 46 % 89 % 982,6 hPa 0,0 l/m² 6,6 km/h (2 Bft) O 80 ° 0 min 0 W/m² 0,3 °C 1,7 °C 8,0 km/h (2 Bft)
28.12.2020 20:43 22,9 °C 1,9 °C 46 % 89 % 982,6 hPa 0,0 l/m² 6,2 km/h (2 Bft) O 80 ° 0 min 0 W/m² 0,3 °C 1,9 °C 8,0 km/h (2 Bft)
28.12.2020 20:45 22,9 °C 1,9 °C 46 % 89 % 982,6 hPa 0,0 l/m² 5,3 km/h (1 Bft) O 80 ° 0 min 0 W/m² 0,3 °C 1,9 °C 8,0 km/h (2 Bft)
28.12.2020 20:47 22,9 °C 1,8 °C 46 % 89 % 982,6 hPa 0,0 l/m² 6,1 km/h (2 Bft) O 88 ° 0 min 0 W/m² 0,2 °C 1,8 °C 8,0 km/h (2 Bft)
28.12.2020 20:49 22,9 °C 1,8 °C 46 % 90 % 982,5 hPa 0,0 l/m² 5,7 km/h (2 Bft) O 84 ° 0 min 0 W/m² 0,3 °C 1,8 °C 8,0 km/h (2 Bft)
28.12.2020 20:50 22,9 °C 1,8 °C 46 % 90 % 982,6 hPa 0,0 l/m² 5,0 km/h (1 Bft) O 84 ° 0 min 0 W/m² 0,3 °C 1,8 °C 6,4 km/h (2 Bft)
28.12.2020 20:51 22,9 °C 1,8 °C 46 % 90 % 982,6 hPa 0,0 l/m² 5,0 km/h (1 Bft) O 84 ° 0 min 0 W/m² 0,3 °C 1,8 °C 6,4 km/h (2 Bft)
28.12.2020 20:52 22,9 °C 1,8 °C 46 % 90 % 982,6 hPa 0,0 l/m² 5,4 km/h (2 Bft) O 84 ° 0 min 0 W/m² 0,3 °C 1,8 °C 6,4 km/h (2 Bft)
28.12.2020 20:53 22,9 °C 1,8 °C 46 % 90 % 982,5 hPa 0,0 l/m² 4,6 km/h (1 Bft) O 84 ° 0 min 0 W/m² 0,3 °C 1,8 °C 6,4 km/h (2 Bft)
28.12.2020 20:55 22,9 °C 1,8 °C 46 % 90 % 982,5 hPa 0,0 l/m² 4,9 km/h (1 Bft) O 84 ° 0 min 0 W/m² 0,3 °C 1,8 °C 6,4 km/h (2 Bft)
28.12.2020 20:57 22,9 °C 1,8 °C 46 % 90 % 982,5 hPa 0,0 l/m² 5,0 km/h (1 Bft) O 84 ° 0 min 0 W/m² 0,3 °C 1,8 °C 6,4 km/h (2 Bft)
28.12.2020 20:59 22,9 °C 1,8 °C 46 % 90 % 982,5 hPa 0,0 l/m² 4,7 km/h (1 Bft) O 84 ° 0 min 0 W/m² 0,3 °C 1,8 °C 6,4 km/h (2 Bft)
28.12.2020 21:00 22,9 °C 1,7 °C 46 % 90 % 982,4 hPa 0,0 l/m² 5,2 km/h (1 Bft) O 84 ° 0 min 0 W/m² 0,2 °C 1,7 °C 6,4 km/h (2 Bft)
28.12.2020 21:01 22,9 °C 1,8 °C 46 % 90 % 982,4 hPa 0,0 l/m² 5,2 km/h (1 Bft) O 84 ° 0 min 0 W/m² 0,3 °C 1,8 °C 6,4 km/h (2 Bft)
28.12.2020 21:02 22,9 °C 1,8 °C 46 % 90 % 982,4 hPa 0,0 l/m² 6,1 km/h (2 Bft) O 86 ° 0 min 0 W/m² 0,3 °C 1,8 °C 6,4 km/h (2 Bft)
28.12.2020 21:03 22,9 °C 1,8 °C 46 % 90 % 982,5 hPa 0,0 l/m² 5,8 km/h (2 Bft) O 86 ° 0 min 0 W/m² 0,3 °C 1,8 °C 6,4 km/h (2 Bft)
28.12.2020 21:05 22,9 °C 1,8 °C 46 % 90 % 982,4 hPa 0,0 l/m² 5,3 km/h (1 Bft) O 86 ° 0 min 0 W/m² 0,3 °C 1,8 °C 6,4 km/h (2 Bft)
28.12.2020 21:07 22,9 °C 1,7 °C 46 % 90 % 982,4 hPa 0,0 l/m² 4,3 km/h (1 Bft) O 86 ° 0 min 0 W/m² 0,2 °C 1,7 °C 6,4 km/h (2 Bft)
28.12.2020 21:09 22,9 °C 1,7 °C 46 % 90 % 982,4 hPa 0,0 l/m² 5,4 km/h (2 Bft) O 91 ° 0 min 0 W/m² 0,2 °C 1,7 °C 9,7 km/h (2 Bft)
28.12.2020 21:10 22,9 °C 1,7 °C 47 % 90 % 982,5 hPa 0,0 l/m² 3,9 km/h (1 Bft) O 91 ° 0 min 0 W/m² 0,2 °C 1,7 °C 4,8 km/h (1 Bft)
28.12.2020 21:11 22,9 °C 1,7 °C 47 % 90 % 982,5 hPa 0,0 l/m² 3,5 km/h (1 Bft) O 91 ° 0 min 0 W/m² 0,2 °C 1,7 °C 4,8 km/h (1 Bft)
28.12.2020 21:12 22,8 °C 1,7 °C 47 % 90 % 982,4 hPa 0,0 l/m² 4,7 km/h (1 Bft) O 92 ° 0 min 0 W/m² 0,2 °C 1,7 °C 6,4 km/h (2 Bft)
28.12.2020 21:13 22,9 °C 1,7 °C 47 % 90 % 982,4 hPa 0,0 l/m² 4,2 km/h (1 Bft) O 97 ° 0 min 0 W/m² 0,2 °C 1,7 °C 6,4 km/h (2 Bft)
28.12.2020 21:15 22,9 °C 1,7 °C 47 % 90 % 982,4 hPa 0,0 l/m² 4,3 km/h (1 Bft) O 85 ° 0 min 0 W/m² 0,2 °C 1,7 °C 6,4 km/h (2 Bft)
28.12.2020 21:17 22,9 °C 1,8 °C 47 % 90 % 982,3 hPa 0,0 l/m² 4,5 km/h (1 Bft) O 90 ° 0 min 0 W/m² 0,3 °C 1,8 °C 6,4 km/h (2 Bft)
28.12.2020 21:19 22,9 °C 1,8 °C 47 % 90 % 982,2 hPa 0,0 l/m² 4,3 km/h (1 Bft) O 90 ° 0 min 0 W/m² 0,3 °C 1,8 °C 6,4 km/h (2 Bft)
28.12.2020 21:20 22,9 °C 1,7 °C 47 % 90 % 982,2 hPa 0,0 l/m² 3,0 km/h (1 Bft) O 90 ° 0 min 0 W/m² 0,2 °C 1,7 °C 4,8 km/h (1 Bft)
28.12.2020 21:21 22,9 °C 1,8 °C 47 % 90 % 982,2 hPa 0,0 l/m² 3,5 km/h (1 Bft) O 90 ° 0 min 0 W/m² 0,3 °C 1,8 °C 4,8 km/h (1 Bft)
28.12.2020 21:22 22,9 °C 1,8 °C 47 % 90 % 982,2 hPa 0,0 l/m² 4,0 km/h (1 Bft) O 90 ° 0 min 0 W/m² 0,3 °C 1,8 °C 4,8 km/h (1 Bft)
28.12.2020 21:23 22,9 °C 1,8 °C 47 % 90 % 982,3 hPa 0,0 l/m² 4,4 km/h (1 Bft) O 90 ° 0 min 0 W/m² 0,3 °C 1,8 °C 4,8 km/h (1 Bft)
28.12.2020 21:25 22,9 °C 1,8 °C 47 % 90 % 982,2 hPa 0,0 l/m² 4,3 km/h (1 Bft) O 90 ° 0 min 0 W/m² 0,3 °C 1,8 °C 4,8 km/h (1 Bft)
28.12.2020 21:27 22,9 °C 1,8 °C 47 % 90 % 982,3 hPa 0,0 l/m² 4,2 km/h (1 Bft) O 90 ° 0 min 0 W/m² 0,3 °C 1,8 °C 4,8 km/h (1 Bft)
28.12.2020 21:29 22,9 °C 1,8 °C 47 % 90 % 982,2 hPa 0,0 l/m² 4,7 km/h (1 Bft) O 90 ° 0 min 0 W/m² 0,3 °C 1,8 °C 6,4 km/h (2 Bft)
28.12.2020 21:30 22,9 °C 1,8 °C 47 % 90 % 982,2 hPa 0,0 l/m² 4,8 km/h (1 Bft) O 90 ° 0 min 0 W/m² 0,3 °C 1,8 °C 4,8 km/h (1 Bft)
28.12.2020 21:31 22,9 °C 1,7 °C 47 % 90 % 982,2 hPa 0,0 l/m² 4,4 km/h (1 Bft) O 90 ° 0 min 0 W/m² 0,2 °C 1,7 °C 4,8 km/h (1 Bft)
28.12.2020 21:32 22,9 °C 1,7 °C 47 % 91 % 982,2 hPa 0,0 l/m² 3,8 km/h (1 Bft) O 90 ° 0 min 0 W/m² 0,4 °C 1,7 °C 4,8 km/h (1 Bft)
28.12.2020 21:33 22,9 °C 1,8 °C 47 % 91 % 982,2 hPa 0,0 l/m² 4,6 km/h (1 Bft) O 90 ° 0 min 0 W/m² 0,5 °C 1,8 °C 4,8 km/h (1 Bft)
28.12.2020 21:35 22,9 °C 1,8 °C 47 % 91 % 982,2 hPa 0,0 l/m² 4,5 km/h (1 Bft) O 90 ° 0 min 0 W/m² 0,5 °C 1,8 °C 6,4 km/h (2 Bft)
28.12.2020 21:37 22,9 °C 1,7 °C 47 % 91 % 982,1 hPa 0,0 l/m² 4,7 km/h (1 Bft) O 90 ° 0 min 0 W/m² 0,4 °C 1,7 °C 6,4 km/h (2 Bft)
28.12.2020 21:39 22,9 °C 1,8 °C 47 % 91 % 982,2 hPa 0,2 l/m² 4,9 km/h (1 Bft) O 90 ° 0 min 0 W/m² 0,5 °C 1,8 °C 6,4 km/h (2 Bft)
28.12.2020 21:40 22,9 °C 1,8 °C 47 % 91 % 982,2 hPa 0,0 l/m² 5,2 km/h (1 Bft) O 90 ° 0 min 0 W/m² 0,5 °C 1,8 °C 6,4 km/h (2 Bft)
28.12.2020 21:41 22,9 °C 1,7 °C 47 % 91 % 982,2 hPa 0,0 l/m² 4,6 km/h (1 Bft) O 90 ° 0 min 0 W/m² 0,4 °C 1,7 °C 4,8 km/h (1 Bft)
28.12.2020 21:42 22,9 °C 1,7 °C 47 % 91 % 982,2 hPa 0,0 l/m² 5,3 km/h (1 Bft) O 90 ° 0 min 0 W/m² 0,4 °C 1,7 °C 6,4 km/h (2 Bft)
28.12.2020 21:43 22,9 °C 1,7 °C 47 % 91 % 982,1 hPa 0,0 l/m² 4,5 km/h (1 Bft) O 90 ° 0 min 0 W/m² 0,4 °C 1,7 °C 6,4 km/h (2 Bft)
28.12.2020 21:45 22,9 °C 1,7 °C 47 % 91 % 982,1 hPa 0,0 l/m² 4,7 km/h (1 Bft) O 90 ° 0 min 0 W/m² 0,4 °C 1,7 °C 6,4 km/h (2 Bft)
28.12.2020 21:47 23,0 °C 1,7 °C 47 % 91 % 982,2 hPa 0,0 l/m² 4,7 km/h (1 Bft) O 90 ° 0 min 0 W/m² 0,4 °C 1,7 °C 6,4 km/h (2 Bft)
28.12.2020 21:49 23,0 °C 1,7 °C 47 % 91 % 982,1 hPa 0,0 l/m² 4,0 km/h (1 Bft) O 90 ° 0 min 0 W/m² 0,4 °C 1,7 °C 6,4 km/h (2 Bft)
28.12.2020 21:50 23,0 °C 1,7 °C 47 % 91 % 982,2 hPa 0,0 l/m² 3,5 km/h (1 Bft) O 90 ° 0 min 0 W/m² 0,4 °C 1,7 °C 4,8 km/h (1 Bft)
28.12.2020 21:51 23,0 °C 1,8 °C 47 % 91 % 982,2 hPa 0,0 l/m² 3,8 km/h (1 Bft) O 90 ° 0 min 0 W/m² 0,5 °C 1,8 °C 4,8 km/h (1 Bft)
28.12.2020 21:52 22,9 °C 1,7 °C 47 % 91 % 982,2 hPa 0,0 l/m² 4,0 km/h (1 Bft) O 90 ° 0 min 0 W/m² 0,4 °C 1,7 °C 4,8 km/h (1 Bft)
28.12.2020 21:53 23,0 °C 1,7 °C 47 % 91 % 982,2 hPa 0,0 l/m² 3,3 km/h (1 Bft) O 90 ° 0 min 0 W/m² 0,4 °C 1,7 °C 4,8 km/h (1 Bft)
28.12.2020 21:55 23,0 °C 1,7 °C 47 % 91 % 982,2 hPa 0,0 l/m² 3,0 km/h (1 Bft) O 90 ° 0 min 0 W/m² 0,4 °C 1,7 °C 4,8 km/h (1 Bft)
28.12.2020 21:57 23,0 °C 1,8 °C 47 % 91 % 982,3 hPa 0,0 l/m² 2,3 km/h (1 Bft) O 91 ° 0 min 0 W/m² 0,5 °C 1,8 °C 4,8 km/h (1 Bft)
28.12.2020 21:59 23,0 °C 1,8 °C 47 % 91 % 982,3 hPa 0,0 l/m² 2,7 km/h (1 Bft) O 91 ° 0 min 0 W/m² 0,5 °C 1,8 °C 4,8 km/h (1 Bft)
28.12.2020 22:00 23,0 °C 1,8 °C 47 % 91 % 982,3 hPa 0,0 l/m² 3,5 km/h (1 Bft) O 91 ° 0 min 0 W/m² 0,5 °C 1,8 °C 4,8 km/h (1 Bft)
28.12.2020 22:01 23,0 °C 1,8 °C 47 % 91 % 982,3 hPa 0,0 l/m² 4,5 km/h (1 Bft) O 96 ° 0 min 0 W/m² 0,5 °C 1,8 °C 6,4 km/h (2 Bft)
28.12.2020 22:02 23,0 °C 1,8 °C 47 % 91 % 982,4 hPa 0,0 l/m² 4,3 km/h (1 Bft) O-SO 111 ° 0 min 0 W/m² 0,5 °C 1,8 °C 6,4 km/h (2 Bft)
28.12.2020 22:03 23,0 °C 1,8 °C 47 % 91 % 982,3 hPa 0,0 l/m² 5,6 km/h (2 Bft) O-SO 121 ° 0 min 0 W/m² 0,5 °C 1,8 °C 9,7 km/h (2 Bft)
28.12.2020 22:05 23,0 °C 1,8 °C 47 % 91 % 982,4 hPa 0,0 l/m² 5,2 km/h (1 Bft) O-SO 113 ° 0 min 0 W/m² 0,5 °C 1,8 °C 6,4 km/h (2 Bft)
28.12.2020 22:07 23,0 °C 1,8 °C 47 % 91 % 982,4 hPa 0,0 l/m² 4,9 km/h (1 Bft) SO 128 ° 0 min 0 W/m² 0,5 °C 1,8 °C 6,4 km/h (2 Bft)
28.12.2020 22:09 23,0 °C 1,8 °C 47 % 91 % 982,4 hPa 0,0 l/m² 5,3 km/h (1 Bft) O 92 ° 0 min 0 W/m² 0,5 °C 1,8 °C 6,4 km/h (2 Bft)
28.12.2020 22:10 23,1 °C 1,9 °C 47 % 91 % 982,4 hPa 0,0 l/m² 7,7 km/h (2 Bft) SO 128 ° 0 min 0 W/m² 0,6 °C 0,6 °C 11,3 km/h (2 Bft)
28.12.2020 22:11 23,1 °C 1,9 °C 47 % 91 % 982,4 hPa 0,0 l/m² 10,8 km/h (2 Bft) O-SO 120 ° 0 min 0 W/m² 0,6 °C -2,0 °C 14,5 km/h (3 Bft)
28.12.2020 22:12 23,0 °C 1,9 °C 47 % 91 % 982,4 hPa 0,0 l/m² 5,8 km/h (2 Bft) O-SO 115 ° 0 min 0 W/m² 0,6 °C 1,9 °C 9,7 km/h (2 Bft)
28.12.2020 22:13 23,0 °C 1,9 °C 47 % 91 % 982,4 hPa 0,0 l/m² 6,2 km/h (2 Bft) O-SO 122 ° 0 min 0 W/m² 0,6 °C 1,9 °C 8,0 km/h (2 Bft)
28.12.2020 22:15 23,0 °C 1,9 °C 47 % 91 % 982,5 hPa 0,0 l/m² 6,1 km/h (2 Bft) SO 126 ° 0 min 0 W/m² 0,6 °C 1,9 °C 8,0 km/h (2 Bft)
28.12.2020 22:17 23,0 °C 1,9 °C 47 % 91 % 982,4 hPa 0,0 l/m² 4,7 km/h (1 Bft) O-SO 112 ° 0 min 0 W/m² 0,6 °C 1,9 °C 6,4 km/h (2 Bft)
28.12.2020 22:19 23,0 °C 1,9 °C 47 % 91 % 982,4 hPa 0,0 l/m² 6,7 km/h (2 Bft) O-SO 115 ° 0 min 0 W/m² 0,6 °C 1,6 °C 12,9 km/h (3 Bft)
28.12.2020 22:20 23,0 °C 1,9 °C 47 % 91 % 982,5 hPa 0,0 l/m² 11,1 km/h (2 Bft) SO 134 ° 0 min 0 W/m² 0,6 °C -2,2 °C 14,5 km/h (3 Bft)
28.12.2020 22:21 23,0 °C 2,0 °C 47 % 91 % 982,5 hPa 0,0 l/m² 10,2 km/h (2 Bft) SO 136 ° 0 min 0 W/m² 0,7 °C -1,4 °C 12,9 km/h (3 Bft)
28.12.2020 22:22 23,0 °C 2,0 °C 47 % 92 % 982,4 hPa 0,0 l/m² 6,4 km/h (2 Bft) SO 133 ° 0 min 0 W/m² 0,8 °C 2,0 °C 8,0 km/h (2 Bft)
28.12.2020 22:23 23,0 °C 2,0 °C 47 % 92 % 982,5 hPa 0,0 l/m² 6,3 km/h (2 Bft) SO 125 ° 0 min 0 W/m² 0,8 °C 2,0 °C 9,7 km/h (2 Bft)
28.12.2020 22:25 23,1 °C 2,1 °C 47 % 91 % 982,4 hPa 0,0 l/m² 6,5 km/h (2 Bft) O 96 ° 0 min 0 W/m² 0,8 °C 2,0 °C 9,7 km/h (2 Bft)
28.12.2020 22:27 23,0 °C 2,1 °C 47 % 91 % 982,4 hPa 0,0 l/m² 5,3 km/h (1 Bft) O 87 ° 0 min 0 W/m² 0,8 °C 2,1 °C 9,7 km/h (2 Bft)
28.12.2020 22:28 23,0 °C 2,1 °C 47 % 91 % 982,5 hPa 0,0 l/m² 6,1 km/h (2 Bft) O 95 ° 0 min 0 W/m² 0,8 °C 2,1 °C 9,7 km/h (2 Bft)
28.12.2020 22:29 23,0 °C 2,1 °C 47 % 91 % 982,5 hPa 0,0 l/m² 4,2 km/h (1 Bft) O 94 ° 0 min 0 W/m² 0,8 °C 2,1 °C 4,8 km/h (1 Bft)
28.12.2020 22:31 23,0 °C 2,1 °C 47 % 91 % 982,3 hPa 0,0 l/m² 3,8 km/h (1 Bft) O 82 ° 0 min 0 W/m² 0,8 °C 2,1 °C 6,4 km/h (2 Bft)
28.12.2020 22:32 23,0 °C 2,1 °C 47 % 91 % 982,3 hPa 0,0 l/m² 3,9 km/h (1 Bft) O 82 ° 0 min 0 W/m² 0,8 °C 2,1 °C 4,8 km/h (1 Bft)
28.12.2020 22:33 23,0 °C 2,1 °C 47 % 91 % 982,3 hPa 0,0 l/m² 7,3 km/h (2 Bft) O 101 ° 0 min 0 W/m² 0,8 °C 1,2 °C 11,3 km/h (2 Bft)
28.12.2020 22:35 23,1 °C 2,1 °C 47 % 91 % 982,3 hPa 0,0 l/m² 6,6 km/h (2 Bft) O-SO 112 ° 0 min 0 W/m² 0,8 °C 1,9 °C 9,7 km/h (2 Bft)
28.12.2020 22:37 23,0 °C 2,1 °C 47 % 91 % 982,2 hPa 0,0 l/m² 5,7 km/h (2 Bft) O-SO 114 ° 0 min 0 W/m² 0,8 °C 2,1 °C 9,7 km/h (2 Bft)
28.12.2020 22:39 23,0 °C 2,1 °C 47 % 91 % 982,2 hPa 0,0 l/m² 6,4 km/h (2 Bft) O 99 ° 0 min 0 W/m² 0,8 °C 2,1 °C 9,7 km/h (2 Bft)
28.12.2020 22:40 23,0 °C 2,1 °C 47 % 91 % 982,2 hPa 0,0 l/m² 6,9 km/h (2 Bft) O-SO 109 ° 0 min 0 W/m² 0,8 °C 1,6 °C 9,7 km/h (2 Bft)
28.12.2020 22:41 23,0 °C 2,1 °C 47 % 91 % 982,1 hPa 0,0 l/m² 6,2 km/h (2 Bft) O-SO 105 ° 0 min 0 W/m² 0,8 °C 2,1 °C 9,7 km/h (2 Bft)
28.12.2020 22:42 23,0 °C 2,1 °C 47 % 92 % 982,1 hPa 0,0 l/m² 7,1 km/h (2 Bft) O-SO 111 ° 0 min 0 W/m² 0,9 °C 1,4 °C 11,3 km/h (2 Bft)
28.12.2020 22:43 23,0 °C 2,1 °C 47 % 91 % 982,2 hPa 0,0 l/m² 6,6 km/h (2 Bft) O-SO 111 ° 0 min 0 W/m² 0,8 °C 1,9 °C 11,3 km/h (2 Bft)
28.12.2020 22:45 23,0 °C 2,1 °C 47 % 91 % 982,0 hPa 0,0 l/m² 8,3 km/h (2 Bft) O-SO 113 ° 0 min 0 W/m² 0,8 °C 0,3 °C 12,9 km/h (3 Bft)
28.12.2020 22:47 23,0 °C 2,1 °C 47 % 91 % 982,1 hPa 0,0 l/m² 9,3 km/h (2 Bft) O-SO 121 ° 0 min 0 W/m² 0,8 °C -0,6 °C 14,5 km/h (3 Bft)
28.12.2020 22:49 23,0 °C 2,1 °C 47 % 91 % 981,9 hPa 0,0 l/m² 5,7 km/h (2 Bft) O-SO 104 ° 0 min 0 W/m² 0,8 °C 2,1 °C 9,7 km/h (2 Bft)
28.12.2020 22:50 23,0 °C 2,1 °C 47 % 91 % 981,9 hPa 0,0 l/m² 5,8 km/h (2 Bft) O-SO 103 ° 0 min 0 W/m² 0,8 °C 2,1 °C 9,7 km/h (2 Bft)
28.12.2020 22:51 23,0 °C 2,1 °C 47 % 91 % 981,9 hPa 0,0 l/m² 4,7 km/h (1 Bft) O-SO 107 ° 0 min 0 W/m² 0,8 °C 2,1 °C 6,4 km/h (2 Bft)
28.12.2020 22:52 23,0 °C 2,1 °C 47 % 91 % 982,1 hPa 0,0 l/m² 5,7 km/h (2 Bft) SO 138 ° 0 min 0 W/m² 0,8 °C 2,1 °C 8,0 km/h (2 Bft)
28.12.2020 22:53 23,0 °C 2,1 °C 47 % 91 % 981,9 hPa 0,0 l/m² 4,6 km/h (1 Bft) SO 137 ° 0 min 0 W/m² 0,8 °C 2,1 °C 6,4 km/h (2 Bft)
28.12.2020 22:55 23,0 °C 2,1 °C 47 % 91 % 982,0 hPa 0,0 l/m² 4,2 km/h (1 Bft) SO 139 ° 0 min 0 W/m² 0,8 °C 2,1 °C 8,0 km/h (2 Bft)
28.12.2020 22:57 23,0 °C 2,1 °C 47 % 91 % 982,0 hPa 0,0 l/m² 3,2 km/h (1 Bft) SO 139 ° 0 min 0 W/m² 0,8 °C 2,1 °C 4,8 km/h (1 Bft)
28.12.2020 22:59 23,0 °C 2,1 °C 47 % 91 % 982,1 hPa 0,0 l/m² 4,7 km/h (1 Bft) SO 132 ° 0 min 0 W/m² 0,8 °C 2,1 °C 9,7 km/h (2 Bft)
28.12.2020 23:00 23,0 °C 2,1 °C 47 % 91 % 982,0 hPa 0,0 l/m² 6,3 km/h (2 Bft) SO 140 ° 0 min 0 W/m² 0,8 °C 2,1 °C 8,0 km/h (2 Bft)
28.12.2020 23:01 23,0 °C 2,1 °C 47 % 91 % 982,0 hPa 0,0 l/m² 5,6 km/h (2 Bft) SO 144 ° 0 min 0 W/m² 0,8 °C 2,1 °C 8,0 km/h (2 Bft)
28.12.2020 23:02 23,0 °C 2,1 °C 47 % 91 % 982,1 hPa 0,0 l/m² 6,2 km/h (2 Bft) SO 141 ° 0 min 0 W/m² 0,8 °C 2,1 °C 9,7 km/h (2 Bft)
28.12.2020 23:03 23,0 °C 2,1 °C 47 % 91 % 982,0 hPa 0,0 l/m² 7,3 km/h (2 Bft) SO 139 ° 0 min 0 W/m² 0,8 °C 1,2 °C 11,3 km/h (2 Bft)
28.12.2020 23:05 23,0 °C 2,1 °C 47 % 91 % 982,1 hPa 0,0 l/m² 8,4 km/h (2 Bft) SO 141 ° 0 min 0 W/m² 0,8 °C 0,2 °C 11,3 km/h (2 Bft)
28.12.2020 23:07 23,0 °C 2,1 °C 47 % 91 % 982,0 hPa 0,0 l/m² 8,7 km/h (2 Bft) SO 140 ° 0 min 0 W/m² 0,8 °C -0,1 °C 12,9 km/h (3 Bft)
28.12.2020 23:09 23,0 °C 2,1 °C 47 % 91 % 981,9 hPa 0,0 l/m² 6,7 km/h (2 Bft) S-SO 155 ° 0 min 0 W/m² 0,8 °C 1,8 °C 12,9 km/h (3 Bft)
28.12.2020 23:10 23,0 °C 2,1 °C 47 % 91 % 981,9 hPa 0,0 l/m² 10,0 km/h (2 Bft) S-SO 148 ° 0 min 0 W/m² 0,8 °C -1,1 °C 12,9 km/h (3 Bft)
28.12.2020 23:11 23,0 °C 2,1 °C 47 % 91 % 981,9 hPa 0,0 l/m² 4,9 km/h (1 Bft) SO 136 ° 0 min 0 W/m² 0,8 °C 2,1 °C 6,4 km/h (2 Bft)
28.12.2020 23:12 23,0 °C 2,1 °C 47 % 91 % 981,9 hPa 0,0 l/m² 7,7 km/h (2 Bft) SO 142 ° 0 min 0 W/m² 0,8 °C 0,8 °C 11,3 km/h (2 Bft)
28.12.2020 23:13 23,0 °C 2,1 °C 47 % 91 % 981,9 hPa 0,0 l/m² 8,4 km/h (2 Bft) S-SO 157 ° 0 min 0 W/m² 0,8 °C 0,2 °C 12,9 km/h (3 Bft)
28.12.2020 23:15 23,0 °C 2,1 °C 47 % 91 % 981,9 hPa 0,0 l/m² 10,4 km/h (2 Bft) S-SO 149 ° 0 min 0 W/m² 0,8 °C -1,4 °C 14,5 km/h (3 Bft)
28.12.2020 23:16 23,0 °C 2,1 °C 47 % 91 % 981,9 hPa 0,0 l/m² 12,9 km/h (3 Bft) S-SO 157 ° 0 min 0 W/m² 0,8 °C -3,2 °C 16,1 km/h (3 Bft)
28.12.2020 23:23 23,0 °C 2,0 °C 47 % 91 % 981,7 hPa 0,0 l/m² 10,1 km/h (2 Bft) S-SO 150 ° 0 min 0 W/m² 0,7 °C -1,3 °C 12,9 km/h (3 Bft)
28.12.2020 23:24 23,0 °C 2,0 °C 47 % 91 % 981,7 hPa 0,0 l/m² 7,2 km/h (2 Bft) SO 144 ° 0 min 0 W/m² 0,7 °C 1,2 °C 11,3 km/h (2 Bft)
28.12.2020 23:25 23,0 °C 2,0 °C 47 % 91 % 981,7 hPa 0,0 l/m² 5,6 km/h (2 Bft) S-SO 159 ° 0 min 0 W/m² 0,7 °C 2,0 °C 8,0 km/h (2 Bft)
28.12.2020 23:26 23,0 °C 2,0 °C 47 % 91 % 981,8 hPa 0,0 l/m² 9,6 km/h (2 Bft) S-SO 154 ° 0 min 0 W/m² 0,7 °C -0,9 °C 14,5 km/h (3 Bft)
28.12.2020 23:27 22,9 °C 2,0 °C 47 % 91 % 981,8 hPa 0,0 l/m² 8,1 km/h (2 Bft) S 172 ° 0 min 0 W/m² 0,7 °C 0,4 °C 11,3 km/h (2 Bft)
28.12.2020 23:29 23,0 °C 1,9 °C 47 % 91 % 981,7 hPa 0,0 l/m² 7,6 km/h (2 Bft) S-SO 157 ° 0 min 0 W/m² 0,6 °C 0,7 °C 11,3 km/h (2 Bft)
28.12.2020 23:30 22,9 °C 1,9 °C 47 % 91 % 981,7 hPa 0,0 l/m² 6,2 km/h (2 Bft) S-SO 159 ° 0 min 0 W/m² 0,6 °C 1,9 °C 8,0 km/h (2 Bft)
28.12.2020 23:31 22,9 °C 1,9 °C 47 % 91 % 981,7 hPa 0,0 l/m² 6,3 km/h (2 Bft) S-SO 159 ° 0 min 0 W/m² 0,6 °C 1,9 °C 9,7 km/h (2 Bft)
28.12.2020 23:32 22,9 °C 1,9 °C 47 % 91 % 981,8 hPa 0,0 l/m² 8,6 km/h (2 Bft) S 174 ° 0 min 0 W/m² 0,6 °C -0,2 °C 14,5 km/h (3 Bft)
28.12.2020 23:33 22,9 °C 1,9 °C 47 % 91 % 981,8 hPa 0,0 l/m² 8,8 km/h (2 Bft) S-SO 156 ° 0 min 0 W/m² 0,6 °C -0,4 °C 9,7 km/h (2 Bft)
28.12.2020 23:35 22,9 °C 1,8 °C 47 % 91 % 981,9 hPa 0,0 l/m² 7,4 km/h (2 Bft) S-SO 165 ° 0 min 0 W/m² 0,5 °C 0,8 °C 9,7 km/h (2 Bft)
28.12.2020 23:37 22,9 °C 1,8 °C 47 % 91 % 981,8 hPa 0,0 l/m² 7,8 km/h (2 Bft) S 169 ° 0 min 0 W/m² 0,5 °C 0,4 °C 11,3 km/h (2 Bft)
28.12.2020 23:39 22,9 °C 1,8 °C 47 % 91 % 981,9 hPa 0,0 l/m² 7,1 km/h (2 Bft) S 175 ° 0 min 0 W/m² 0,5 °C 1,1 °C 9,7 km/h (2 Bft)
28.12.2020 23:40 22,9 °C 1,8 °C 47 % 91 % 981,9 hPa 0,0 l/m² 6,7 km/h (2 Bft) S 169 ° 0 min 0 W/m² 0,5 °C 1,5 °C 9,7 km/h (2 Bft)
28.12.2020 23:41 22,9 °C 1,8 °C 47 % 91 % 981,9 hPa 0,0 l/m² 8,2 km/h (2 Bft) S-SO 165 ° 0 min 0 W/m² 0,5 °C 0,1 °C 11,3 km/h (2 Bft)
28.12.2020 23:42 22,9 °C 1,8 °C 47 % 91 % 981,8 hPa 0,0 l/m² 7,4 km/h (2 Bft) S-SO 159 ° 0 min 0 W/m² 0,5 °C 0,8 °C 9,7 km/h (2 Bft)
28.12.2020 23:43 22,9 °C 1,7 °C 47 % 91 % 981,9 hPa 0,0 l/m² 7,4 km/h (2 Bft) S 180 ° 0 min 0 W/m² 0,4 °C 0,7 °C 9,7 km/h (2 Bft)
28.12.2020 23:45 22,9 °C 1,7 °C 47 % 91 % 982,0 hPa 0,0 l/m² 7,0 km/h (2 Bft) S 175 ° 0 min 0 W/m² 0,4 °C 1,1 °C 9,7 km/h (2 Bft)
28.12.2020 23:47 22,9 °C 1,7 °C 47 % 91 % 981,8 hPa 0,0 l/m² 5,1 km/h (1 Bft) S 184 ° 0 min 0 W/m² 0,4 °C 1,7 °C 6,4 km/h (2 Bft)
28.12.2020 23:49 22,9 °C 1,6 °C 47 % 91 % 981,8 hPa 0,0 l/m² 5,7 km/h (2 Bft) S 178 ° 0 min 0 W/m² 0,3 °C 1,6 °C 8,0 km/h (2 Bft)
28.12.2020 23:50 22,9 °C 1,6 °C 47 % 91 % 981,8 hPa 0,0 l/m² 5,2 km/h (1 Bft) S 181 ° 0 min 0 W/m² 0,3 °C 1,6 °C 8,0 km/h (2 Bft)
28.12.2020 23:51 22,9 °C 1,6 °C 47 % 91 % 981,8 hPa 0,0 l/m² 6,2 km/h (2 Bft) S 171 ° 0 min 0 W/m² 0,3 °C 1,6 °C 8,0 km/h (2 Bft)
28.12.2020 23:52 22,9 °C 1,6 °C 47 % 91 % 981,8 hPa 0,0 l/m² 7,6 km/h (2 Bft) S-SW 198 ° 0 min 0 W/m² 0,3 °C 0,4 °C 11,3 km/h (2 Bft)
28.12.2020 23:53 22,9 °C 1,6 °C 47 % 91 % 981,8 hPa 0,0 l/m² 5,4 km/h (2 Bft) S 189 ° 0 min 0 W/m² 0,3 °C 1,6 °C 6,4 km/h (2 Bft)
28.12.2020 23:55 22,9 °C 1,6 °C 47 % 91 % 981,8 hPa 0,0 l/m² 5,8 km/h (2 Bft) S 181 ° 0 min 0 W/m² 0,3 °C 1,6 °C 8,0 km/h (2 Bft)
28.12.2020 23:57 22,9 °C 1,6 °C 47 % 91 % 981,9 hPa 0,0 l/m² 4,5 km/h (1 Bft) S-SO 157 ° 0 min 0 W/m² 0,3 °C 1,6 °C 9,7 km/h (2 Bft)
28.12.2020 23:59 22,9 °C 1,5 °C 47 % 91 % 981,8 hPa 0,0 l/m² 3,2 km/h (1 Bft) S 184 ° 0 min 0 W/m² 0,2 °C 1,5 °C 4,8 km/h (1 Bft)
_ Min-Zeit 10:35 09:09 11:14 00:21 23:31 - 18:02 - - - - 00:21 05:22 19:43
Minimum _ 22,7 °C 0,4 °C 35 % 57 % 981,7 hPa - 0,1 km/h (0 Bft) - - - - -4,7 °C -7,1 °C 1,6 km/h (1 Bft)
_ Max-Zeit 00:13 13:37 20:21 22:42 00:15 21:39 05:22 - - 14:41 13:25 13:32 13:37 04:47
Maximum _ 23,4 °C 5,8 °C 49 % 92 % 985,6 hPa 0,2 l/m² 22,3 km/h
SO (4 Bft)
- - 2 min 243 W/m² 1,4 °C 5,8 °C 32,2 km/h
S-SO (5 Bft)
Durchschnitt _ 23,0 °C 2,7 °C 45 % 78 % 982,9 hPa #1,2 l/m² 8,3 km/h (2 Bft) O - #5:21 h 28 W/m² -0,9 °C 0,5 °C 11,8 km/h (2 Bft)
© 2009 Mathias Hoßbach